[[{"header":{"parameterUnit":"m.s-1","parameterCategory":1,"la1":30.6,"la2":28.766,"lo1":-90.7593,"lo2":-88.6598,"dx":0.0162,"dy":0.0183,"nx":116,"ny":114,"refTime":"2023-02-05T06:00:00:Z","depth":0,"parameterNumber":2,"parameterNumberName":"U-component_of_WINDS"},"data":[0.0,0.0,0.0,0.0,0.0,0.0,0.0,0.0,0.0,0.0,0.0,0.0,0.0,0.0,0.0,0.0,0.0,0.0,0.0,0.0,0.0,0.0,0.0,0.0,0.0,0.0,0.0,0.0,0.0,0.0,0.0,0.0,0.0,0.0,0.0,0.0,0.0,0.0,0.0,0.0,0.0,0.0,0.0,0.0,0.0,0.0,0.0,0.0,0.0,0.0,0.0,0.0,0.0,0.0,0.0,0.0,0.0,0.0,0.0,0.0,0.0,0.0,0.0,0.0,0.0,0.0,0.0,0.0,0.0,0.0,0.0,0.0,0.0,0.0,0.0,0.0,0.0,0.0,0.0,0.0,0.0,0.0,0.0,0.0,0.0,0.0,0.0,0.0,0.0,0.0,0.0,0.0,0.0,0.0,0.0,0.0,0.0,0.0,0.0,0.0,0.0,0.0,0.0,0.0,0.0,0.0,0.0,0.0,0.0,0.0,0.0,0.0,0.0,0.0,0.0,0.0,0.0,0.0,0.0,0.0,0.0,0.0,0.0,0.0,0.0,0.0,0.0,0.0,0.0,0.0,0.0,0.0,0.0,0.0,0.0,0.0,0.0,0.0,0.0,0.0,0.0,0.0,0.0,0.0,0.0,0.0,0.0,0.0,0.0,0.0,0.0,0.0,0.0,0.0,0.0,0.0,0.0,0.0,0.0,0.0,0.0,0.0,0.0,0.0,0.0,0.0,0.0,0.0,0.0,0.0,0.0,0.0,0.0,0.0,0.0,0.0,0.0,0.0,0.0,0.0,0.0,0.0,0.0,0.0,0.0,0.0,0.0,0.0,0.0,0.0,0.0,0.0,0.0,0.0,0.0,0.0,0.0,0.0,0.0,0.0,0.0,0.0,0.0,0.0,0.0,0.0,0.0,0.0,0.0,0.0,0.0,0.0,0.0,0.0,0.0,0.0,0.0,0.0,0.0,0.0,0.0,0.0,0.0,0.0,0.0,0.0,0.0,0.0,0.0,0.0,0.0,0.0,0.0,0.0,0.0,0.0,0.0,0.0,0.0,0.0,0.0,0.0,0.0,0.0,0.0,0.0,0.0,0.0,0.0,0.0,0.0,0.0,0.0,0.0,0.0,0.0,0.0,0.0,0.0,0.0,0.0,0.0,0.0,0.0,0.0,0.0,0.0,0.0,0.0,0.0,0.0,0.0,0.0,0.0,0.0,0.0,0.0,0.0,0.0,0.0,0.0,0.0,0.0,0.0,0.0,0.0,0.0,0.0,0.0,0.0,0.0,0.0,0.0,0.0,0.0,0.0,0.0,0.0,0.0,0.0,0.0,0.0,0.0,0.0,0.0,0.0,0.0,0.0,0.0,0.0,0.0,0.0,0.0,0.0,0.0,0.0,0.0,0.0,0.0,0.0,0.0,0.0,0.0,0.0,0.0,0.0,0.0,0.0,0.0,0.0,0.0,0.0,0.0,0.0,0.0,0.0,0.0,0.0,0.0,0.0,0.0,0.0,0.0,0.0,0.0,0.0,0.0,0.0,0.0,0.0,0.0,0.0,0.0,0.0,0.0,0.0,0.0,0.0,0.0,0.0,0.0,0.0,0.0,0.0,0.0,0.0,0.0,0.0,0.0,0.0,0.0,0.0,0.0,0.0,0.0,0.0,0.0,0.0,0.0,0.0,0.0,0.0,0.0,0.0,0.0,0.0,0.0,0.0,0.0,0.0,0.0,0.0,0.0,0.0,0.0,0.0,0.0,0.0,0.0,0.0,0.0,0.0,0.0,0.0,0.0,0.0,0.0,0.0,0.0,0.0,0.0,0.0,0.0,0.0,0.0,0.0,0.0,0.0,0.0,0.0,0.0,0.0,0.0,0.0,0.0,0.0,0.0,0.0,0.0,0.0,0.0,0.0,0.0,0.0,0.0,0.0,0.0,0.0,0.0,0.0,0.0,0.0,0.0,0.0,0.0,0.0,0.0,0.0,0.0,0.0,0.0,0.0,0.0,0.0,0.0,0.0,0.0,0.0,0.0,0.0,0.0,0.0,0.0,0.0,0.0,0.0,0.0,0.0,0.0,0.0,0.0,0.0,0.0,0.0,0.0,0.0,0.0,0.0,0.0,0.0,0.0,0.0,0.0,0.0,0.0,0.0,0.0,0.0,0.0,0.0,0.0,0.0,0.0,0.0,0.0,0.0,0.0,0.0,0.0,0.0,0.0,0.0,0.0,0.0,0.0,0.0,0.0,0.0,0.0,0.0,0.0,0.0,0.0,0.0,0.0,0.0,0.0,0.0,0.0,0.0,0.0,0.0,0.0,0.0,0.0,0.0,0.0,0.0,0.0,0.0,0.0,0.0,0.0,0.0,0.0,0.0,0.0,0.0,0.0,0.0,0.0,0.0,0.0,0.0,0.0,0.0,0.0,0.0,0.0,0.0,0.0,0.0,0.0,0.0,0.0,0.0,0.0,0.0,0.0,0.0,0.0,0.0,0.0,0.0,0.0,0.0,0.0,0.0,0.0,0.0,0.0,0.0,0.0,0.0,0.0,0.0,0.0,0.0,0.0,0.0,0.0,0.0,0.0,0.0,0.0,0.0,0.0,0.0,0.0,0.0,0.0,0.0,0.0,0.0,0.0,0.0,0.0,0.0,0.0,0.0,0.0,0.0,0.0,0.0,0.0,0.0,0.0,0.0,0.0,0.0,0.0,0.0,0.0,0.0,0.0,0.0,0.0,0.0,0.0,0.0,0.0,0.0,0.0,0.0,0.0,0.0,0.0,0.0,0.0,0.0,0.0,0.0,0.0,0.0,0.0,0.0,0.0,0.0,0.0,0.0,0.0,0.0,0.0,0.0,0.0,0.0,0.0,0.0,0.0,0.0,0.0,0.0,0.0,0.0,0.0,0.0,0.0,0.0,0.0,0.0,0.0,0.0,0.0,0.0,0.0,0.0,0.0,0.0,0.0,0.0,0.0,0.0,0.0,0.0,0.0,0.0,0.0,0.0,0.0,0.0,0.0,0.0,0.0,0.0,0.0,0.0,0.0,0.0,0.0,0.0,0.0,0.0,0.0,0.0,0.0,0.0,0.0,0.0,0.0,0.0,0.0,0.0,0.0,0.0,0.0,0.0,0.0,0.0,0.0,0.0,0.0,0.0,0.0,0.0,0.0,0.0,0.0,0.0,0.0,0.0,0.0,0.0,0.0,0.0,0.0,0.0,0.0,0.0,0.0,0.0,0.0,0.0,0.0,0.0,0.0,0.0,0.0,0.0,0.0,0.0,0.0,0.0,0.0,0.0,0.0,0.0,0.0,0.0,0.0,0.0,0.0,0.0,0.0,0.0,0.0,0.0,0.0,0.0,0.0,0.0,0.0,0.0,0.0,0.0,0.0,0.0,0.0,0.0,0.0,0.0,0.0,0.0,0.0,0.0,0.0,0.0,0.0,0.0,0.0,0.0,0.0,0.0,0.0,0.0,0.0,0.0,0.0,0.0,0.0,0.0,0.0,0.0,0.0,0.0,0.0,0.0,0.0,0.0,0.0,0.0,0.0,0.0,0.0,0.0,0.0,0.0,0.0,0.0,0.0,0.0,0.0,0.0,0.0,0.0,0.0,0.0,0.0,0.0,0.0,0.0,0.0,0.0,0.0,0.0,0.0,0.0,0.0,0.0,0.0,0.0,0.0,0.0,0.0,0.0,0.0,0.0,0.0,0.0,0.0,0.0,0.0,0.0,0.0,0.0,0.0,0.0,0.0,0.0,0.0,0.0,0.0,0.0,0.0,0.0,0.0,0.0,0.0,0.0,0.0,0.0,0.0,0.0,0.0,0.0,0.0,0.0,0.0,0.0,0.0,0.0,0.0,0.0,0.0,0.0,0.0,0.0,0.0,0.0,0.0,0.0,0.0,0.0,0.0,0.0,0.0,0.0,0.0,0.0,0.0,0.0,0.0,0.0,0.0,0.0,0.0,0.0,0.0,0.0,0.0,0.0,0.0,0.0,0.0,0.0,0.0,0.0,0.0,0.0,0.0,0.0,0.0,0.0,0.0,0.0,0.0,0.0,0.0,0.0,0.0,0.0,0.0,0.0,0.0,0.0,0.0,0.0,0.0,0.0,0.0,0.0,0.0,0.0,0.0,0.0,0.0,0.0,0.0,0.0,0.0,0.0,0.0,0.0,0.0,0.0,0.0,0.0,0.0,0.0,0.0,0.0,0.0,0.0,0.0,0.0,0.0,0.0,0.0,0.0,0.0,0.0,0.0,0.0,0.0,0.0,0.0,0.0,0.0,0.0,0.0,0.0,0.0,0.0,0.0,0.0,0.0,0.0,0.0,0.0,0.0,0.0,0.0,0.0,0.0,0.0,0.0,0.0,0.0,0.0,0.0,0.0,0.0,0.0,0.0,0.0,0.0,0.0,0.0,0.0,0.0,0.0,0.0,0.0,0.0,0.0,0.0,0.0,0.0,0.0,0.0,0.0,0.0,0.0,0.0,0.0,0.0,0.0,0.0,0.0,0.0,0.0,0.0,0.0,0.0,0.0,0.0,0.0,0.0,0.0,0.0,0.0,0.0,0.0,0.0,0.0,0.0,0.0,0.0,0.0,0.0,0.0,0.0,0.0,0.0,0.0,0.0,0.0,0.0,0.0,0.0,0.0,0.0,0.0,0.0,0.0,0.0,0.0,0.0,0.0,0.0,0.0,0.0,0.0,0.0,0.0,0.0,0.0,0.0,0.0,0.0,0.0,0.0,0.0,0.0,0.0,0.0,0.0,0.0,0.0,0.0,0.0,0.0,0.0,0.0,0.0,0.0,0.0,0.0,0.0,0.0,0.0,0.0,0.0,0.0,0.0,0.0,0.0,0.0,0.0,0.0,0.0,0.0,0.0,0.0,0.0,0.0,0.0,0.0,0.0,0.0,0.0,0.0,0.0,0.0,0.0,0.0,0.0,0.0,0.0,0.0,0.0,0.0,0.0,0.0,0.0,0.0,0.0,0.0,0.0,0.0,0.0,0.0,0.0,0.0,0.0,0.0,0.0,0.0,0.0,0.0,0.0,0.0,0.0,0.0,0.0,0.0,0.0,0.0,0.0,0.0,0.0,0.0,0.0,0.0,0.0,0.0,0.0,0.0,0.0,0.0,0.0,0.0,0.0,0.0,0.0,0.0,0.0,0.0,0.0,0.0,0.0,0.0,0.0,0.0,0.0,0.0,0.0,0.0,0.0,0.0,0.0,0.0,0.0,0.0,0.0,0.0,0.0,0.0,0.0,0.0,0.0,0.0,0.0,0.0,0.0,0.0,0.0,0.0,0.0,0.0,0.0,0.0,0.0,0.0,0.0,0.0,0.0,0.0,0.0,0.0,0.0,0.0,0.0,0.0,0.0,0.0,0.0,0.0,0.0,0.0,0.0,0.0,0.0,0.0,0.0,0.0,0.0,0.0,0.0,0.0,0.0,0.0,0.0,0.0,0.0,0.0,0.0,0.0,0.0,0.0,0.0,0.0,0.0,0.0,0.0,0.0,0.0,0.0,0.0,0.0,0.0,0.0,0.0,0.0,0.0,0.0,0.0,0.0,0.0,0.0,0.0,0.0,0.0,0.0,0.0,0.0,0.0,0.0,0.0,0.0,0.0,0.0,0.0,0.0,0.0,0.0,0.0,0.0,0.0,0.0,0.0,0.0,0.0,0.0,0.0,0.0,0.0,0.0,0.0,0.0,0.0,0.0,0.0,0.0,0.0,0.0,0.0,0.0,0.0,0.0,0.0,0.0,0.0,0.0,0.0,0.0,0.0,0.0,0.0,0.0,0.0,0.0,0.0,0.0,0.0,0.0,0.0,0.0,0.0,0.0,0.0,0.0,0.0,0.0,0.0,0.0,0.0,0.0,0.0,0.0,0.0,0.0,0.0,0.0,0.0,0.0,0.0,0.0,0.0,0.0,0.0,0.0,0.0,0.0,0.0,0.0,0.0,0.0,0.0,0.0,0.0,0.0,0.0,0.0,0.0,0.0,0.0,0.0,0.0,0.0,0.0,0.0,0.0,0.0,0.0,0.0,0.0,0.0,0.0,0.0,0.0,0.0,0.0,0.0,0.0,0.0,0.0,0.0,0.0,0.0,0.0,-1.6968,-1.6848,0.0,0.0,0.0,0.0,0.0,0.0,0.0,0.0,0.0,0.0,0.0,0.0,0.0,0.0,0.0,0.0,0.0,0.0,0.0,0.0,0.0,0.0,0.0,0.0,0.0,0.0,0.0,0.0,0.0,0.0,0.0,0.0,0.0,0.0,0.0,0.0,0.0,0.0,0.0,0.0,0.0,0.0,0.0,0.0,0.0,0.0,0.0,0.0,0.0,0.0,0.0,0.0,0.0,0.0,0.0,0.0,0.0,0.0,0.0,0.0,0.0,0.0,0.0,0.0,0.0,0.0,0.0,0.0,0.0,0.0,0.0,0.0,0.0,0.0,0.0,0.0,0.0,0.0,0.0,0.0,0.0,0.0,0.0,0.0,0.0,0.0,0.0,0.0,0.0,0.0,0.0,0.0,0.0,0.0,0.0,0.0,0.0,0.0,0.0,0.0,0.0,0.0,0.0,0.0,0.0,0.0,0.0,0.0,0.0,0.0,0.0,0.0,0.0,0.0,-1.8449,-1.7915,0.0,0.0,0.0,0.0,0.0,0.0,0.0,0.0,0.0,0.0,0.0,0.0,0.0,0.0,0.0,0.0,0.0,0.0,0.0,0.0,0.0,0.0,0.0,0.0,0.0,0.0,0.0,0.0,0.0,0.0,0.0,0.0,0.0,0.0,0.0,0.0,0.0,0.0,0.0,0.0,0.0,0.0,0.0,0.0,0.0,0.0,0.0,0.0,0.0,0.0,0.0,0.0,0.0,0.0,0.0,0.0,0.0,0.0,0.0,0.0,0.0,0.0,0.0,0.0,0.0,0.0,0.0,0.0,0.0,0.0,0.0,0.0,0.0,0.0,0.0,0.0,0.0,0.0,0.0,0.0,0.0,0.0,0.0,0.0,0.0,0.0,0.0,0.0,0.0,0.0,0.0,0.0,0.0,0.0,0.0,0.0,0.0,0.0,0.0,0.0,0.0,0.0,0.0,0.0,0.0,0.0,0.0,0.0,-2.14,-2.1547,-2.1025,-2.1706,-2.1602,-2.0899,-2.0116,-1.9199,-1.8359,-1.852,0.0,0.0,0.0,0.0,0.0,0.0,0.0,0.0,0.0,0.0,0.0,0.0,0.0,0.0,0.0,0.0,0.0,0.0,0.0,0.0,0.0,0.0,0.0,0.0,0.0,0.0,0.0,0.0,0.0,0.0,0.0,0.0,0.0,0.0,0.0,0.0,0.0,0.0,-2.6133,-2.5712,-2.5741,-2.5977,0.0,0.0,0.0,0.0,0.0,0.0,0.0,0.0,0.0,0.0,0.0,0.0,0.0,0.0,0.0,0.0,0.0,0.0,0.0,0.0,0.0,0.0,0.0,0.0,0.0,0.0,0.0,0.0,0.0,0.0,0.0,0.0,0.0,0.0,0.0,0.0,0.0,0.0,0.0,0.0,0.0,0.0,0.0,0.0,-1.8144,-1.8481,0.0,0.0,0.0,0.0,0.0,0.0,0.0,0.0,0.0,0.0,0.0,0.0,0.0,-2.0067,-1.855,-1.958,-1.9681,-1.8899,-2.0703,-2.1522,-2.1425,-2.2145,-2.2363,-2.2227,-2.1758,0.0,-1.9609,-1.889,0.0,0.0,0.0,0.0,0.0,0.0,0.0,0.0,0.0,0.0,0.0,0.0,0.0,0.0,0.0,0.0,0.0,0.0,0.0,0.0,0.0,0.0,0.0,0.0,0.0,0.0,0.0,0.0,0.0,0.0,0.0,0.0,0.0,0.0,0.0,0.0,-2.5937,-2.7012,-2.7812,-2.7617,-2.75,-2.7402,-2.6153,-2.4933,-2.375,-2.3363,0.0,0.0,0.0,0.0,0.0,0.0,0.0,0.0,0.0,0.0,0.0,0.0,0.0,0.0,0.0,0.0,0.0,0.0,0.0,0.0,0.0,0.0,0.0,0.0,0.0,0.0,0.0,0.0,0.0,0.0,0.0,0.0,0.0,0.0,0.0,0.0,0.0,0.0,0.0,-1.9355,-1.9555,-1.8901,-1.9032,-1.89,0.0,0.0,0.0,0.0,0.0,0.0,0.0,0.0,0.0,-1.8727,-1.9492,-1.9906,-1.9945,-2.0824,-2.1057,-2.0588,-2.2901,-2.3081,-2.1556,-2.3121,-2.3606,-2.3127,-2.2706,-2.2054,-2.125,-2.0525,-2.0313,-2.043,0.0,0.0,0.0,0.0,-1.9414,-1.9004,0.0,0.0,0.0,0.0,0.0,0.0,0.0,0.0,0.0,0.0,0.0,0.0,0.0,0.0,0.0,-2.2187,0.0,0.0,0.0,0.0,0.0,0.0,0.0,0.0,0.0,0.0,0.0,0.0,-2.7347,-2.8385,-2.9238,-2.9141,-2.8984,-2.875,-2.7502,-2.6068,-2.4394,-2.3697,-2.2746,0.0,0.0,0.0,0.0,0.0,0.0,0.0,0.0,0.0,0.0,0.0,0.0,0.0,0.0,0.0,0.0,0.0,0.0,0.0,0.0,0.0,0.0,0.0,0.0,0.0,0.0,0.0,0.0,0.0,0.0,0.0,0.0,0.0,0.0,0.0,0.0,0.0,0.0,-2.0195,-2.0178,-1.8805,-1.8928,-1.8758,0.0,0.0,0.0,0.0,0.0,0.0,-1.8694,-1.8807,-1.8723,-1.8454,-1.9019,-1.9701,-2.0634,-2.1601,-2.1996,-2.1881,-2.403,-2.4074,-2.2315,-2.3809,-2.4291,-2.3994,-2.3399,-2.3002,-2.2688,-2.1888,-2.14,-2.1113,-2.1113,-2.0979,-2.0749,-2.0738,-2.0294,-1.9772,0.0,0.0,0.0,0.0,0.0,0.0,0.0,0.0,0.0,0.0,0.0,0.0,0.0,0.0,-2.2821,-2.3181,-2.3655,-2.3529,0.0,0.0,0.0,0.0,0.0,0.0,0.0,0.0,0.0,-2.7611,-2.7101,-2.7977,-3.0117,-2.9726,-2.9746,-3.0002,-2.7903,-2.6739,-2.6152,-2.4473,-2.2846,-2.1465,0.0,0.0,0.0,0.0,0.0,0.0,0.0,0.0,0.0,0.0,0.0,0.0,0.0,0.0,0.0,0.0,0.0,0.0,0.0,0.0,0.0,0.0,0.0,0.0,0.0,0.0,0.0,0.0,0.0,0.0,0.0,0.0,0.0,0.0,0.0,0.0,0.0,0.0,0.0,-1.7896,-1.8716,0.0,0.0,0.0,0.0,-1.8483,-1.7819,-1.79,-1.9037,-1.8676,-1.8525,-1.8664,-1.9396,-1.948,-1.8932,-2.0414,-2.1148,-2.114,-2.2306,-2.3404,-2.4332,-2.352,-2.3782,-2.4779,-2.4032,-2.3672,-2.3559,-2.2309,-2.1779,-2.176,-2.1674,-2.1925,-2.217,-2.1377,-2.1074,-2.0923,0.0,0.0,0.0,0.0,0.0,0.0,0.0,0.0,0.0,0.0,0.0,0.0,0.0,-2.2264,-2.31,-2.2705,-2.4737,-2.5052,-2.2672,0.0,0.0,0.0,0.0,0.0,0.0,0.0,-2.5429,-2.6365,-2.9297,-3.0527,-3.0222,-3.1757,-3.151,-2.9817,-2.9046,-2.7682,-2.579,-2.3651,-2.285,-2.2827,-2.1443,0.0,0.0,0.0,0.0,0.0,0.0,0.0,0.0,0.0,0.0,0.0,0.0,0.0,0.0,0.0,0.0,0.0,0.0,0.0,0.0,0.0,0.0,0.0,0.0,0.0,0.0,0.0,0.0,0.0,0.0,0.0,0.0,0.0,0.0,0.0,0.0,0.0,0.0,-1.8486,-1.8862,0.0,-1.7763,-1.7252,-1.717,-1.7687,-1.7398,-1.7562,-1.8374,-1.9118,-1.9583,-1.9716,-2.0006,-2.0435,-2.1146,-2.1908,-2.2316,-2.2316,-2.4459,-2.504,-2.4295,-2.4469,-2.4674,-2.482,-2.3936,-2.3584,-2.3547,-2.3103,-2.2861,-2.2737,-2.2457,-2.2438,-2.2576,-2.241,-2.217,-2.1906,0.0,0.0,0.0,0.0,0.0,0.0,0.0,0.0,0.0,0.0,0.0,-1.9849,-2.1391,-2.2678,-2.3562,-2.3899,-2.5048,-2.4937,-2.3183,0.0,0.0,0.0,0.0,0.0,0.0,-2.3856,-2.5144,-2.568,-2.9305,-3.0665,-2.9825,-3.1904,-3.1707,-2.9526,-2.8767,-2.7554,-2.5897,-2.3067,-2.2247,-2.2655,0.0,0.0,-2.1583,0.0,0.0,0.0,0.0,0.0,0.0,0.0,0.0,0.0,0.0,0.0,0.0,0.0,0.0,0.0,0.0,0.0,0.0,0.0,0.0,0.0,0.0,0.0,0.0,0.0,0.0,0.0,0.0,0.0,0.0,0.0,0.0,0.0,0.0,-1.9317,-1.9396,-1.8877,-1.9104,-1.8942,-1.8076,-1.7227,-1.7018,-1.7608,-1.7484,-1.7632,-1.8156,-1.9092,-1.9885,-2.0424,-2.0424,-2.1123,-2.2625,-2.3272,-2.3624,-2.3648,-2.5441,-2.5792,-2.4982,-2.4845,-2.4853,-2.4941,-2.4097,-2.3749,-2.3749,-2.3749,-2.3699,-2.3584,-2.3288,-2.3224,-2.3205,-2.315,-2.2972,-2.2711,0.0,0.0,0.0,0.0,0.0,0.0,0.0,0.0,0.0,0.0,-1.8735,-2.0138,-2.2656,-2.3077,-2.4178,-2.6953,-2.4523,-2.3155,-2.3805,-2.1867,0.0,0.0,0.0,0.0,-2.244,-2.2843,-2.3932,-2.57,-2.6966,-2.8017,-2.8905,-3.0002,-3.0082,-2.9262,-2.7013,-2.625,-2.6409,-2.2795,-2.1143,0.0,0.0,0.0,-2.0432,0.0,0.0,0.0,0.0,0.0,0.0,0.0,0.0,0.0,0.0,0.0,0.0,0.0,0.0,0.0,0.0,0.0,0.0,0.0,0.0,0.0,0.0,0.0,0.0,0.0,0.0,0.0,0.0,0.0,0.0,0.0,0.0,0.0,-1.8438,-1.9491,-1.9807,-1.8941,-1.9441,-1.9424,-1.8171,-1.7836,-1.7903,-1.8504,-1.8222,-1.8237,-1.8573,-1.8642,-1.9306,-2.0803,-2.0818,-2.1582,-2.303,-2.4223,-2.4778,-2.4778,-2.4834,-2.5459,-2.65,-2.4561,-2.4316,-2.5396,-2.4587,-2.4238,-2.422,-2.422,-2.422,-2.422,-2.4202,-2.4202,-2.4146,-2.3712,-2.3499,-2.3389,0.0,0.0,0.0,0.0,0.0,0.0,0.0,0.0,0.0,0.0,-1.7513,-1.9315,-2.1872,-2.2732,-2.4024,-2.6054,-2.4935,-2.3883,-2.3314,0.0,0.0,0.0,0.0,0.0,-2.1149,-2.2719,-2.3679,-2.3972,-2.718,-2.8008,-2.6733,-2.8627,-2.8609,-2.6819,-2.6236,-2.5294,-2.3942,-2.2659,0.0,0.0,0.0,0.0,-2.0884,0.0,0.0,0.0,0.0,0.0,0.0,0.0,0.0,0.0,0.0,0.0,0.0,0.0,0.0,0.0,0.0,0.0,0.0,0.0,0.0,0.0,0.0,0.0,0.0,0.0,0.0,0.0,0.0,0.0,0.0,0.0,-1.6805,-1.7142,-1.837,-1.8809,-1.9038,-1.9194,-1.9784,-1.9965,-1.9626,-1.9559,-1.9573,-1.9746,-1.962,-1.9911,-2.0701,-2.1591,-2.2539,-2.3628,-2.3667,-2.3883,-2.4278,-2.4612,-2.4778,-2.4778,-2.5679,-2.63,-2.6573,-2.5702,-2.5519,-2.5819,-2.5304,-2.4918,-2.4661,-2.4661,-2.4661,-2.4624,-2.433,-2.4202,-2.4183,-2.4073,-2.3804,-2.3462,0.0,0.0,0.0,0.0,0.0,0.0,0.0,0.0,0.0,0.0,-1.6772,-1.9059,-2.2548,-2.2481,-2.3346,-2.6427,-2.385,-2.2166,-2.2376,0.0,0.0,0.0,0.0,-1.9479,-2.0828,-2.2373,-2.3165,-2.314,-2.6279,-2.7153,-2.5889,-2.7626,-2.76,-2.6072,-2.5652,-2.4736,-2.3311,0.0,0.0,0.0,0.0,0.0,-2.1573,-1.9203,-1.9135,-2.0012,-1.8474,-1.8255,-1.8592,-1.8396,0.0,0.0,0.0,0.0,0.0,0.0,0.0,0.0,0.0,0.0,0.0,0.0,0.0,0.0,0.0,0.0,0.0,0.0,0.0,0.0,0.0,0.0,0.0,0.0,-1.7214,-1.7887,-1.9042,-1.9108,-1.9265,-1.9853,-2.0214,-2.0468,-2.0588,-2.0374,-2.0281,-2.0414,-2.078,-2.1276,-2.1788,-2.3065,-2.4122,-2.5018,-2.5074,-2.5297,-2.5816,-2.5657,-2.5657,-2.5798,-2.6336,-2.6591,-2.6573,-2.6205,-2.6021,-2.5984,-2.5598,-2.5286,-2.5032,-2.5032,-2.5032,-2.4977,0.0,0.0,0.0,0.0,-2.4055,-2.3785,0.0,0.0,0.0,0.0,0.0,0.0,0.0,0.0,0.0,0.0,0.0,-1.8859,-2.3383,-2.1903,-2.2482,-2.7068,-2.2047,-1.9362,0.0,0.0,0.0,-1.9456,-1.9551,-2.0067,-2.1229,-2.2084,-2.2686,-2.3088,-2.4876,-2.5724,-2.5794,-2.6625,-2.6725,-2.6132,-2.5172,-2.4405,0.0,0.0,0.0,0.0,0.0,0.0,-2.2008,-1.9487,-1.936,-2.0337,-1.9329,-1.8258,-1.7443,-1.7946,0.0,0.0,0.0,0.0,0.0,0.0,0.0,0.0,0.0,0.0,0.0,0.0,0.0,0.0,0.0,0.0,0.0,0.0,0.0,0.0,0.0,0.0,0.0,0.0,-1.8104,-1.9025,-2.0134,-2.0094,-2.0147,-2.0668,-2.0722,-2.0828,-2.1082,-2.0641,-2.0502,-2.0956,-2.1797,-2.2378,-2.2647,-2.3819,0.0,0.0,0.0,-2.6204,-2.7251,-2.6903,-2.6866,-2.7178,-2.683,-2.6628,-2.6573,-2.626,-2.6094,-2.6058,-2.5708,-2.5543,-2.5488,-2.5488,-2.547,-2.5341,-2.4624,-2.4532,-2.4739,-2.4404,-2.4238,-2.4146,0.0,0.0,0.0,0.0,0.0,0.0,0.0,0.0,0.0,-1.3165,-1.4715,-1.6809,-1.9549,-1.9886,-2.1511,-2.5266,-2.1735,-1.9245,0.0,0.0,-1.8292,-1.9676,-2.0201,-2.0975,-2.2138,-2.2819,-2.3407,-2.3941,-2.458,-2.4815,-2.4888,-2.4805,-2.4891,-2.4948,-2.4521,0.0,0.0,0.0,0.0,0.0,0.0,0.0,-2.0958,-1.9945,-1.9423,-1.9135,-1.8224,-1.8171,-1.8424,-1.7669,-1.7735,-1.8071,-1.764,0.0,0.0,0.0,0.0,0.0,0.0,0.0,0.0,0.0,0.0,0.0,0.0,0.0,0.0,0.0,0.0,0.0,0.0,0.0,0.0,-1.805,-1.8971,-1.9786,-2.0494,-2.0748,-2.0895,-2.1015,-2.1029,-2.1042,-2.1096,-2.1002,-2.1388,-2.2553,-2.2806,-2.3688,-2.5492,-2.5847,-2.6382,-2.7314,-2.7353,-2.7466,-2.7711,-2.7638,-2.7416,-2.7178,-2.7105,0.0,-2.6591,-2.6499,-2.6463,-2.6463,-2.6389,-2.6169,-2.5892,-2.5892,-2.5708,-2.5414,-2.5249,-2.5047,-2.4776,-2.4684,-2.4496,-2.4183,0.0,0.0,0.0,0.0,0.0,0.0,0.0,0.0,0.0,0.0,-1.3601,-1.5408,-1.7841,-1.8085,-1.9369,-2.2522,-2.0204,0.0,0.0,-1.7857,-1.8691,-2.0174,-2.0802,-2.159,-2.2619,-2.3086,-2.3541,-2.3981,-2.4422,-2.4636,-2.4636,-2.4489,-2.4489,-2.4549,0.0,0.0,0.0,0.0,0.0,0.0,0.0,0.0,-2.1243,-2.0692,-2.0174,-1.972,-1.9118,-1.9011,-1.9052,-1.8519,-1.825,-1.8225,-1.8023,-1.7633,-1.7169,0.0,0.0,0.0,0.0,0.0,0.0,0.0,0.0,0.0,0.0,0.0,0.0,0.0,0.0,-1.5365,0.0,0.0,-1.7762,-1.9141,-1.9807,-2.0429,-2.1056,-2.1243,-2.1269,-2.1122,-2.1109,-2.1109,-2.1109,-2.1109,-2.1664,-2.3014,-2.3698,-2.4838,-2.6611,-2.7327,-2.7817,-2.8095,-2.7961,-2.7961,-2.8077,-2.7559,-2.7359,-2.7471,-2.6901,-2.6555,-2.6354,-2.6354,-2.6354,-2.6354,-2.6537,-2.6408,-2.6045,-2.6045,-2.6044,-2.5986,-2.5986,-2.5601,-2.5051,-2.4849,-2.4647,-2.4477,0.0,0.0,0.0,0.0,0.0,0.0,0.0,0.0,0.0,0.0,-1.2719,-1.4223,-1.6515,-1.6455,-1.7175,0.0,0.0,0.0,0.0,-1.7903,-1.9359,-2.0949,-2.1534,-2.2204,-2.3088,-2.3287,-2.3581,-2.3941,-2.4409,-2.4636,-2.4636,-2.4636,-2.4609,-2.4556,0.0,0.0,0.0,0.0,0.0,0.0,0.0,0.0,-2.2004,-2.1483,-2.1069,-2.0708,-2.0294,-1.9773,-1.9265,-1.9212,-1.8677,-1.805,-1.8248,-1.7709,-1.6908,-1.6681,-1.6278,0.0,0.0,0.0,0.0,0.0,0.0,0.0,0.0,0.0,-1.4896,-1.4977,-1.5404,-1.5999,-1.678,-1.758,-1.8557,-2.0011,-2.048,-2.09,-2.1523,-2.155,-2.1379,-2.1022,-2.1046,-2.1046,-2.0982,-2.0982,-2.1664,-2.3201,-2.4255,-2.5546,-2.7082,-2.8259,-2.8728,-2.8341,-2.8147,-2.8088,-2.8323,-2.738,-2.7239,-2.7703,-2.6695,-2.6206,-2.6134,-2.6044,-2.6008,-2.6008,-2.63,-2.6245,-2.6008,-2.6008,-2.619,-2.6427,-2.6427,-2.6026,-2.5388,-2.5069,-2.4904,-2.4831,0.0,0.0,0.0,0.0,0.0,0.0,0.0,0.0,0.0,0.0,0.0,0.0,0.0,0.0,0.0,0.0,0.0,0.0,-1.7795,-1.8731,-2.0147,-2.2138,-2.2285,-2.2739,-2.3647,-2.3701,-2.3995,-2.4543,-2.4609,-2.4636,-2.4636,-2.4636,-2.4502,0.0,0.0,0.0,0.0,0.0,0.0,0.0,0.0,0.0,-2.2338,-2.2004,-2.155,-2.0949,-2.0147,-1.9466,-1.8931,-1.8677,-1.8343,-1.8076,-1.8386,-1.8184,-1.7769,-1.7295,0.0,-1.6201,-1.6001,-1.5545,-1.5068,-1.4777,-1.4849,-1.5115,0.0,0.0,-1.5885,-1.6365,-1.6725,-1.7123,-1.7772,-1.8315,-1.9133,-2.0367,-2.0772,-2.1123,-2.155,-2.1291,-2.0993,-2.0705,-2.0919,-2.0982,-2.0666,-2.0679,-2.1601,-2.3822,-2.4131,-2.5301,-2.7762,-2.8337,-2.8379,-2.8086,-2.8325,-2.8325,-2.8068,-2.792,-2.7742,-2.744,-2.6996,-2.6605,-2.6267,-2.5911,-2.5734,-2.5734,-2.5789,-2.5789,-2.5734,-2.5734,-2.5789,-2.5806,-2.5806,-2.5735,-2.5629,-2.5425,-2.5307,-2.5197,0.0,0.0,0.0,0.0,0.0,0.0,0.0,0.0,0.0,0.0,0.0,0.0,0.0,0.0,0.0,0.0,0.0,0.0,-1.7406,-1.8972,-2.0618,-2.2349,-2.274,-2.3033,-2.3233,-2.3594,-2.3808,-2.3875,-2.4048,-2.4222,-2.4382,-2.4382,0.0,0.0,0.0,0.0,0.0,0.0,0.0,0.0,0.0,0.0,-2.2138,-2.1844,-2.1056,-2.004,-1.9679,-1.9172,0.0,0.0,-1.8023,-1.7836,-1.8143,-1.8023,-1.7662,-1.7061,-1.6494,0.0,-1.5113,-1.489,-1.4828,-1.4653,-1.4894,-1.5344,-1.5986,-1.6107,-1.6291,-1.6845,-1.7158,-1.7535,-1.8319,-1.8593,-1.9162,0.0,-2.0539,-2.0629,-2.1123,-2.0876,-2.0541,-2.0155,-2.0308,-2.0488,-2.0297,-2.1256,-2.2179,-2.3102,-2.4672,-2.5977,-2.7024,-2.7764,-2.814,-2.802,-2.796,-2.796,-2.802,-2.7551,-2.7357,-2.7393,-2.687,-2.6426,-2.5982,-2.5825,-2.5866,-2.6033,-2.5866,-2.5866,-2.6016,-2.5602,-2.5514,-2.5679,-2.5679,-2.5679,-2.568,-2.5344,-2.5288,-2.5374,0.0,0.0,0.0,0.0,0.0,0.0,0.0,0.0,0.0,0.0,0.0,0.0,0.0,0.0,0.0,0.0,0.0,0.0,0.0,-1.8685,-2.0539,-2.2194,-2.2673,-2.2983,-2.301,-2.337,-2.35,-2.3447,-2.3661,-2.3875,-2.4088,0.0,0.0,0.0,0.0,0.0,0.0,0.0,0.0,0.0,0.0,0.0,-2.1924,-2.139,-2.0388,-1.9225,-1.9052,-1.8464,0.0,0.0,-1.7221,-1.7061,-1.7476,-1.7528,-1.7261,-1.6733,-1.615,-1.5477,-1.4579,-1.457,-1.4801,-1.474,-1.517,-1.5784,-1.6399,-1.6573,-1.6791,-1.7406,-1.7624,-1.7925,-1.8717,-1.8789,-1.913,-2.0529,-2.0426,-2.0298,-2.0841,-2.056,-2.0168,-1.9612,-1.96,-1.965,-1.9726,-2.0988,-2.2107,-2.2589,-2.4483,-2.5732,-2.6042,-2.7236,-2.7642,-2.722,-2.7401,-2.7581,-2.7719,-2.72,-2.7078,-2.7316,-2.6737,-2.629,-2.6013,-2.5851,-2.5935,-2.6056,-2.5831,-2.5761,-2.5825,-2.5305,-2.5238,-2.5476,-2.5476,-2.5476,-2.5441,-2.5105,-2.5271,-2.5469,0.0,0.0,0.0,0.0,0.0,0.0,0.0,0.0,0.0,0.0,0.0,0.0,0.0,0.0,0.0,0.0,0.0,0.0,0.0,-1.7816,-1.9682,-2.1581,-2.1919,-2.2465,-2.3352,-2.3092,-2.3249,-2.3754,-2.3768,-2.3768,-2.3781,0.0,0.0,0.0,0.0,0.0,0.0,0.0,0.0,0.0,0.0,0.0,-2.1857,-2.0708,-1.972,-1.8865,-1.8263,0.0,0.0,0.0,-1.5698,-1.5618,-1.6473,-1.674,0.0,-1.6375,-1.5774,0.0,0.0,0.0,-1.5085,-1.5067,-1.5475,-1.6079,-1.6887,-1.7261,-1.7672,-1.8469,-1.8444,-1.8432,-1.9015,-1.8855,-1.9079,-2.0212,-2.0402,-2.0535,-2.0867,-2.0416,-1.9846,-1.9299,-1.8704,-1.8482,0.0,-1.9308,-2.0652,-2.2904,-2.3153,-2.3775,-2.5087,-2.6658,-2.6779,-2.5256,-2.6658,-2.7401,-2.7133,-2.7133,-2.7116,-2.7116,-2.6721,-2.6473,-2.6439,-2.608,-2.572,-2.5434,-2.5434,-2.5228,-2.483,-2.483,-2.4812,-2.4812,-2.4812,-2.4812,-2.4812,-2.4812,-2.5183,-2.5555,0.0,0.0,0.0,0.0,0.0,0.0,0.0,0.0,0.0,0.0,0.0,0.0,0.0,0.0,0.0,0.0,0.0,0.0,0.0,-1.6767,-1.8382,-1.9638,-2.1405,-2.2153,-2.1551,-2.251,-2.2786,-2.2365,-2.2365,-2.2498,-2.2873,0.0,0.0,0.0,0.0,0.0,0.0,0.0,0.0,0.0,0.0,0.0,-2.0428,-1.9452,-1.8397,-1.7368,0.0,0.0,0.0,0.0,0.0,0.0,-1.5483,0.0,0.0,-1.5083,0.0,0.0,0.0,0.0,-1.57,-1.6054,-1.6561,-1.7153,-1.7962,-1.8215,-1.8312,-1.8408,-1.8203,-1.7962,-1.7793,-1.7829,-1.8155,-1.8911,-1.9313,-1.9658,-1.9907,-1.9952,-1.9605,-1.8715,-1.887,0.0,0.0,0.0,-2.1022,-2.1988,-2.3762,-2.4953,-2.5343,-2.6566,-2.6995,-2.6449,-2.6935,-2.7194,-2.7073,-2.7073,-2.7073,-2.7073,-2.6679,-2.6491,-2.6473,-2.6114,-2.5874,-2.5737,-2.548,-2.5292,-2.5172,-2.4915,-2.4812,-2.4812,-2.4812,-2.4812,-2.4812,-2.4812,-2.4923,-2.511,0.0,0.0,0.0,0.0,0.0,0.0,0.0,0.0,0.0,0.0,0.0,0.0,0.0,0.0,0.0,0.0,0.0,0.0,0.0,0.0,-1.7034,-1.83,-2.0276,-2.0967,-2.0123,-2.132,-2.1561,-2.0699,-2.0733,-2.0913,-2.1289,0.0,0.0,0.0,0.0,0.0,0.0,0.0,0.0,0.0,0.0,0.0,-1.9052,-1.8076,-1.7088,0.0,0.0,0.0,0.0,0.0,0.0,0.0,0.0,0.0,0.0,0.0,0.0,0.0,0.0,-1.5849,-1.6561,-1.7008,-1.7515,-1.8022,-1.8444,-1.8541,-1.8444,-1.8082,-1.7708,-1.7358,-1.7008,-1.7008,-1.7274,-1.7901,-1.836,-1.8807,-1.9265,-1.9398,-1.9241,-1.8638,-1.8939,-1.8988,0.0,0.0,-2.0705,-2.1336,-2.299,-2.3998,-2.3951,-2.5507,-2.6189,-2.57,-2.6571,-2.7073,-2.7073,-2.7073,-2.7073,-2.7073,-2.6816,-2.6696,-2.6696,-2.6456,-2.6268,-2.6114,-2.5737,-2.5497,-2.54,-2.4967,-2.4812,-2.4812,-2.4812,-2.4812,-2.4812,-2.4812,-2.4812,-2.4812,0.0,0.0,0.0,0.0,0.0,0.0,0.0,0.0,0.0,0.0,0.0,0.0,0.0,0.0,0.0,0.0,0.0,0.0,0.0,0.0,0.0,-1.7548,-1.8533,-1.905,-1.9021,-1.9617,-1.9594,-1.9029,-1.9097,-1.9135,-1.9176,0.0,0.0,0.0,0.0,0.0,0.0,0.0,0.0,0.0,0.0,0.0,-1.7822,-1.6687,0.0,0.0,0.0,0.0,0.0,0.0,0.0,0.0,0.0,0.0,0.0,0.0,0.0,-1.568,-1.6199,-1.6936,-1.7599,-1.7853,-1.83,-1.8613,-1.8348,-1.8275,-1.8094,-1.7539,-1.7008,-1.6634,0.0,0.0,-1.6537,-1.7322,-1.772,-1.8203,-1.8988,-1.8927,-1.8879,0.0,0.0,0.0,0.0,0.0,-1.9685,-2.0932,-2.1096,-2.1145,-2.1222,-2.3651,-2.444,-2.3263,-2.57,-2.7012,-2.7073,-2.7073,-2.7073,-2.7073,-2.7073,-2.7073,-2.7073,-2.7056,-2.6833,-2.6439,-2.6062,-2.5686,-2.5309,-2.4967,-2.4812,-2.4812,-2.4812,-2.4812,-2.4812,-2.4812,-2.4812,-2.4812,0.0,0.0,0.0,0.0,0.0,0.0,0.0,0.0,0.0,0.0,0.0,0.0,0.0,0.0,0.0,0.0,0.0,0.0,0.0,0.0,0.0,0.0,0.0,0.0,0.0,0.0,0.0,0.0,0.0,-1.8025,-1.8519,0.0,0.0,0.0,0.0,0.0,0.0,0.0,0.0,0.0,0.0,0.0,-1.6954,0.0,0.0,0.0,0.0,0.0,0.0,0.0,0.0,0.0,0.0,-1.4306,-1.4619,0.0,0.0,-1.6513,-1.7032,-1.7768,-1.8396,-1.8456,-1.8577,-1.8613,-1.8348,-1.7974,-1.7479,-1.6742,-1.6175,-1.5692,0.0,0.0,0.0,-1.6803,-1.795,0.0,-1.9314,-2.0057,0.0,-1.9736,0.0,-2.0014,-1.9615,-1.9639,0.0,-2.0203,-2.076,-2.1606,-2.2843,-2.3333,-2.3884,-2.4564,-2.5256,-2.6067,-2.7073,-2.7073,-2.7073,-2.7073,-2.7073,-2.7073,-2.7073,-2.6765,-2.6422,-2.6062,-2.5686,-2.5309,-2.4949,-2.4864,-2.4812,-2.4812,-2.4812,-2.4812,-2.4812,-2.4812,-2.4812,-2.4812,0.0,0.0,0.0,0.0,0.0,0.0,0.0,0.0,0.0,0.0,0.0,0.0,0.0,0.0,0.0,0.0,0.0,0.0,0.0,0.0,0.0,0.0,0.0,0.0,0.0,0.0,0.0,0.0,0.0,0.0,0.0,0.0,0.0,0.0,0.0,0.0,0.0,0.0,0.0,0.0,0.0,0.0,0.0,0.0,0.0,0.0,0.0,0.0,0.0,0.0,0.0,-1.4109,-1.4615,-1.4998,-1.5354,-1.6006,0.0,-1.7334,-1.7865,-1.842,-1.8879,-1.9,-1.8855,-1.8553,-1.8046,-1.7527,-1.6875,-1.5958,-1.5439,-1.5028,-1.4606,-1.4992,-1.5584,0.0,0.0,0.0,-1.9193,-1.9905,-2.0347,0.0,-2.0315,0.0,-1.9929,-1.9989,-2.0062,-2.0062,-2.0376,-2.0968,-2.1892,-2.2185,-2.303,-2.4346,-2.4842,-2.5762,-2.7073,-2.7073,-2.7073,-2.7073,-2.7073,-2.7073,-2.7073,-2.685,-2.6542,-2.6165,-2.5788,-2.5412,-2.5052,-2.4881,-2.4812,-2.4812,-2.4812,-2.4812,-2.4812,-2.4812,-2.4812,-2.4812,0.0,0.0,0.0,0.0,0.0,0.0,0.0,0.0,0.0,0.0,0.0,0.0,0.0,0.0,0.0,0.0,0.0,0.0,0.0,0.0,0.0,0.0,0.0,0.0,0.0,0.0,0.0,0.0,0.0,0.0,0.0,0.0,0.0,0.0,0.0,0.0,0.0,0.0,0.0,0.0,0.0,0.0,0.0,0.0,0.0,0.0,0.0,0.0,0.0,0.0,-1.4038,-1.4434,-1.5219,-1.5753,-1.6211,-1.7056,-1.7624,-1.8106,-1.8686,-1.8988,-1.9181,-1.941,-1.8988,-1.8336,-1.7599,-1.6948,-1.6211,-1.5258,0.0,-1.4594,-1.434,-1.4558,-1.504,-1.5861,0.0,-1.7648,-1.8951,-1.9475,-1.9796,-2.0279,-2.0364,-2.0291,-2.0062,-2.0219,-2.0327,-2.0327,-2.0122,-1.9965,-1.9893,-2.0784,-2.1933,-2.3423,-2.4657,-2.5945,-2.7073,-2.7073,-2.7073,-2.7073,-2.7073,-2.7073,-2.7073,-2.7073,-2.6833,-2.6405,-2.608,-2.5703,-2.5275,-2.4949,-2.4812,-2.4812,-2.4812,-2.4812,-2.4812,-2.4812,-2.4812,-2.4812,0.0,0.0,0.0,0.0,0.0,0.0,0.0,0.0,0.0,0.0,0.0,0.0,0.0,0.0,0.0,0.0,0.0,0.0,0.0,0.0,0.0,0.0,0.0,0.0,0.0,0.0,0.0,0.0,0.0,0.0,0.0,0.0,0.0,0.0,0.0,0.0,0.0,0.0,0.0,0.0,0.0,0.0,0.0,0.0,0.0,0.0,0.0,0.0,0.0,0.0,-1.4183,-1.5055,-1.5624,-1.6326,-1.708,-1.8106,-1.8469,-1.871,-1.947,-1.9543,-1.941,-1.9524,-1.8577,-1.7599,-1.7237,-1.6235,0.0,0.0,-1.4558,-1.4352,-1.4304,-1.4702,-1.5378,-1.6392,-1.7225,-1.8131,-1.9241,-2.0014,-2.0496,0.0,-2.0868,-2.0907,-2.0929,-2.0702,-2.0605,-2.0605,-2.0557,-2.034,-1.9905,-1.9879,-2.0889,-2.3102,-2.5472,-2.6891,-2.7073,-2.7073,-2.7073,-2.7073,-2.7073,-2.7073,-2.7073,-2.7073,-2.6696,-2.6028,-2.5902,-2.5492,-2.4915,-2.4847,-2.4812,-2.4812,-2.4812,-2.4812,-2.4812,-2.4812,-2.4812,-2.4812,0.0,0.0,0.0,0.0,0.0,0.0,0.0,0.0,0.0,0.0,0.0,0.0,0.0,0.0,0.0,0.0,0.0,0.0,0.0,0.0,0.0,0.0,0.0,0.0,0.0,0.0,0.0,0.0,0.0,0.0,0.0,0.0,0.0,0.0,0.0,0.0,0.0,0.0,0.0,0.0,0.0,0.0,0.0,0.0,0.0,0.0,0.0,0.0,0.0,0.0,-1.4111,-1.5246,-1.6054,-1.6767,-1.7479,-1.8408,-1.8782,-1.9036,-1.97,-1.9676,-1.9536,-1.9536,-1.8469,-1.7334,-1.6791,0.0,0.0,0.0,-1.428,-1.4135,-1.4268,-1.463,-1.5161,-1.5946,-1.6634,-1.7527,-1.8867,-1.9507,-2.0038,-2.0605,-2.0965,-2.1074,-2.0941,-2.0871,-2.0941,-2.0941,-2.075,-2.0557,-2.0303,-2.056,-2.1162,-2.2027,-2.4008,-2.5317,-2.6067,-2.6067,-2.6388,-2.7073,-2.7073,-2.7073,-2.7073,-2.7073,-2.6765,-2.6217,-2.597,-2.5617,-2.5086,-2.4898,-2.4812,-2.4812,-2.4812,-2.4812,-2.4812,-2.4812,-2.4812,-2.4812,0.0,0.0,0.0,0.0,0.0,0.0,0.0,0.0,0.0,0.0,0.0,0.0,0.0,0.0,0.0,0.0,0.0,0.0,0.0,0.0,0.0,0.0,0.0,0.0,0.0,0.0,0.0,0.0,0.0,0.0,0.0,0.0,0.0,0.0,0.0,0.0,0.0,0.0,0.0,0.0,0.0,0.0,0.0,0.0,0.0,0.0,0.0,0.0,0.0,0.0,-1.3906,-1.4944,-1.5958,-1.6827,-1.7624,-1.8312,-1.8819,-1.9265,-1.9748,-1.9724,-1.9531,-1.941,-1.8336,-1.7129,-1.6441,-1.5378,0.0,-1.4328,-1.4087,-1.399,-1.4244,-1.4473,-1.4823,0.0,-1.591,-1.6754,-1.83,-1.8843,-1.9434,0.0,-2.0856,0.0,-2.069,-2.0929,-2.105,-2.105,-2.0786,-2.0641,-2.0593,-2.1404,-2.1592,-2.1189,-2.2418,-2.3636,-2.4641,-2.4949,-2.5639,-2.6692,-2.6952,-2.7073,-2.7073,-2.7073,-2.6867,-2.6473,-2.6097,-2.572,-2.54,-2.4967,-2.4812,-2.4812,-2.4812,-2.4812,-2.4812,-2.4812,-2.4812,-2.4812,0.0,0.0,0.0,0.0,0.0,0.0,0.0,0.0,0.0,0.0,0.0,0.0,0.0,0.0,0.0,0.0,0.0,0.0,0.0,0.0,0.0,0.0,0.0,0.0,0.0,0.0,0.0,0.0,0.0,0.0,0.0,0.0,0.0,0.0,0.0,0.0,0.0,0.0,0.0,0.0,0.0,0.0,0.0,0.0,0.0,0.0,0.0,0.0,0.0,0.0,0.0,-1.3809,-1.4642,-1.6091,-1.7539,-1.7853,0.0,0.0,-1.9808,-1.9869,-1.9736,-1.9229,-1.7937,-1.6694,-1.638,0.0,-1.4039,-1.4256,-1.4087,-1.399,-1.4244,-1.4316,-1.4594,0.0,0.0,-1.6404,-1.7756,-1.8601,-1.9301,-1.9881,0.0,0.0,-2.0665,-2.069,-2.0771,-2.0771,-2.0678,-2.0569,-2.0327,-2.1095,-2.1523,-2.147,-2.2531,-2.3139,-2.3263,-2.4502,-2.5133,-2.5317,-2.651,-2.7073,-2.7073,-2.7073,-2.6867,-2.6473,-2.6097,-2.572,-2.54,-2.4967,-2.4812,-2.4812,-2.4812,-2.4812,-2.4812,-2.4812,-2.4812,-2.4812,0.0,0.0,0.0,0.0,0.0,0.0,0.0,0.0,0.0,0.0,0.0,0.0,0.0,0.0,0.0,0.0,0.0,0.0,0.0,0.0,0.0,0.0,0.0,0.0,0.0,0.0,0.0,0.0,0.0,0.0,0.0,0.0,0.0,0.0,0.0,0.0,0.0,0.0,0.0,0.0,0.0,0.0,0.0,0.0,0.0,0.0,0.0,0.0,0.0,0.0,0.0,0.0,-1.3266,-1.4328,0.0,0.0,-1.7696,-1.8432,-1.9193,-1.9519,-1.9507,-1.8976,-1.7756,-1.6585,-1.6151,0.0,-1.3978,-1.4244,-1.4087,-1.399,-1.4244,-1.416,-1.4171,0.0,0.0,0.0,-1.6291,-1.6863,-1.7721,-1.9241,-1.9869,-2.0327,-2.0641,-2.088,-2.0844,-2.046,-2.0581,-2.0557,-2.0291,-2.0451,-2.0406,-2.0066,-2.045,-2.1447,-2.3076,-2.3636,-2.4702,-2.6327,-2.683,-2.7073,-2.7073,-2.7073,-2.6987,-2.6816,-2.6439,-2.6062,-2.5686,-2.5309,-2.5018,-2.4812,-2.4812,-2.4812,-2.4812,-2.4812,-2.4812,-2.4812,0.0,0.0,0.0,0.0,0.0,0.0,0.0,0.0,0.0,0.0,0.0,0.0,0.0,0.0,0.0,0.0,0.0,0.0,0.0,0.0,0.0,0.0,0.0,0.0,0.0,0.0,0.0,0.0,0.0,0.0,0.0,0.0,0.0,0.0,0.0,0.0,0.0,0.0,0.0,0.0,0.0,0.0,0.0,0.0,0.0,0.0,0.0,0.0,0.0,0.0,0.0,0.0,0.0,0.0,0.0,0.0,-1.6706,-1.7551,-1.8384,-1.8915,-1.9084,-1.8481,-1.7443,-1.6441,0.0,0.0,-1.3978,-1.4244,-1.4087,-1.3943,-1.416,-1.4027,-1.3883,0.0,0.0,-1.4029,-1.5223,-1.5697,-1.6527,-1.8292,-1.8875,-1.9376,-1.9983,-2.0412,-2.0507,-2.0069,-2.0209,-2.0197,-2.0155,-1.9819,-1.9561,-1.9326,-1.9157,-2.0017,-2.1888,-2.2702,-2.407,-2.5945,-2.6692,-2.7073,-2.7073,-2.7073,-2.7073,-2.7056,-2.6662,-2.6285,-2.585,-2.5532,-2.5155,-2.483,-2.4932,-2.4915,-2.483,-2.4932,-2.4915,-2.4812,0.0,0.0,0.0,0.0,0.0,0.0,0.0,0.0,0.0,0.0,0.0,0.0,0.0,0.0,0.0,0.0,0.0,0.0,0.0,0.0,0.0,0.0,0.0,0.0,0.0,0.0,0.0,0.0,0.0,0.0,0.0,0.0,0.0,0.0,0.0,0.0,0.0,0.0,0.0,0.0,0.0,0.0,0.0,0.0,0.0,0.0,0.0,0.0,0.0,0.0,0.0,0.0,0.0,0.0,0.0,0.0,-1.5861,-1.7153,-1.743,-1.8082,-1.8505,-1.7696,-1.6887,-1.6151,0.0,0.0,-1.3978,-1.4244,-1.4087,-1.3896,-1.3884,-1.3883,-1.3786,0.0,0.0,0.0,-1.4992,-1.5586,-1.6184,-1.6954,-1.7265,-1.7725,-1.8419,-1.9175,-1.9611,-1.9529,-1.9312,-1.9381,-1.9665,-1.924,-1.9274,-1.9869,-1.935,-1.9136,-1.9136,-2.1762,-2.3139,-2.3201,-2.5823,-2.7073,-2.7073,-2.7073,-2.7073,-2.7056,-2.6662,-2.6285,-2.585,-2.5532,-2.5155,-2.4864,-2.5223,-2.5138,-2.4864,-2.5223,-2.5138,-2.4812,0.0,0.0,0.0,0.0,0.0,0.0,0.0,0.0,0.0,0.0,0.0,0.0,0.0,0.0,0.0,0.0,0.0,0.0,0.0,0.0,0.0,0.0,0.0,0.0,0.0,0.0,0.0,0.0,0.0,0.0,0.0,0.0,0.0,0.0,0.0,0.0,0.0,0.0,0.0,0.0,0.0,0.0,0.0,0.0,0.0,0.0,0.0,0.0,0.0,0.0,0.0,0.0,0.0,0.0,0.0,0.0,0.0,0.0,-1.6465,-1.6996,-1.7225,-1.6791,-1.6211,-1.5656,-1.5306,-1.4545,-1.3978,-1.4244,-1.4087,-1.3896,-1.3884,-1.3738,-1.3591,0.0,0.0,0.0,0.0,0.0,-1.5716,-1.68,-1.8109,-1.8992,-1.9232,-1.9473,-1.9542,-1.9301,-1.9061,-1.906,-1.9369,-1.8734,-1.8729,-1.9591,-1.9253,-1.9507,-2.0449,-2.1335,-2.2201,-2.3139,-2.4887,-2.5762,-2.5762,-2.6692,-2.6936,-2.6662,-2.6542,-2.6131,-2.5532,-2.5429,-2.5155,-2.483,-2.4949,-2.4932,-2.483,-2.4949,-2.4915,-2.4812,0.0,0.0,0.0,0.0,0.0,0.0,0.0,0.0,0.0,0.0,0.0,0.0,0.0,0.0,0.0,0.0,0.0,0.0,0.0,0.0,0.0,0.0,0.0,0.0,0.0,0.0,0.0,0.0,0.0,0.0,0.0,0.0,0.0,0.0,0.0,0.0,0.0,0.0,0.0,0.0,0.0,0.0,-1.3434,0.0,0.0,0.0,0.0,0.0,0.0,0.0,0.0,0.0,0.0,0.0,0.0,0.0,0.0,0.0,0.0,-1.6042,-1.6332,-1.6066,-1.5668,0.0,0.0,-1.4244,-1.3813,-1.3874,-1.3732,-1.3614,-1.3584,-1.3448,-1.3348,-1.3248,-1.3073,0.0,-1.3693,-1.4285,-1.5131,-1.6418,-1.7812,-1.8676,-1.8766,-1.9035,-1.9066,-1.891,-1.8586,-1.8609,-1.9083,-1.8303,-1.8258,-1.9208,-1.8877,-1.906,-1.9941,-2.0436,-2.1119,-2.1937,-2.3698,-2.4517,-2.4579,-2.6067,-2.6574,-2.6337,-2.6653,-2.6285,0.0,-2.5583,-2.5275,-2.483,-2.4984,-2.4932,-2.483,-2.4984,-2.4932,-2.4812,0.0,0.0,0.0,0.0,0.0,0.0,0.0,0.0,0.0,0.0,0.0,0.0,0.0,0.0,0.0,0.0,0.0,0.0,0.0,0.0,0.0,0.0,0.0,0.0,0.0,0.0,0.0,0.0,0.0,0.0,0.0,0.0,0.0,0.0,0.0,0.0,0.0,0.0,0.0,0.0,0.0,0.0,0.0,0.0,0.0,0.0,0.0,0.0,0.0,0.0,0.0,0.0,0.0,0.0,0.0,0.0,0.0,0.0,0.0,0.0,0.0,0.0,0.0,0.0,0.0,0.0,0.0,-1.3216,-1.3169,-1.3167,-1.3102,-1.3098,-1.3061,-1.2862,-1.2862,-1.3024,-1.3437,-1.3976,-1.474,-1.5942,-1.6646,-1.7163,-1.7378,-1.8013,-1.8412,-1.8412,-1.797,-1.8031,-1.8846,-1.7973,-1.7816,-1.8697,-1.8231,-1.7969,-1.7969,-1.9228,-1.9852,-1.9916,-2.2313,-2.345,-2.3512,-2.5317,-2.605,-2.6062,-2.6779,-2.6593,-2.5799,-2.5833,-2.5406,-2.4864,-2.5189,-2.5121,-2.4864,-2.5206,-2.5121,-2.4812,0.0,0.0,0.0,0.0,0.0,0.0,0.0,0.0,0.0,0.0,0.0,0.0,0.0,0.0,0.0,0.0,0.0,0.0,0.0,0.0,0.0,0.0,0.0,0.0,0.0,0.0,0.0,0.0,0.0,0.0,0.0,0.0,0.0,0.0,0.0,0.0,0.0,0.0,0.0,0.0,0.0,0.0,0.0,0.0,0.0,0.0,-1.2952,-1.3073,0.0,0.0,0.0,0.0,0.0,0.0,0.0,0.0,-1.2822,0.0,0.0,0.0,0.0,0.0,0.0,0.0,0.0,0.0,0.0,0.0,0.0,-1.2962,-1.3069,-1.3098,-1.3171,-1.3305,-1.3359,-1.3405,-1.3696,-1.4772,-1.5899,-1.6657,-1.74,-1.7787,-1.7647,-1.7959,-1.8175,-1.8175,-1.7733,-1.7649,-1.8009,-1.7456,-1.7337,-1.7719,-1.7424,-1.7453,-1.7969,-1.8279,-1.8472,-1.8472,-2.0943,-2.2076,-2.2139,-2.4887,-2.577,-2.5317,-2.6253,-2.6045,-2.5104,-2.5395,-2.5241,-2.483,-2.4915,-2.4898,-2.483,-2.4915,-2.4898,-2.4812,0.0,0.0,0.0,0.0,0.0,0.0,0.0,0.0,0.0,0.0,0.0,0.0,0.0,0.0,0.0,0.0,0.0,0.0,0.0,0.0,0.0,0.0,0.0,0.0,0.0,0.0,0.0,0.0,0.0,0.0,0.0,0.0,0.0,0.0,0.0,0.0,0.0,0.0,0.0,0.0,-1.3145,0.0,0.0,0.0,0.0,0.0,-1.288,-1.3012,0.0,-1.3423,-1.3592,-1.3652,0.0,0.0,0.0,0.0,-1.2604,0.0,0.0,0.0,0.0,0.0,0.0,0.0,0.0,0.0,0.0,0.0,0.0,-1.2525,-1.2723,-1.2789,-1.2905,-1.3283,-1.3405,-1.3717,-1.433,-1.5235,-1.6129,-1.7066,-1.7529,-1.7841,-1.8024,-1.8175,-1.8207,-1.8099,-1.7744,-1.7593,-1.7712,-1.726,-1.712,-1.7367,-1.713,-1.7195,-1.7518,-1.7518,-1.7776,-1.8226,-2.0068,-2.1145,-2.165,-2.4085,-2.5044,-2.4827,-2.5694,-2.5652,-2.5086,-2.5292,-2.5155,-2.4812,-2.4812,-2.4932,-2.5052,-2.4881,-2.4932,-2.5052,0.0,0.0,0.0,0.0,0.0,0.0,0.0,0.0,0.0,0.0,0.0,0.0,0.0,0.0,0.0,0.0,0.0,0.0,0.0,0.0,0.0,0.0,0.0,0.0,0.0,0.0,0.0,0.0,0.0,0.0,0.0,0.0,0.0,0.0,0.0,0.0,0.0,0.0,0.0,0.0,-1.3051,0.0,0.0,0.0,0.0,0.0,0.0,0.0,0.0,-1.3435,-1.3642,-1.3799,-1.3498,0.0,0.0,0.0,0.0,0.0,0.0,0.0,0.0,0.0,0.0,0.0,0.0,0.0,0.0,0.0,0.0,0.0,0.0,-1.2501,0.0,-1.3136,-1.348,-1.4105,-1.53,-1.5634,-1.6161,-1.7249,-1.7443,-1.7712,-1.8272,-1.8256,-1.825,-1.8046,-1.7776,-1.7615,-1.7615,-1.7227,-1.7098,-1.7313,-1.7087,-1.6947,-1.6947,-1.699,-1.7453,-1.8279,-1.9495,-2.0526,-2.1411,-2.3186,-2.4085,-2.4303,-2.5098,-2.5336,-2.5179,-2.5343,-2.5155,-2.483,-2.4881,-2.5086,-2.5343,-2.5086,-2.5155,-2.5309,0.0,0.0,0.0,0.0,0.0,0.0,0.0,0.0,0.0,0.0,0.0,0.0,0.0,0.0,0.0,0.0,0.0,0.0,0.0,0.0,0.0,0.0,0.0,0.0,0.0,0.0,0.0,0.0,0.0,0.0,0.0,0.0,0.0,0.0,0.0,0.0,0.0,0.0,0.0,0.0,0.0,0.0,0.0,0.0,0.0,0.0,0.0,0.0,0.0,-1.3507,-1.3551,-1.3496,-1.3069,0.0,0.0,0.0,0.0,0.0,-1.1937,-1.2136,-1.2323,-1.2484,0.0,0.0,0.0,0.0,0.0,0.0,0.0,0.0,0.0,-1.2867,-1.3157,-1.3631,-1.4245,-1.5085,-1.628,-1.6536,-1.6721,-1.7313,-1.7733,-1.7949,-1.7841,-1.783,-1.7809,-1.7776,-1.7367,-1.7109,-1.7109,-1.7044,-1.7023,-1.7066,-1.684,-1.6774,-1.6774,-1.6904,-1.7066,-1.726,-1.9176,-2.0208,-2.0386,-2.2628,-2.3565,-2.3378,-2.4547,-2.4721,-2.4188,-2.5071,-2.5155,-2.4847,-2.5172,-2.5383,-2.5395,-2.5669,-2.56,-2.5309,0.0,0.0,0.0,0.0,0.0,0.0,0.0,0.0,0.0,0.0,0.0,0.0,0.0,0.0,0.0,0.0,0.0,0.0,0.0,0.0,0.0,0.0,0.0,0.0,0.0,0.0,0.0,0.0,0.0,0.0,0.0,0.0,0.0,0.0,0.0,0.0,0.0,0.0,0.0,0.0,0.0,0.0,0.0,0.0,0.0,0.0,0.0,0.0,0.0,0.0,-1.3109,-1.3066,-1.2707,0.0,0.0,0.0,0.0,0.0,-1.1652,-1.1858,-1.2118,0.0,0.0,-1.2382,-1.2382,0.0,0.0,0.0,0.0,0.0,0.0,-1.306,-1.3588,-1.4394,-1.5192,-1.5892,-1.6634,-1.6764,-1.7023,-1.7507,-1.7647,-1.7766,-1.7906,-1.7798,-1.7669,-1.754,-1.7335,-1.7152,-1.7012,-1.7001,-1.7001,-1.7001,-1.6786,-1.6731,-1.6731,-1.6646,-1.6943,-1.7637,-1.8732,-1.9484,-1.9915,-2.1693,-2.2338,-2.2127,-2.3445,-2.3963,-2.3937,-2.4384,-2.4806,-2.5138,-2.5309,-2.5617,-2.5994,-2.6165,-2.5994,-2.5652,0.0,0.0,0.0,0.0,0.0,0.0,0.0,0.0,0.0,0.0,0.0,0.0,0.0,0.0,0.0,0.0,0.0,0.0,0.0,0.0,0.0,0.0,0.0,0.0,0.0,0.0,0.0,0.0,0.0,0.0,0.0,0.0,0.0,0.0,0.0,0.0,0.0,0.0,0.0,0.0,0.0,0.0,0.0,0.0,0.0,0.0,0.0,0.0,0.0,0.0,0.0,0.0,0.0,0.0,0.0,0.0,-1.1695,-1.1663,-1.1543,-1.1779,-1.2105,0.0,0.0,-1.2522,-1.2641,0.0,0.0,0.0,0.0,0.0,0.0,-1.3448,-1.4148,-1.5113,-1.5978,-1.656,-1.6861,-1.7077,-1.7378,-1.768,-1.7615,-1.7669,-1.7981,-1.7787,-1.7561,-1.7389,-1.727,-1.713,-1.6937,-1.6926,-1.6894,-1.684,-1.6667,-1.6549,-1.6558,-1.6312,-1.6717,-1.7765,-1.8139,-1.8632,-1.9324,-2.046,-2.0964,-2.1057,-2.2083,-2.2995,-2.3697,-2.3947,-2.4597,-2.5434,-2.5463,-2.5908,-2.6473,-2.6388,-2.6234,-2.6045,0.0,0.0,0.0,0.0,0.0,0.0,0.0,0.0,0.0,0.0,0.0,0.0,0.0,0.0,0.0,0.0,0.0,0.0,0.0,0.0,0.0,0.0,0.0,0.0,0.0,0.0,0.0,0.0,0.0,0.0,0.0,0.0,0.0,0.0,0.0,0.0,0.0,0.0,0.0,0.0,0.0,0.0,0.0,0.0,0.0,0.0,0.0,0.0,0.0,0.0,0.0,0.0,0.0,0.0,0.0,0.0,-1.1716,-1.177,-1.1986,-1.2073,-1.2148,-1.2328,-1.2565,0.0,-1.3297,-1.3405,0.0,-1.3954,0.0,0.0,0.0,-1.4309,-1.4955,-1.5483,-1.6355,-1.7044,-1.7292,-1.7723,-1.7938,-1.7744,-1.7906,-1.797,-1.7766,-1.754,-1.74,-1.7378,-1.7033,-1.6774,-1.6689,-1.6689,-1.6592,-1.6377,-1.6344,-1.6226,-1.6061,-1.6039,-1.6158,-1.6469,-1.7387,-1.7869,-1.7957,-1.8772,-1.9589,-2.0396,-2.07,-2.1717,-2.3151,-2.404,-2.4832,-2.5395,-2.5754,-2.6131,-2.6439,-2.6097,-2.6182,-2.6405,0.0,0.0,0.0,0.0,0.0,0.0,0.0,0.0,0.0,0.0,0.0,0.0,0.0,0.0,0.0,0.0,0.0,0.0,0.0,0.0,0.0,0.0,0.0,0.0,0.0,0.0,0.0,0.0,0.0,0.0,0.0,0.0,0.0,0.0,0.0,0.0,0.0,0.0,0.0,0.0,0.0,0.0,0.0,0.0,0.0,0.0,0.0,0.0,0.0,0.0,-1.2181,0.0,0.0,0.0,0.0,0.0,0.0,-1.1488,-1.1768,-1.1986,-1.2116,-1.2213,-1.2526,0.0,0.0,-1.3588,-1.3739,-1.3922,-1.4245,0.0,0.0,-1.4945,-1.544,-1.5763,-1.6614,-1.727,-1.7367,-1.7658,-1.783,-1.7733,-1.768,-1.7615,-1.7518,-1.7292,-1.7087,-1.6947,-1.6828,-1.6603,-1.6452,-1.6441,-1.6409,-1.6312,-1.6161,-1.6104,-1.6007,-1.5806,-1.5774,-1.5871,-1.653,-1.677,-1.6747,-1.8325,-1.9125,-1.92,-2.0683,-2.1782,-2.2513,-2.3262,-2.4081,-2.4973,-2.5929,-2.6508,-2.6833,-2.6696,-2.673,-2.6833,0.0,0.0,0.0,0.0,0.0,0.0,0.0,0.0,0.0,0.0,0.0,0.0,0.0,0.0,0.0,0.0,0.0,0.0,0.0,0.0,0.0,0.0,0.0,0.0,0.0,0.0,0.0,0.0,0.0,0.0,0.0,0.0,0.0,0.0,0.0,0.0,0.0,0.0,0.0,0.0,0.0,-1.2705,0.0,0.0,0.0,0.0,0.0,0.0,0.0,0.0,-1.2012,-1.1779,0.0,0.0,0.0,0.0,0.0,-1.1455,-1.1661,-1.1921,-1.2094,0.0,0.0,0.0,-1.3577,-1.3879,-1.4126,-1.4428,-1.4762,-1.4999,-1.4999,0.0,-1.5677,-1.5974,-1.6817,-1.7346,-1.727,-1.7529,-1.7658,-1.7507,-1.7421,-1.7313,-1.7163,-1.7001,-1.6797,-1.6571,-1.6484,-1.6428,-1.6204,-1.6204,-1.6161,-1.6086,-1.6061,-1.5974,-1.5899,-1.5677,-1.5601,-1.5601,-1.5935,-1.6,-1.5899,-1.7684,-1.8461,-1.8519,-2.0319,-2.1581,-2.24,-2.2963,-2.3902,-2.5026,-2.6058,-2.6662,-2.6884,-2.6884,-2.697,-2.7073,0.0,0.0,0.0,0.0,0.0,0.0,0.0,0.0,0.0,0.0,0.0,0.0,0.0,0.0,0.0,0.0,0.0,0.0,0.0,0.0,0.0,0.0,0.0,0.0,0.0,0.0,0.0,0.0,0.0,0.0,0.0,0.0,0.0,0.0,0.0,0.0,0.0,0.0,0.0,0.0,-1.0287,-1.1038,0.0,0.0,0.0,0.0,0.0,0.0,0.0,0.0,-1.1895,-1.1348,0.0,0.0,0.0,0.0,-1.1704,-1.1704,-1.1704,-1.1921,-1.2094,0.0,0.0,0.0,-1.4029,-1.4374,-1.4805,-1.5812,-1.558,-1.5199,-1.5199,-1.5451,-1.5677,-1.5974,-1.6817,-1.7292,-1.7033,-1.741,-1.754,-1.7055,-1.7217,-1.7184,-1.6774,-1.672,-1.656,-1.6334,-1.6086,-1.6007,-1.6007,-1.5996,-1.5888,-1.5601,-1.5877,-1.5888,-1.5591,-1.5591,-1.5601,-1.5591,-1.5601,-1.5601,-1.5661,-1.6585,-1.7513,-1.8448,-1.9403,-2.1017,-2.3038,-2.3445,-2.449,-2.5919,-2.6336,-2.6491,-2.6491,-2.6491,-2.6747,-2.7073,0.0,0.0,0.0,0.0,0.0,0.0,0.0,0.0,0.0,0.0,0.0,0.0,0.0,0.0,0.0,0.0,0.0,0.0,0.0,0.0,0.0,0.0,0.0,0.0,0.0,0.0,0.0,0.0,0.0,0.0,0.0,0.0,0.0,0.0,0.0,0.0,0.0,0.0,0.0,0.0,-1.0838,-1.1333,-1.1804,0.0,0.0,0.0,0.0,0.0,0.0,0.0,0.0,0.0,0.0,0.0,0.0,-1.1704,-1.1704,-1.1704,-1.1704,-1.1921,0.0,-1.2264,0.0,0.0,0.0,-1.3809,0.0,0.0,-1.5709,-1.5548,-1.5709,-1.5935,-1.6129,-1.6194,-1.6721,-1.7087,-1.7012,-1.713,-1.7109,-1.6797,-1.6829,-1.6754,-1.6452,-1.642,-1.6312,-1.6136,-1.5838,-1.5634,-1.5461,-1.5289,-1.5171,-1.5095,-1.5332,-1.5343,-1.5095,-1.5268,-1.5646,-1.6333,-1.5635,-1.544,-1.5661,-1.7291,-1.8156,-1.8506,-2.0544,-2.1759,-2.2472,-2.3731,-2.4894,-2.5919,-2.6336,-2.6662,-2.6902,-2.6902,-2.697,-2.7073,0.0,0.0,0.0,0.0,0.0,0.0,0.0,0.0,0.0,0.0,0.0,0.0,0.0,0.0,0.0,0.0,0.0,0.0,0.0,0.0,0.0,0.0,0.0,0.0,0.0,0.0,0.0,0.0,0.0,0.0,0.0,0.0,0.0,0.0,0.0,0.0,0.0,0.0,0.0,-0.8751,-0.9397,-1.0144,-1.0906,0.0,0.0,0.0,0.0,0.0,0.0,0.0,0.0,0.0,0.0,0.0,0.0,-1.1564,-1.1488,-1.1456,-1.165,-1.1801,0.0,-1.2447,-1.3082,-1.3583,-1.3553,0.0,0.0,0.0,-1.5892,-1.5698,-1.6032,-1.6054,-1.6086,-1.628,-1.6624,-1.6872,-1.6872,-1.6872,-1.6786,-1.6549,-1.6527,-1.6431,-1.6194,-1.6172,-1.6032,-1.5698,-1.5537,-1.5354,-1.5117,-1.4966,-1.488,-1.488,-1.5031,-1.5031,-1.4891,-1.5031,-1.5382,-1.5898,-1.5434,-1.5442,-1.5903,-1.7591,-1.8389,-1.8564,-2.1288,-2.257,-2.2925,-2.43,-2.5212,-2.5754,-2.6114,-2.6508,-2.6833,-2.6833,-2.6936,-2.7073,0.0,0.0,0.0,0.0,0.0,0.0,0.0,0.0,0.0,0.0,0.0,0.0,0.0,0.0,0.0,0.0,0.0,0.0,0.0,0.0,0.0,0.0,0.0,0.0,0.0,0.0,0.0,0.0,0.0,0.0,0.0,0.0,0.0,0.0,0.0,0.0,0.0,0.0,-0.69,-0.6415,-0.6872,-0.8093,-0.9524,-0.865,0.0,0.0,0.0,0.0,0.0,0.0,0.0,0.0,-0.9898,-1.0569,-1.1337,-1.1316,-1.1155,-1.1122,-1.1575,-1.1704,-1.1876,-1.2656,-1.326,0.0,-1.4593,-1.4232,-1.4298,-1.6223,0.0,-1.5795,-1.6237,-1.5957,-1.5806,-1.6247,-1.6495,-1.6635,-1.6635,-1.6635,-1.6549,-1.6312,-1.6258,-1.6151,-1.5974,-1.592,-1.5677,-1.5188,-1.5135,-1.5027,-1.4859,-1.4837,-1.4815,-1.4815,-1.4837,-1.4848,-1.4815,-1.4837,-1.4961,-1.513,-1.5189,-1.5646,-1.647,-1.779,-1.8506,-1.8913,-2.1687,-2.3231,-2.3881,-2.4811,-2.5247,-2.5355,-2.5673,-2.609,-2.6439,-2.6473,-2.6713,-2.7021,0.0,0.0,0.0,0.0,0.0,0.0,0.0,0.0,0.0,0.0,0.0,0.0,0.0,0.0,0.0,0.0,0.0,0.0,0.0,0.0,0.0,0.0,0.0,0.0,0.0,0.0,0.0,0.0,0.0,0.0,0.0,0.0,0.0,0.0,0.0,0.0,0.0,-0.675,-0.6194,-0.625,-0.7073,-0.774,-0.8272,-0.8814,-0.9233,0.0,0.0,0.0,0.0,0.0,0.0,0.0,-0.9898,-1.068,-1.1585,-1.1359,-1.1273,-1.1295,-1.1618,-1.1704,0.0,-1.2802,-1.3097,-1.3257,-1.3577,-1.2922,-1.2906,-1.5314,-1.6011,-1.6194,-1.6291,-1.6237,-1.6194,-1.6301,-1.6355,-1.6387,-1.6387,-1.6387,-1.6301,-1.6115,-1.586,-1.5666,-1.5429,-1.5225,-1.5074,-1.4966,-1.4794,-1.4609,-1.4611,-1.4439,-1.4342,-1.4342,-1.4514,-1.4525,-1.4342,-1.4525,-1.5321,-1.6698,-1.5975,-1.6581,-1.8255,-1.8365,-1.9435,-2.136,-2.1987,-2.2626,-2.3207,-2.3788,-2.4277,-2.4711,-2.5078,-2.5511,-2.6097,-2.6388,-2.6542,-2.6662,0.0,0.0,0.0,0.0,0.0,0.0,0.0,0.0,0.0,0.0,0.0,0.0,0.0,0.0,0.0,0.0,0.0,0.0,0.0,0.0,0.0,0.0,0.0,0.0,0.0,0.0,0.0,0.0,0.0,0.0,0.0,0.0,0.0,0.0,0.0,0.0,0.0,-0.6365,-0.6083,-0.6131,-0.6691,-0.7285,-0.7787,-0.7808,-0.8059,0.0,0.0,0.0,0.0,0.0,0.0,0.0,0.0,0.0,-1.0215,-1.0546,-1.0565,-1.0555,0.0,0.0,0.0,-1.3157,0.0,-1.3684,-1.4006,-1.3635,-1.3596,-1.4956,-1.5157,-1.5258,-1.5996,-1.6043,-1.6011,-1.6118,-1.614,-1.614,-1.614,-1.6043,-1.5881,-1.5645,-1.5397,-1.5214,-1.5085,-1.4955,-1.4837,-1.4729,-1.46,-1.4482,-1.4374,-1.4256,-1.4191,-1.4191,-1.4309,-1.4309,-1.4191,-1.4309,-1.5018,-1.636,-1.5993,-1.6857,-1.8809,-1.8805,-2.0002,-2.2116,-2.2116,-2.2456,-2.3022,-2.3213,-2.3504,-2.3821,-2.3942,-2.4351,-2.4879,-2.5352,-2.5772,-2.6151,0.0,0.0,0.0,0.0,0.0,0.0,0.0,0.0,0.0,0.0,0.0,0.0,0.0,0.0,0.0,0.0,0.0,0.0,0.0,0.0,0.0,0.0,0.0,0.0,0.0,0.0,0.0,0.0,0.0,0.0,0.0,0.0,0.0,0.0,0.0,0.0,0.0,-0.6273,-0.6149,-0.6062,-0.6143,-0.6709,-0.7385,0.0,0.0,0.0,0.0,0.0,0.0,-0.5691,0.0,0.0,0.0,0.0,-0.8675,-0.9419,-0.9533,0.0,0.0,0.0,-1.2167,-1.334,-1.389,0.0,-1.4386,-1.4389,-1.4374,-1.453,-1.4227,-1.4331,-1.5604,-1.5698,-1.5666,-1.5909,-1.5942,-1.5931,-1.5899,-1.5655,-1.5451,-1.5156,-1.4977,-1.4826,-1.4826,-1.4783,-1.4686,-1.4437,-1.4471,-1.4396,-1.4202,-1.4191,-1.4191,-1.4191,-1.4191,-1.4191,-1.4191,-1.4353,-1.488,-1.5725,-1.6169,-1.7287,-1.9002,-1.9264,-2.0272,-2.1779,-2.19,-2.2184,-2.2589,-2.2652,-2.274,-2.2853,-2.2853,-2.3197,-2.3738,-2.4302,-2.4978,-2.5737,0.0,0.0,0.0,0.0,0.0,0.0,0.0,0.0,0.0,0.0,0.0,0.0,0.0,0.0,0.0,0.0,0.0,0.0,0.0,0.0,0.0,0.0,0.0,0.0,0.0,0.0,0.0,0.0,0.0,0.0,0.0,0.0,0.0,0.0,0.0,0.0,0.0,0.0,-0.5942,-0.592,-0.5839,-0.5906,0.0,0.0,0.0,0.0,0.0,0.0,0.0,0.0,-0.6308,0.0,0.0,0.0,-0.8544,-0.8632,-0.8543,0.0,0.0,0.0,-1.271,0.0,-1.3394,-1.3614,0.0,0.0,-1.2318,-1.3117,-1.4164,-1.5067,-1.5285,-1.5483,-1.5612,-1.5645,-1.5645,-1.558,-1.5317,-1.5263,-1.5203,-1.4966,-1.4729,-1.4523,-1.4523,-1.4406,-1.4277,-1.4245,-1.4245,-1.4223,-1.4202,-1.4191,-1.4191,-1.4191,-1.4191,-1.4191,-1.4191,-1.4934,-1.5725,-1.6577,-1.8096,-1.9137,-1.9667,-1.9711,-2.0008,-2.0509,-2.1082,-2.1213,-2.1033,-2.1314,-2.1774,-2.223,-2.223,-2.2868,-2.3907,-2.4334,-2.506,-2.5946,0.0,0.0,0.0,0.0,0.0,0.0,0.0,0.0,0.0,0.0,0.0,0.0,0.0,0.0,0.0,0.0,0.0,0.0,0.0,0.0,0.0,0.0,0.0,0.0,0.0,0.0,0.0,0.0,0.0,0.0,0.0,-0.7802,-0.719,0.0,0.0,0.0,0.0,0.0,0.0,0.0,0.0,0.0,0.0,0.0,0.0,0.0,0.0,0.0,0.0,0.0,-0.5591,-0.603,-0.6555,0.0,0.0,0.0,-0.7432,0.0,-0.9812,-1.0774,-1.1528,0.0,-1.2996,-1.3167,-1.2965,-1.279,-1.2758,-1.2974,-1.3588,-1.4337,-1.4941,-1.5128,-1.5203,-1.5203,-1.5203,-1.516,-1.5063,-1.4877,-1.4748,-1.4697,-1.4151,-1.3959,-1.4287,-1.3919,-1.3867,-1.4191,-1.4191,-1.4191,-1.4191,-1.4191,-1.4191,-1.4191,-1.4191,-1.4407,-1.4934,-1.5298,-1.614,-1.7463,-1.8684,-1.9412,-1.9544,-1.9735,-1.993,-2.0212,-2.0735,-2.0852,-2.075,-2.1072,-2.1546,-2.2116,-2.2116,-2.2626,-2.3488,-2.3973,-2.4687,-2.5494,0.0,0.0,0.0,0.0,0.0,0.0,0.0,0.0,0.0,0.0,0.0,0.0,0.0,0.0,0.0,0.0,0.0,0.0,0.0,0.0,0.0,0.0,0.0,0.0,0.0,0.0,0.0,0.0,0.0,0.0,-0.7874,-0.7909,-0.7539,0.0,-0.7539,0.0,0.0,0.0,0.0,0.0,0.0,0.0,0.0,0.0,0.0,0.0,0.0,0.0,0.0,0.0,0.0,0.0,-0.5847,-0.5719,0.0,0.0,0.0,0.0,0.0,0.0,-1.0283,-1.1765,-1.2294,-1.2586,0.0,-1.2994,-1.2863,-1.2725,-1.2703,-1.3028,-1.3964,-1.4326,-1.4427,-1.4427,-1.4427,-1.4406,-1.4343,-1.4197,-1.4072,-1.3954,-1.3416,-1.3261,-1.3704,-1.3315,-1.3315,-1.3921,-1.3975,-1.4029,-1.4191,-1.4191,-1.4191,-1.4191,-1.4191,-1.4611,-1.5512,-1.5927,-1.6882,-1.8356,-1.9011,-1.9272,-1.9286,-1.9661,-1.9886,-2.0135,-2.0545,-2.072,-2.075,-2.1242,-2.1717,-2.2116,-2.2286,-2.2683,-2.3287,-2.3753,-2.448,-2.5286,0.0,0.0,0.0,0.0,0.0,0.0,0.0,0.0,0.0,0.0,0.0,0.0,0.0,0.0,0.0,0.0,0.0,0.0,0.0,0.0,0.0,0.0,0.0,0.0,0.0,0.0,0.0,0.0,0.0,0.0,-0.7987,-0.8097,-0.7687,-0.6806,-0.6722,-0.6591,-0.636,0.0,0.0,0.0,0.0,0.0,0.0,0.0,0.0,0.0,0.0,0.0,0.0,0.0,0.0,0.0,0.0,0.0,0.0,0.0,0.0,0.0,0.0,-0.8097,0.0,-1.0124,-1.0964,-1.1728,-1.2009,-1.1619,-1.134,-1.1859,-1.153,-1.1288,-1.1931,-1.2695,-1.3184,-1.3184,-1.3184,-1.3107,-1.2954,-1.2915,-1.2783,-1.2529,-1.2446,-1.2436,-1.2491,-1.2491,-1.2708,-1.3315,-1.3369,-1.3586,-1.4191,-1.4191,-1.4191,-1.4191,-1.4191,-1.4611,-1.5512,-1.7094,-1.8304,-1.922,-1.9272,-1.9272,-1.9286,-1.9661,-1.9823,-1.9881,-2.0457,-2.072,-2.075,-2.1696,-2.2059,-2.2173,-2.274,-2.3304,-2.3865,-2.3865,-2.4725,-2.5885,0.0,0.0,0.0,0.0,0.0,0.0,0.0,0.0,0.0,0.0,0.0,0.0,0.0,0.0,0.0,0.0,0.0,0.0,0.0,0.0,0.0,0.0,0.0,0.0,0.0,0.0,0.0,0.0,0.0,-0.799,-0.6683,-0.7485,-0.7359,-0.6509,-0.729,-0.7135,-0.6312,-0.6072,0.0,0.0,0.0,0.0,0.0,0.0,0.0,0.0,0.0,0.0,0.0,0.0,0.0,0.0,0.0,0.0,0.0,0.0,0.0,0.0,0.0,0.0,0.0,-0.9582,-1.0244,-1.0739,-1.1465,-1.1277,-1.0969,-1.0961,-1.0872,-1.0801,-1.0811,-1.1645,-1.232,-1.232,-1.232,-1.2339,-1.2396,-1.2291,-1.2282,-1.2363,-1.199,-1.1855,-1.2372,-1.211,-1.2282,-1.3207,-1.3315,-1.3532,-1.4191,-1.4191,-1.4191,-1.4191,-1.4191,-1.488,-1.6258,-1.8003,-1.9011,-1.9272,-1.9272,-1.9272,-1.9286,-1.9403,-1.9681,-2.0077,-2.0694,-2.1083,-2.1294,-2.1866,-2.257,-2.3304,-2.3472,-2.3977,-2.4479,-2.4479,-2.5065,-2.5885,0.0,0.0,0.0,0.0,0.0,0.0,0.0,0.0,0.0,0.0,0.0,0.0,0.0,0.0,0.0,0.0,0.0,0.0,0.0,0.0,0.0,0.0,0.0,0.0,0.0,0.0,0.0,0.0,0.0,0.0,0.0,0.0,-0.6786,-0.6257,-0.7063,0.0,0.0,0.0,0.0,-0.5904,0.0,0.0,-0.5481,0.0,0.0,0.0,0.0,0.0,0.0,0.0,0.0,0.0,0.0,0.0,0.0,0.0,0.0,0.0,-0.5351,0.0,0.0,0.0,-0.9365,-0.9728,-1.0794,-1.0761,-1.0432,-1.0049,-1.0184,-1.0247,-1.0067,-1.0595,-1.115,-1.1338,-1.1356,-1.1401,-1.1528,-1.1438,-1.1403,-1.1666,-1.1264,-1.1166,-1.1675,-1.1474,-1.1755,-1.2837,-1.2881,-1.3258,-1.4008,-1.4073,-1.4105,-1.4191,-1.4773,-1.5565,-1.667,-1.8422,-1.9272,-1.9272,-1.9272,-1.9272,-1.9286,-1.9506,-1.9828,-2.0252,-2.1063,-2.1566,-2.1795,-2.2476,-2.3191,-2.3921,-2.4144,-2.4423,-2.4812,-2.4812,-2.5292,-2.5885,0.0,0.0,0.0,0.0,0.0,0.0,0.0,0.0,0.0,0.0,0.0,0.0,0.0,0.0,0.0,0.0,0.0,0.0,0.0,0.0,0.0,0.0,0.0,0.0,0.0,0.0,0.0,0.0,0.0,0.0,0.0,0.0,-0.5964,0.0,-0.5958,-0.61,-0.6354,0.0,-0.6149,-0.6225,0.0,-0.5512,-0.5648,0.0,0.0,0.0,-0.4888,-0.4807,0.0,-0.4422,0.0,0.0,0.0,0.0,0.0,0.0,0.0,0.0,0.0,0.0,0.0,0.0,0.0,-0.8612,-0.9964,-1.0003,-0.9638,-0.9189,-0.938,-0.9575,-0.9575,-0.9575,-0.9738,-1.0139,-1.0196,-1.0196,-1.0204,-1.0204,-1.0204,-1.0212,-1.0306,-1.0358,-1.0375,-1.0582,-1.1096,-1.2046,-1.209,-1.2621,-1.373,-1.3836,-1.3943,-1.4191,-1.5832,-1.6683,-1.6683,-1.8422,-1.9272,-1.9272,-1.9272,-1.9338,-1.9368,-1.993,-2.0237,-2.0281,-2.1586,-2.2157,-2.223,-2.3416,-2.3921,-2.3977,-2.459,-2.4812,-2.4812,-2.4812,-2.5292,-2.5885,0.0,0.0,0.0,0.0,0.0,0.0,0.0,0.0,0.0,0.0,0.0,0.0,0.0,0.0,0.0,0.0,0.0,0.0,0.0,0.0,0.0,0.0,0.0,0.0,0.0,0.0,0.0,0.0,0.0,0.0,0.0,0.0,0.0,0.0,-0.6013,-0.604,-0.604,-0.571,0.0,0.0,-0.5344,-0.5119,0.0,0.0,0.0,0.0,0.0,-0.4526,-0.4476,0.0,-0.4489,-0.4626,0.0,0.0,0.0,0.0,0.0,0.0,-0.4117,0.0,0.0,0.0,0.0,0.0,-0.9253,-0.9302,-0.9071,-0.9118,-0.938,-0.9575,-0.9575,-0.9518,-0.951,-0.9738,-0.9778,-0.9819,-0.9941,-0.9851,-0.9868,-1.0188,-0.9981,-0.9957,-1.0209,-1.0335,-1.0869,-1.2071,-1.2266,-1.2847,-1.404,-1.4094,-1.4126,-1.4191,-1.5832,-1.6683,-1.6683,-1.8422,-1.9272,-1.9272,-1.9272,-1.9456,-1.9691,-2.0294,-2.0786,-2.1254,-2.249,-2.3174,-2.3416,-2.3753,-2.4144,-2.459,-2.4701,-2.4812,-2.4812,-2.4812,-2.5292,-2.5885,0.0,0.0,0.0,0.0,0.0,0.0,0.0,0.0,0.0,0.0,0.0,0.0,0.0,0.0,0.0,0.0,0.0,0.0,0.0,0.0,0.0,0.0,0.0,0.0,0.0,0.0,0.0,0.0,0.0,0.0,0.0,0.0,0.0,0.0,0.0,0.0,0.0,0.0,0.0,0.0,-0.5096,0.0,0.0,-0.4699,-0.4576,0.0,0.0,0.0,-0.4536,-0.4783,-0.4821,0.0,0.0,0.0,0.0,0.0,0.0,0.0,0.0,0.0,0.0,0.0,0.0,0.0,-0.8416,-0.8651,-0.8609,-0.8641,-0.8934,-0.921,-0.9275,-0.9202,-0.9194,-0.938,-0.9405,-0.9494,-0.9746,-0.9689,-0.9705,-0.9916,-0.9754,-0.9738,-1.0022,-1.0252,-1.0819,-1.1808,-1.214,-1.2783,-1.3837,-1.3986,-1.4244,-1.4719,-1.6045,-1.6882,-1.7252,-1.8632,-1.9272,-1.9272,-1.9272,-1.9531,-1.9934,-2.0575,-2.1179,-2.1853,-2.3074,-2.3723,-2.3921,-2.4144,-2.4479,-2.4812,-2.4812,-2.4812,-2.4847,-2.5001,-2.5429,-2.5902,0.0,0.0,0.0,0.0,0.0,0.0,0.0,0.0,0.0,0.0,0.0,0.0,0.0,0.0,0.0,0.0,0.0,0.0,0.0,0.0,0.0,0.0,0.0,0.0,0.0,0.0,0.0,0.0,0.0,0.0,0.0,0.0,0.0,0.0,0.0,0.0,0.0,0.0,0.0,-0.5534,-0.4926,-0.4838,0.0,0.0,-0.4553,-0.4683,-0.4614,-0.4634,-0.4764,-0.5325,-0.5461,0.0,0.0,0.0,0.0,0.0,-0.4308,0.0,0.0,0.0,0.0,0.0,0.0,0.0,-0.7638,-0.8068,-0.8207,-0.8048,-0.8357,-0.8666,-0.8796,-0.882,-0.8885,-0.9064,-0.908,-0.9194,-0.9551,-0.96,-0.96,-0.96,-0.9583,-0.9632,-0.9778,-1.0322,-1.086,-1.1432,-1.2023,-1.2709,-1.3605,-1.3863,-1.4451,-1.5607,-1.6405,-1.7199,-1.7989,-1.884,-1.9272,-1.9272,-1.9376,-1.965,-2.0162,-2.0917,-2.1565,-2.2215,-2.3409,-2.3927,-2.4033,-2.459,-2.4812,-2.4812,-2.4812,-2.4847,-2.4915,-2.5258,-2.5634,-2.6045,0.0,0.0,0.0,0.0,0.0,0.0,0.0,0.0,0.0,0.0,0.0,0.0,0.0,0.0,0.0,0.0,0.0,0.0,0.0,0.0,0.0,0.0,0.0,0.0,0.0,0.0,0.0,0.0,0.0,0.0,0.0,0.0,0.0,0.0,0.0,0.0,0.0,0.0,0.0,-0.4926,-0.461,0.0,-0.4689,-0.4604,-0.4569,-0.4606,-0.4663,-0.4647,-0.4724,-0.5301,-0.5461,-0.5449,0.0,0.0,0.0,-0.4522,0.0,0.0,0.0,0.0,0.0,0.0,0.0,0.0,-0.7372,-0.7627,-0.7819,-0.8172,-0.8641,-0.8958,-0.8844,-0.882,-0.8885,-0.9064,-0.8974,-0.8999,-0.9404,-0.9453,-0.9453,-0.9453,-0.9283,-0.9218,-0.925,-0.9853,-1.0542,-1.1295,-1.2536,-1.3718,-1.4729,-1.4839,-1.5346,-1.6458,-1.7305,-1.7832,-1.7989,-1.884,-1.9272,-1.9324,-1.9724,-2.0119,-2.0551,-2.1586,-2.2433,-2.3097,-2.3846,-2.4302,-2.4646,-2.4757,-2.4812,-2.4812,-2.4812,-2.5001,-2.5275,-2.5343,-2.5788,-2.6388,0.0,0.0,0.0,0.0,0.0,0.0,0.0,0.0,0.0,0.0,0.0,0.0,0.0,0.0,0.0,0.0,0.0,0.0,0.0,0.0,0.0,0.0,0.0,0.0,0.0,0.0,0.0,0.0,0.0,0.0,0.0,0.0,0.0,0.0,0.0,0.0,0.0,0.0,-0.5092,-0.475,-0.4468,0.0,-0.4616,-0.452,-0.4561,-0.4647,-0.4692,-0.4922,-0.5293,-0.5889,-0.5809,0.0,-0.5969,-0.5542,-0.484,0.0,-0.4438,-0.4385,0.0,0.0,0.0,-0.5591,0.0,0.0,0.0,-0.7709,-0.8023,-0.8239,-0.843,-0.8584,-0.8674,-0.8617,-0.8617,-0.8804,-0.8674,-0.8682,-0.9039,-0.929,-0.9404,-0.9404,-0.9322,-0.9321,-0.9566,-1.0156,-1.1106,-1.2484,-1.327,-1.4221,-1.5411,-1.5487,-1.6084,-1.7292,-1.7779,-1.8199,-1.8632,-1.9063,-1.9428,-1.9672,-1.9983,-2.0488,-2.1179,-2.1944,-2.2742,-2.3527,-2.3982,-2.4398,-2.4812,-2.4812,-2.4812,-2.4812,-2.4812,-2.5052,-2.5395,-2.5583,-2.6011,-2.6525,0.0,0.0,0.0,0.0,0.0,0.0,0.0,0.0,0.0,0.0,0.0,0.0,0.0,0.0,0.0,0.0,0.0,0.0,0.0,0.0,0.0,0.0,0.0,-0.613,0.0,0.0,0.0,0.0,0.0,0.0,0.0,0.0,0.0,0.0,0.0,0.0,0.0,0.0,0.0,-0.4663,0.0,-0.4459,-0.4614,-0.4524,-0.4589,-0.4728,-0.4696,-0.5081,-0.5659,-0.6283,-0.6062,-0.569,-0.6276,-0.5614,0.0,0.0,0.0,0.0,0.0,0.0,0.0,0.0,0.0,-0.7079,0.0,0.0,0.0,-0.8365,-0.8276,-0.8292,-0.8571,-0.849,-0.839,-0.8588,-0.8414,-0.839,-0.8682,-0.9023,-0.9362,-0.949,-0.9465,-0.9647,-1.0165,-1.0716,-1.1861,-1.374,-1.3908,-1.457,-1.6047,-1.6135,-1.6801,-1.8237,-1.8251,-1.8579,-1.9272,-1.9376,-1.9672,-2.0086,-2.0292,-2.0858,-2.1742,-2.2142,-2.2837,-2.3735,-2.399,-2.4401,-2.4812,-2.4812,-2.4812,-2.4812,-2.4812,-2.5052,-2.5412,-2.5788,-2.6165,-2.6542,0.0,0.0,0.0,0.0,0.0,0.0,0.0,0.0,0.0,0.0,0.0,0.0,0.0,0.0,0.0,0.0,0.0,0.0,-0.8073,0.0,0.0,0.0,0.0,0.0,-0.7098,0.0,0.0,0.0,0.0,0.0,0.0,0.0,0.0,0.0,-0.6611,0.0,0.0,0.0,-0.519,0.0,-0.46,-0.4647,0.0,-0.4708,-0.4736,-0.4752,-0.4643,-0.4687,-0.4922,0.0,-0.5614,-0.5621,0.0,-0.5648,-0.5276,-0.4733,0.0,0.0,0.0,0.0,0.0,0.0,-0.7081,-0.8126,-0.7886,0.0,-0.8301,-0.85,0.0,-0.8893,-0.8661,0.0,0.0,-0.8604,-0.8414,-0.8308,-0.8349,-0.8658,-0.9125,-0.9757,-0.9664,-0.9857,-1.0547,-1.1244,-1.2252,-1.3788,-1.3908,-1.4814,-1.6909,-1.705,-1.7677,-1.9086,-1.9168,-1.922,-1.9272,-1.9776,-2.0034,-2.0138,-2.1062,-2.1573,-2.1725,-2.2283,-2.2997,-2.3718,-2.3734,-2.4162,-2.4812,-2.4812,-2.4812,-2.4812,-2.4812,-2.5052,-2.5412,-2.5788,-2.6165,-2.6542,0.0,0.0,0.0,0.0,0.0,0.0,0.0,0.0,0.0,0.0,0.0,0.0,0.0,0.0,0.0,0.0,0.0,-0.8722,0.0,0.0,0.0,0.0,0.0,0.0,0.0,0.0,0.0,0.0,-0.7445,0.0,0.0,0.0,0.0,0.0,-0.6579,0.0,-0.5941,0.0,-0.5683,0.0,0.0,0.0,0.0,-0.4802,-0.4732,-0.4757,-0.4732,-0.501,-0.5421,0.0,-0.5714,0.0,0.0,0.0,0.0,-0.5106,0.0,0.0,0.0,0.0,0.0,0.0,0.0,0.0,-0.8541,-0.8752,-0.8909,-0.9025,0.0,0.0,0.0,0.0,0.0,0.0,-0.8414,-0.8325,-0.8482,-0.8398,-0.8636,-0.9464,-0.9764,-1.0276,-1.1344,-1.2283,-1.3295,-1.4507,-1.5149,-1.6197,-1.7782,-1.8032,-1.8484,-1.9257,-1.9272,-1.9272,-1.9272,-1.9828,-2.0241,-2.055,-2.1318,-2.1878,-2.2249,-2.2673,-2.322,-2.3735,-2.3905,-2.4316,-2.4812,-2.4812,-2.4812,-2.4812,-2.4812,-2.5189,-2.572,-2.5816,-2.6319,-2.685,0.0,0.0,0.0,0.0,0.0,0.0,0.0,0.0,0.0,0.0,0.0,0.0,-1.0484,-1.0534,0.0,0.0,-1.001,-0.9671,0.0,0.0,-0.7954,0.0,0.0,0.0,0.0,0.0,0.0,0.0,0.0,0.0,0.0,0.0,0.0,0.0,0.0,-0.6554,-0.6208,0.0,-0.6071,-0.533,-0.5076,-0.5051,-0.5145,-0.4908,-0.4934,-0.5044,-0.5083,-0.5614,-0.6208,-0.5933,-0.602,-0.6246,-0.6398,-0.579,-0.5138,0.0,0.0,0.0,-0.5631,0.0,0.0,-0.7337,-0.8062,-0.8582,-0.8753,-0.9131,-0.9404,-0.9404,-0.9299,0.0,0.0,0.0,0.0,0.0,0.0,-0.8398,-0.8522,-0.83,-0.853,-0.9472,-1.0205,-1.0991,-1.1922,-1.2989,-1.3978,-1.493,-1.6046,-1.7176,-1.8227,-1.8613,-1.8935,-1.9257,-1.9272,-1.9376,-1.9532,-2.0034,-2.0601,-2.113,-2.1674,-2.2182,-2.2603,-2.2826,-2.322,-2.3735,-2.3973,-2.4367,-2.4812,-2.4812,-2.4812,-2.4812,-2.4812,-2.5275,-2.5885,-2.5885,-2.6354,-2.6936,0.0,-1.2768,0.0,0.0,0.0,0.0,0.0,0.0,0.0,0.0,0.0,0.0,0.0,0.0,0.0,0.0,0.0,-1.2972,-1.2004,0.0,-0.8991,0.0,0.0,-0.7549,0.0,0.0,0.0,0.0,0.0,0.0,0.0,0.0,0.0,0.0,0.0,-0.6882,-0.708,-0.6282,-0.5997,-0.6097,-0.533,-0.5025,-0.499,0.0,-0.5451,-0.5972,-0.5865,-0.6437,-0.7012,-0.6203,-0.6354,-0.684,-0.6058,-0.6142,-0.6545,0.0,0.0,0.0,-0.5643,-0.6682,-0.7577,-0.6225,-0.7651,-0.9116,-0.8229,-0.8744,-0.9404,-0.9404,-0.9494,-0.9559,0.0,0.0,0.0,0.0,0.0,0.0,0.0,-0.849,-0.9006,-1.0126,-1.1308,-1.2059,-1.207,-1.302,-1.3906,-1.4651,-1.5925,-1.7176,-1.8227,-1.8613,-1.8935,-1.9257,-1.9272,-1.9532,-2.0086,-2.0601,-2.113,-2.1674,-2.2283,-2.2603,-2.2603,-2.2603,-2.3014,-2.3718,-2.3699,-2.4145,-2.4812,-2.4812,-2.4812,-2.4812,-2.4812,-2.5275,-2.5885,-2.5885,-2.6182,-2.6559,0.0,0.0,0.0,0.0,0.0,0.0,0.0,-1.3579,0.0,0.0,-1.4191,0.0,0.0,-1.3953,-1.4005,0.0,0.0,-1.3211,-1.2239,-1.0764,0.0,0.0,0.0,-0.7414,0.0,0.0,0.0,0.0,0.0,0.0,0.0,0.0,0.0,0.0,0.0,-0.6047,0.0,0.0,0.0,0.0,0.0,-0.5026,-0.4969,-0.4941,-0.5006,-0.5152,-0.5178,-0.6005,-0.7009,-0.6218,-0.6813,-0.7807,-0.7469,-0.7039,-0.6773,-0.723,-0.6943,-0.6503,-0.6911,-0.7326,-0.7667,-0.7773,-0.8398,-0.8936,-0.8597,-0.8996,-0.9371,-0.921,-0.9324,-0.9397,0.0,0.0,0.0,0.0,0.0,0.0,0.0,-0.9043,-0.9717,-1.0431,-1.1694,-1.2586,-1.2757,-1.3886,-1.4767,-1.5038,-1.6332,-1.7347,-1.7969,-1.8496,-1.8935,-1.9257,-1.9272,-1.9376,-1.9583,-2.0462,-2.0976,-2.1165,-2.2131,-2.2603,-2.262,-2.3117,-2.3478,-2.3752,-2.4213,-2.459,-2.4812,-2.4812,-2.4812,-2.4812,-2.4812,-2.5121,-2.56,-2.584,-2.6336,-2.6902,-1.2588,0.0,0.0,0.0,0.0,0.0,0.0,0.0,0.0,-1.5197,-1.5193,0.0,-1.4767,0.0,-1.4449,0.0,-1.4141,-1.3723,-1.2364,-1.145,0.0,-1.146,-0.9353,-0.8746,0.0,0.0,0.0,0.0,0.0,-0.7675,0.0,0.0,0.0,0.0,0.0,-0.6042,-0.6672,-0.5902,-0.5681,0.0,0.0,-0.5231,0.0,-0.4968,-0.5168,-0.5648,-0.5327,-0.6239,-0.7413,-0.6365,-0.6799,-0.7807,-0.7807,-0.7496,-0.7263,-0.8046,-0.7829,-0.7455,-0.7781,-0.8002,-0.8162,-0.8162,-0.8551,-0.881,-0.8519,-0.8814,-0.9129,-0.9023,-0.9137,-0.9345,-0.9429,0.0,0.0,0.0,0.0,0.0,0.0,-0.9689,-1.0246,-1.0549,-1.1761,-1.2674,-1.285,-1.4314,-1.5195,-1.5086,-1.659,-1.7545,-1.7633,-1.8364,-1.8891,-1.9096,-1.9213,-1.9376,-1.9583,-2.0462,-2.1027,-2.1216,-2.2131,-2.2603,-2.262,-2.3238,-2.3545,-2.3752,-2.4333,-2.4693,-2.4812,-2.4812,-2.4812,-2.4812,-2.4812,-2.5138,-2.56,-2.584,-2.6422,-2.715,0.0,0.0,0.0,0.0,-1.2988,0.0,0.0,-1.4401,-1.4944,0.0,-1.5078,-1.481,-1.4982,-1.4991,-1.4756,-1.407,-1.481,-1.4494,-1.2548,-1.2231,0.0,0.0,-1.1286,-1.1141,-1.0762,0.0,0.0,0.0,0.0,0.0,0.0,0.0,0.0,0.0,-0.6149,0.0,-0.8194,-0.6001,-0.5999,-0.7283,-0.5742,-0.5592,-0.6144,-0.5271,-0.6002,-0.731,-0.6329,-0.6986,-0.8081,-0.6592,-0.6558,-0.7136,-0.7136,-0.7521,-0.8106,-0.887,-0.9096,-0.894,-0.8239,-0.8682,-0.9013,-0.7476,-0.8106,-0.8862,-0.804,-0.8375,-0.8828,-0.8812,-0.9004,-0.9316,-1.0005,0.0,0.0,0.0,0.0,0.0,0.0,0.0,-1.0699,-1.071,-1.1768,-1.2454,-1.2466,-1.4239,-1.529,-1.4957,-1.6679,-1.7633,-1.7326,-1.8282,-1.8825,-1.889,-1.9214,-1.9635,-2.0138,-2.0652,-2.1216,-2.1725,-2.2283,-2.2603,-2.2637,-2.2963,-2.334,-2.377,-2.4093,-2.447,-2.4812,-2.4812,-2.4812,-2.4812,-2.4812,-2.5275,-2.5943,-2.5977,-2.6456,-2.7219,-1.3012,-1.3169,-1.3435,0.0,-1.3785,-1.3809,-1.4147,-1.4823,-1.5487,-1.6006,-1.6327,-1.6172,-1.554,-1.6049,-1.5943,-1.4585,-1.4457,0.0,0.0,0.0,0.0,-1.07,-0.9169,-0.8871,-1.0054,-0.9082,-0.8293,-0.774,0.0,0.0,-0.6858,0.0,0.0,0.0,0.0,0.0,-0.7447,-0.6409,-0.6613,-0.7629,-0.7061,-0.7027,-0.7188,-0.6766,-0.7321,-0.8031,-0.5876,-0.6137,-0.7434,-0.7036,-0.7813,-0.8913,-0.8913,-0.886,-0.8839,-0.9203,-0.9096,-0.8872,-0.8823,-0.8988,-0.9059,-0.8683,-0.8816,-0.9001,-0.8633,-0.8788,-0.9042,-0.9171,-0.9302,-0.954,-1.0095,-1.0186,0.0,0.0,0.0,0.0,0.0,0.0,-1.1916,-1.245,-1.2897,-1.3254,-1.351,-1.4884,-1.5734,-1.5648,-1.6562,-1.7246,-1.7523,-1.8459,-1.9323,-1.9918,-2.0276,-2.0565,-2.0704,-2.1216,-2.1573,-2.1725,-2.2283,-2.274,-2.298,-2.3374,-2.3751,-2.411,-2.4504,-2.4727,-2.4812,-2.4812,-2.4812,-2.4812,-2.4812,-2.5388,-2.6342,-2.6898,-2.7418,-2.7931,-1.3169,0.0,0.0,-1.4244,0.0,-1.4495,-1.4799,-1.478,-1.4843,-1.5283,-1.5829,-1.5848,-1.5162,-1.6234,-1.6549,-1.5353,-1.5056,0.0,-1.3489,0.0,0.0,-1.153,-1.0577,-1.0445,-1.1249,-0.9971,0.0,-0.9092,0.0,0.0,-0.8389,0.0,0.0,0.0,0.0,-0.8132,-0.8693,-0.7827,-0.7357,-0.7206,-0.7434,-0.7731,0.0,-0.7415,-0.7735,-0.8311,-0.6563,-0.6732,-0.7683,-0.7335,-0.7783,-0.8619,-0.889,-0.8888,-0.89,-0.93,-0.9267,-0.9194,-0.9299,-0.9267,-0.9226,-0.9307,-0.9399,-0.9389,-0.928,-0.9463,-0.9622,-0.9631,-0.9649,-0.9883,-1.0433,-1.0417,0.0,0.0,0.0,0.0,0.0,0.0,0.0,-1.3391,-1.3689,-1.3962,-1.4309,-1.5416,-1.6067,-1.5921,-1.6506,-1.7025,-1.7354,-1.821,-1.9107,-2.0081,-2.0655,-2.0925,-2.0925,-2.1583,-2.189,-2.1725,-2.2452,-2.2912,-2.3134,-2.3682,-2.4042,-2.4193,-2.4658,-2.4812,-2.4812,-2.4812,-2.4812,-2.4847,-2.5341,-2.6052,-2.6994,-2.767,-2.8086,-2.8377,-1.3363,0.0,0.0,0.0,0.0,-1.5141,-1.5486,-1.4652,-1.4048,-1.4346,-1.4635,-1.4665,-1.4248,-1.5509,-1.6065,-1.5423,-1.5294,-1.4608,-1.3107,-1.3781,-1.3654,-1.2403,-1.2837,-1.3081,-1.2907,-1.156,-1.0858,0.0,-1.0982,-1.0725,0.0,0.0,0.0,0.0,0.0,0.0,0.0,-0.9474,-0.8269,-0.704,-0.7644,-0.8309,-0.8808,-0.7945,-0.8042,-0.8564,-0.8031,-0.8086,-0.8314,-0.7685,-0.7491,-0.7716,-0.828,-0.8497,-0.8654,-0.9267,-0.9502,-0.96,-0.9575,-0.951,-0.9477,-0.9592,-0.9774,-0.995,-0.9877,-1.0104,-1.0317,-1.0206,-1.0168,-1.0411,-1.1075,-1.087,0.0,0.0,0.0,0.0,0.0,0.0,0.0,0.0,-1.4376,0.0,-1.5113,-1.5878,-1.6213,-1.5994,-1.6565,-1.6996,-1.7244,-1.7918,-1.8816,-2.0039,-2.0712,-2.1097,-2.1194,-2.1917,-2.2208,-2.1976,-2.2723,-2.3169,-2.3288,-2.3939,-2.421,-2.4279,-2.4675,-2.4812,-2.4812,-2.4812,-2.4847,-2.5022,-2.6162,-2.7017,-2.7664,-2.8367,-2.872,-2.8896,-1.4063,0.0,0.0,0.0,0.0,-1.5433,-1.5687,-1.5512,-1.5468,-1.5715,-1.5099,-1.4252,-1.3122,-1.303,-1.2577,-1.145,-1.1072,0.0,0.0,0.0,0.0,-0.9903,-0.9629,-1.0253,-1.191,-1.139,-1.1123,-1.1123,-1.1775,-1.1637,0.0,0.0,0.0,0.0,0.0,0.0,-0.9442,-0.9381,0.0,-0.9922,-0.9923,-0.9967,-1.005,-0.9771,-0.9753,-0.9864,-0.9784,-0.9271,-0.8635,-0.8667,-0.9131,-0.9701,-0.9824,-0.9633,-0.945,-0.9712,-0.9657,-0.9486,-0.9583,-0.9608,-0.9592,-0.9567,-0.9968,-1.0263,-1.0096,-1.0461,-1.0847,-1.1105,-1.1146,-1.1354,-1.2009,-1.2947,-1.3676,0.0,-1.4969,-1.5809,-1.5553,0.0,0.0,0.0,0.0,-1.5255,-1.6443,-1.6228,-1.6082,-1.6316,-1.6683,-1.7236,-1.8029,-1.8783,-1.9764,-2.11,-2.1556,-2.208,-2.2705,-2.2622,-2.2826,-2.3355,-2.3185,-2.3443,-2.3988,-2.4125,-2.4347,-2.4727,-2.4795,-2.4812,-2.4812,-2.4812,-2.5168,-2.5813,-2.7142,-2.7714,-2.7993,-2.9015,-2.9605,-2.9908,-1.4211,0.0,0.0,0.0,0.0,-1.5444,-1.5693,-1.5689,-1.5478,-1.5051,-1.4611,-1.3966,-1.3199,-1.3777,-1.3904,-1.3135,-1.2886,-1.2773,-1.2616,-1.1997,-1.1703,-1.1986,-1.1663,-1.1859,-1.2596,-1.2364,-1.2181,-1.2181,-1.2463,-1.241,0.0,0.0,0.0,0.0,0.0,-1.0509,0.0,0.0,-1.0084,-1.0069,-1.0285,-1.0383,-1.0412,-1.0233,-1.0212,-1.0228,-1.0266,-0.9978,-0.9593,-0.9638,-0.9899,-1.0196,-1.0098,-0.9965,-0.9884,-0.9778,-0.9762,-0.982,-0.9762,-0.9697,-0.9698,-1.0096,-1.0413,-1.0711,-1.0858,-1.1305,-1.167,-1.1723,-1.1773,-1.2031,-1.2913,-1.3208,-1.3748,-1.4888,-1.533,-1.5763,-1.6497,-1.6251,-1.6369,0.0,0.0,0.0,-1.7337,-1.6952,-1.6541,-1.6389,-1.6937,-1.7583,-1.8258,-1.8894,-1.9923,-2.134,-2.1799,-2.2364,-2.31,-2.3117,-2.3358,-2.3718,-2.3682,-2.3888,-2.4176,-2.4436,-2.4641,-2.4812,-2.4812,-2.4812,-2.483,-2.5203,-2.6014,-2.6996,-2.7858,-2.8455,-2.8888,-2.9611,-3.0149,-3.0497,0.0,-1.4669,0.0,0.0,-1.5389,-1.5563,-1.5638,-1.5692,-1.5343,-1.4455,-1.4122,-1.383,-1.3595,-1.4518,-1.5056,-1.4808,-1.4748,-1.4657,-1.4432,-1.4381,-1.4282,-1.4103,-1.3876,-1.3667,-1.3556,-1.3308,-1.319,-1.319,-1.3056,-1.3002,-1.3028,0.0,0.0,0.0,0.0,0.0,-0.975,-1.0287,-1.0279,-0.9957,-1.0381,-1.058,-1.0638,-1.0384,-1.0326,-1.0343,-1.0436,-1.0439,-1.0477,-1.0371,-1.0359,-1.0302,-1.0103,-1.0128,-1.0168,-0.9884,-0.9973,-1.018,-1.0033,-0.9944,-1.0029,-1.0628,-1.0996,-1.1298,-1.1644,-1.2141,-1.2436,-1.2289,-1.2289,-1.2563,-1.3401,-1.3397,-1.3785,-1.5453,-1.5518,-1.5831,-1.7319,-1.6967,-1.6985,0.0,0.0,0.0,-1.7934,-1.7722,-1.7314,-1.6846,-1.7309,-1.7942,-1.8534,-1.8954,-1.987,-2.1323,-2.1799,-2.2398,-2.322,-2.3528,-2.3751,-2.3922,-2.4127,-2.4227,-2.4313,-2.4675,-2.4812,-2.4812,-2.4812,-2.4864,-2.4967,-2.5883,-2.688,-2.8007,-2.8522,-2.9161,-2.9764,-3.0167,-3.0516,-3.0791,0.0,0.0,0.0,-1.5854,-1.6094,-1.6144,-1.565,-1.5823,-1.5828,-1.5472,-1.4421,-1.3696,-1.3696,-1.2749,-1.2097,-1.2097,-1.2097,-1.1962,-1.1778,-1.167,-1.1942,-1.2739,-1.2469,-1.277,-1.374,-1.3556,-1.3448,-1.3448,-1.3427,-1.3251,-1.2851,-1.2708,0.0,0.0,-1.0675,-1.0532,-1.0779,-1.0239,-1.0615,-1.1556,-1.1092,-1.1151,-1.1428,-1.0866,-1.0639,-1.0647,-1.0664,-1.0672,-1.0688,-1.0842,-1.0785,-1.0639,-1.0623,-1.0517,-1.035,-1.0318,-1.0266,-1.0212,-1.0196,-1.0534,-1.0888,-1.0958,-1.1563,-1.2183,-1.2243,-1.2534,-1.2775,-1.2753,-1.2867,-1.3056,-1.3127,-1.4752,-1.5973,-1.5922,-1.7278,-1.8448,-1.8629,-1.8076,-1.7978,-1.881,0.0,0.0,-1.8211,-1.8224,-1.8163,-1.8121,-1.7897,-1.8274,-1.9418,-1.9542,-2.0121,-2.134,-2.1799,-2.2518,-2.3649,-2.3665,-2.4042,-2.471,-2.4384,-2.4364,-2.4761,-2.4812,-2.4812,-2.4812,-2.4812,-2.5018,-2.5434,-2.6795,-2.7635,-2.8199,-2.9119,-2.9764,-3.0185,-3.0589,-3.0754,-3.0846,-1.523,-1.5327,-1.5503,-1.5714,-1.5856,-1.5829,-1.5612,-1.5677,-1.5698,-1.5612,-1.5175,-1.4808,-1.4808,-1.4391,-1.4023,-1.4023,-1.4023,-1.3878,-1.3538,-1.3432,-1.3463,-1.3566,-1.3437,-1.3486,-1.3772,-1.3879,-1.3836,-1.3685,-1.3685,-1.3433,-1.2935,-1.2811,-1.2297,-1.1469,-1.1372,-1.1272,-1.1126,-1.0789,-1.1118,-1.1807,-1.1582,-1.1748,-1.2001,-1.1455,-1.1236,-1.1181,-1.0852,-1.0688,-1.0704,-1.0777,-1.0826,-1.0858,-1.0858,-1.081,-1.0712,-1.0447,-1.0461,-1.0461,-1.0355,-1.0737,-1.1265,-1.1581,-1.21,-1.2608,-1.2974,-1.3103,-1.324,-1.324,-1.3147,-1.349,-1.4847,-1.5166,-1.5783,-1.7616,-1.8002,-1.8337,-1.9001,-1.8686,-1.8676,-1.9403,0.0,-1.8843,-1.9455,-1.9284,-1.9334,-1.9829,-1.9241,-1.9097,-1.9575,-2.01,-2.0687,-2.1388,-2.2004,-2.2808,-2.3682,-2.3905,-2.4282,-2.4812,-2.4658,-2.462,-2.483,-2.5052,-2.5275,-2.548,-2.5258,-2.5611,-2.6429,-2.7193,-2.7985,-2.8792,-2.9617,-3.0204,-3.0607,-3.0992,-3.1139,-3.1194,-1.5231,-1.5295,-1.5392,-1.5752,-1.5806,-1.5785,-1.5709,-1.5698,-1.5677,-1.5612,-1.5601,-1.5601,-1.5601,-1.5601,-1.5601,-1.5601,-1.5537,-1.5322,-1.4912,-1.4815,-1.46,-1.4213,-1.4191,-1.4116,-1.3933,-1.4105,-1.4105,-1.3933,-1.3933,-1.3541,-1.288,-1.2529,-1.2064,-1.1555,-1.1799,-1.1711,-1.1305,-1.1529,-1.1825,-1.2167,-1.2167,-1.2404,-1.2609,-1.2119,-1.1927,-1.1881,-1.1547,-1.1364,-1.133,-1.1389,-1.1346,-1.1181,-1.0963,-1.0891,-1.0842,-1.0582,-1.0599,-1.0664,-1.0542,-1.1039,-1.1728,-1.2103,-1.2585,-1.3112,-1.3526,-1.3523,-1.348,-1.348,-1.3532,-1.4077,-1.57,-1.5631,-1.6111,-1.8391,-1.8391,-1.8348,-1.9059,-1.9088,-1.921,-1.9728,-1.9766,-1.9856,-2.0252,-2.0155,-2.0257,-2.0668,-2.0272,-2.0038,-2.0138,-2.0649,-2.1097,-2.1559,-2.2312,-2.3032,-2.3699,-2.4179,-2.4538,-2.4812,-2.4932,-2.4984,-2.5001,-2.536,-2.5686,-2.5867,-2.5771,-2.6168,-2.6863,-2.7441,-2.8253,-2.9187,-2.9908,-3.0516,-3.0992,-3.1267,-3.1451,-3.1598,-1.5505,-1.5601,-1.5741,-1.6226,-1.6301,-1.6226,-1.6039,-1.6007,-1.592,-1.5623,-1.5601,-1.5601,-1.5601,-1.5601,-1.5601,-1.5601,-1.5386,-1.5092,-1.4902,-1.4665,-1.4439,-1.4202,-1.4191,-1.4191,-1.4191,-1.4191,-1.4191,-1.4191,-1.4191,-1.3625,-1.2596,-1.1608,-1.1152,-1.1224,-1.1411,-1.1492,-1.1567,-1.2337,-1.2781,-1.3003,-1.306,-1.315,-1.3227,-1.2885,-1.2794,-1.2823,-1.2984,-1.2918,-1.2776,-1.2984,-1.2531,-1.166,-1.0918,-1.0696,-1.0696,-1.0688,-1.0688,-1.0688,-1.0688,-1.1509,-1.2382,-1.2382,-1.308,-1.3814,-1.3814,-1.3642,-1.348,-1.348,-1.4123,-1.4742,-1.5075,-1.6459,-1.7538,-1.7538,-1.8522,-1.9155,-1.8847,-1.928,-1.966,-1.9777,-2.0313,-2.0562,-2.0315,-2.0634,-2.0703,-2.0326,-2.0651,-2.1028,-2.1371,-2.1062,-2.1216,-2.197,-2.2723,-2.3306,-2.3699,-2.4436,-2.4812,-2.483,-2.5189,-2.536,-2.5378,-2.5754,-2.5885,-2.5902,-2.6319,-2.6473,-2.6567,-2.7561,-2.8481,-2.9253,-2.9956,-3.0681,-3.1377,-3.1377,-3.1634,-3.2001,-1.5989,-1.5957,-1.5935,-1.6258,-1.6312,-1.6237,-1.605,-1.6147,-1.6108,-1.5931,-1.5899,-1.5774,-1.5612,-1.5601,-1.5537,-1.5317,-1.5231,-1.5027,-1.4676,-1.4579,-1.4428,-1.4202,-1.4191,-1.4191,-1.4191,-1.4191,-1.4191,-1.4191,-1.3813,-1.3123,-1.2275,-1.1637,-1.1429,-1.1606,-1.1663,-1.1918,-1.2337,-1.2577,-1.3168,-1.3896,-1.37,-1.3856,-1.4043,-1.3618,-1.3416,-1.3371,-1.3048,-1.2861,-1.2785,-1.2663,-1.2432,-1.2147,-1.191,-1.144,-1.0858,-1.0729,-1.0688,-1.0798,-1.1181,-1.1837,-1.2491,-1.2935,-1.3534,-1.4073,-1.4073,-1.4019,-1.3965,-1.3965,-1.4035,-1.4503,-1.5915,-1.6483,-1.7336,-1.9001,-1.9598,-1.9952,-2.0205,-2.0393,-2.0556,-2.0703,-2.0917,-2.1012,-2.1049,-2.1165,-2.1302,-2.1439,-2.1319,-2.1182,-2.1062,-2.1422,-2.1747,-2.1987,-2.2963,-2.3545,-2.3682,-2.4436,-2.4949,-2.5189,-2.5309,-2.5634,-2.6131,-2.5994,-2.6217,-2.6696,-2.6559,-2.6645,-2.6979,-2.8008,-2.8711,-2.9288,-3.0247,-3.0919,-3.1377,-3.1377,-3.1653,-3.2038,-1.6118,-1.6115,-1.6061,-1.6151,-1.6172,-1.6097,-1.5849,-1.6097,-1.6194,-1.592,-1.5953,-1.592,-1.5623,-1.5601,-1.5505,-1.521,-1.5113,-1.4888,-1.4502,-1.446,-1.4342,-1.4202,-1.4191,-1.4191,-1.4191,-1.4191,-1.4191,-1.4191,-1.345,-1.2729,-1.2086,-1.1703,-1.1598,-1.1776,-1.1776,-1.213,-1.2724,-1.2964,-1.3561,-1.4286,-1.4292,-1.4358,-1.448,-1.4148,-1.3971,-1.3937,-1.3674,-1.3542,-1.3396,-1.3257,-1.3053,-1.2889,-1.2889,-1.2312,-1.1651,-1.1406,-1.1181,-1.1181,-1.1728,-1.2327,-1.2827,-1.3207,-1.3759,-1.4191,-1.4191,-1.4191,-1.4191,-1.4191,-1.4596,-1.5258,-1.6486,-1.7317,-1.8274,-1.9834,-2.0292,-2.0498,-2.0873,-2.1062,-2.1188,-2.1213,-2.1495,-2.1642,-2.1408,-2.1542,-2.1662,-2.1764,-2.1679,-2.1525,-2.1319,-2.1747,-2.2124,-2.2415,-2.3237,-2.3734,-2.3871,-2.4504,-2.5001,-2.5378,-2.5652,-2.6172,-2.6858,-2.6634,-2.6848,-2.7418,-2.7194,-2.7297,-2.7722,-2.8474,-2.911,-2.969,-3.051,-3.1029,-3.1396,-3.1561,-3.1873,-3.2276,-1.6007,-1.6007,-1.6007,-1.6007,-1.6017,-1.5963,-1.5688,-1.6054,-1.6194,-1.5731,-1.5909,-1.5942,-1.5645,-1.5612,-1.5505,-1.521,-1.502,-1.4794,-1.4512,-1.4331,-1.4202,-1.4213,-1.4202,-1.4191,-1.4191,-1.4191,-1.4137,-1.4083,-1.3096,-1.2467,-1.2029,-1.1661,-1.1614,-1.1776,-1.1837,-1.2191,-1.2784,-1.3504,-1.3985,-1.4432,-1.476,-1.4751,-1.4502,-1.4502,-1.4502,-1.4589,-1.4805,-1.4751,-1.4523,-1.4491,-1.4159,-1.378,-1.378,-1.3381,-1.2841,-1.254,-1.2083,-1.1791,-1.2346,-1.2891,-1.3315,-1.3369,-1.3759,-1.4191,-1.4191,-1.4191,-1.4191,-1.4191,-1.5458,-1.6577,-1.6709,-1.8475,-1.9983,-2.0168,-2.0617,-2.0976,-2.1027,-2.142,-2.1593,-2.1246,-2.2029,-2.2261,-2.1462,-2.1767,-2.1901,-2.1559,-2.1833,-2.2055,-2.2107,-2.209,-2.2398,-2.3083,-2.3528,-2.3905,-2.421,-2.4658,-2.5069,-2.5554,-2.6275,-2.6944,-2.7591,-2.7591,-2.7789,-2.8066,-2.8114,-2.8333,-2.8658,-2.9066,-2.9708,-3.0366,-3.0701,-3.1047,-3.1433,-3.1854,-3.2258,-3.2661,-1.6007,-1.6007,-1.6007,-1.6007,-1.6108,-1.6204,-1.6151,-1.6538,-1.6743,-1.6452,-1.6301,-1.614,-1.5953,-1.5709,-1.5505,-1.521,-1.502,-1.4859,-1.4805,-1.4417,-1.4266,-1.4449,-1.4288,-1.4191,-1.4191,-1.4191,-1.3759,-1.2827,-1.2412,-1.1977,-1.1405,-1.1616,-1.1736,-1.1837,-1.2311,-1.2844,-1.3504,-1.4093,-1.4728,-1.5296,-1.4995,-1.4848,-1.4805,-1.4805,-1.4805,-1.4805,-1.4859,-1.4966,-1.4963,-1.4598,-1.4542,-1.4625,-1.4625,-1.4174,-1.3598,-1.3097,-1.258,-1.2365,-1.3187,-1.3337,-1.3423,-1.3867,-1.4083,-1.4191,-1.4191,-1.4191,-1.4191,-1.4191,-1.4515,-1.526,-1.68,-1.7662,-1.8779,-2.0752,-2.1341,-2.1674,-2.2131,-2.2283,-2.2047,-2.1071,-2.1929,-2.2165,-2.1109,-2.1896,-2.2501,-2.2689,-2.2535,-2.2723,-2.3289,-2.2997,-2.2929,-2.3117,-2.3768,-2.4299,-2.4675,-2.5052,-2.572,-2.6739,-2.7384,-2.7983,-2.8393,-2.8659,-2.8862,-2.8924,-2.8951,-2.8986,-2.9084,-2.9807,-3.0149,-3.0384,-3.0993,-3.1304,-3.1433,-3.1854,-3.2258,-3.2661,-1.6097,-1.6118,-1.6118,-1.6118,-1.6312,-1.6366,-1.6032,-1.656,-1.6807,-1.6247,-1.6258,-1.6183,-1.5828,-1.5677,-1.5548,-1.5418,-1.5085,-1.4837,-1.4729,-1.4396,-1.4245,-1.4374,-1.4256,-1.4191,-1.4191,-1.4299,-1.3957,-1.3109,-1.2813,-1.2392,-1.182,-1.2056,-1.2191,-1.2251,-1.2844,-1.3504,-1.4102,-1.4451,-1.4997,-1.5569,-1.5203,-1.4988,-1.4869,-1.4762,-1.4729,-1.4729,-1.4729,-1.488,-1.5042,-1.4783,-1.4848,-1.5052,-1.5052,-1.4813,-1.4489,-1.4313,-1.3735,-1.3295,-1.404,-1.4155,-1.4117,-1.4459,-1.4428,-1.4352,-1.4352,-1.4352,-1.4352,-1.4352,-1.5085,-1.6186,-1.7528,-1.86,-1.9821,-2.1522,-2.1973,-2.2232,-2.2552,-2.2603,-2.2384,-2.1759,-2.2384,-2.2605,-2.1956,-2.2638,-2.2911,-2.2426,-2.2824,-2.2961,-2.2709,-2.3282,-2.3631,-2.3631,-2.4196,-2.4693,-2.5069,-2.5617,-2.6285,-2.7073,-2.7616,-2.8244,-2.894,-2.9128,-2.9395,-2.9645,-2.9699,-2.9771,-2.9933,-3.0392,-3.0683,-3.0829,-3.124,-3.1377,-3.1451,-3.2056,-3.2404,-3.268,-1.6226,-1.6323,-1.6355,-1.6323,-1.6506,-1.6515,-1.5806,-1.6441,-1.671,-1.5871,-1.6118,-1.6194,-1.5752,-1.5677,-1.5634,-1.5601,-1.5192,-1.4859,-1.4598,-1.4396,-1.4245,-1.4245,-1.4213,-1.4213,-1.4245,-1.4361,-1.4284,-1.4019,-1.3548,-1.3079,-1.2628,-1.2755,-1.2844,-1.2904,-1.3564,-1.4102,-1.4629,-1.4689,-1.5056,-1.558,-1.5285,-1.5128,-1.4912,-1.4663,-1.4587,-1.4587,-1.4587,-1.4794,-1.4988,-1.4955,-1.5106,-1.5242,-1.5242,-1.5242,-1.5285,-1.5537,-1.495,-1.4349,-1.4831,-1.4912,-1.488,-1.488,-1.474,-1.4589,-1.4589,-1.4589,-1.4589,-1.4756,-1.618,-1.7687,-1.8601,-2.0082,-2.1465,-2.2264,-2.2434,-2.2534,-2.2585,-2.2551,-2.2501,-2.2469,-2.2809,-2.3083,-2.2926,-2.3372,-2.3193,-2.1978,-2.3001,-2.3243,-2.2123,-2.3506,-2.4313,-2.4432,-2.4761,-2.5138,-2.5617,-2.6319,-2.6945,-2.7452,-2.7761,-2.848,-2.943,-2.9493,-2.9807,-3.0406,-3.042,-3.0629,-3.0901,-3.0928,-3.112,-3.1377,-3.1377,-3.1377,-3.1469,-3.2294,-3.2588,-3.2716,-1.6093,-1.6396,-1.6549,-1.6344,-1.6506,-1.656,-1.6247,-1.6657,-1.6883,-1.6538,-1.656,-1.6506,-1.6237,-1.6021,-1.5877,-1.5612,-1.5354,-1.5124,-1.5081,-1.4673,-1.4427,-1.4427,-1.4299,-1.4288,-1.4427,-1.4193,-1.4045,-1.4019,-1.3606,-1.3372,-1.3255,-1.347,-1.3564,-1.3564,-1.4212,-1.451,-1.4629,-1.5175,-1.5483,-1.558,-1.5285,-1.5167,-1.5135,-1.5092,-1.5081,-1.5081,-1.5081,-1.5231,-1.5461,-1.5199,-1.5295,-1.5548,-1.5548,-1.5548,-1.5548,-1.5591,-1.5488,-1.5322,-1.5188,-1.5042,-1.488,-1.488,-1.4859,-1.4826,-1.4826,-1.4826,-1.5052,-1.5883,-1.6298,-1.7235,-1.9598,-2.016,-2.0825,-2.2487,-2.2384,-2.2192,-2.2551,-2.2328,-2.2012,-2.169,-2.2497,-2.2856,-2.2241,-2.3101,-2.3749,-2.3773,-2.3713,-2.4005,-2.4743,-2.4718,-2.4962,-2.5594,-2.5429,-2.5771,-2.6799,-2.7227,-2.7916,-2.8939,-2.9309,-2.9857,-3.0635,-3.0938,-3.113,-3.1194,-3.1203,-3.1286,-3.1286,-3.1295,-3.1377,-3.1377,-3.1377,-3.1377,-3.1469,-3.2294,-3.2588,-3.2716,-1.614,-1.642,-1.6688,-1.6517,-1.6689,-1.6721,-1.6366,-1.671,-1.6829,-1.6407,-1.6387,-1.6334,-1.5968,-1.5828,-1.572,-1.5612,-1.5505,-1.5328,-1.5199,-1.4748,-1.448,-1.448,-1.4428,-1.4546,-1.4856,-1.4734,-1.4735,-1.4861,-1.431,-1.4065,-1.4065,-1.4173,-1.4162,-1.4222,-1.4878,-1.5116,-1.5175,-1.5483,-1.5601,-1.5591,-1.5483,-1.5306,-1.5188,-1.5188,-1.5188,-1.5188,-1.5188,-1.5338,-1.558,-1.5472,-1.5505,-1.5601,-1.5601,-1.5601,-1.5601,-1.5601,-1.5601,-1.558,-1.5472,-1.5354,-1.5268,-1.5268,-1.5171,-1.5189,-1.5704,-1.5418,-1.5475,-1.6932,-1.761,-1.8534,-2.0599,-2.1276,-2.1991,-2.3332,-2.2877,-2.2465,-2.2809,-2.2706,-2.252,-2.2393,-2.3144,-2.3572,-2.3241,-2.4077,-2.4353,-2.3679,-2.4411,-2.4738,-2.4473,-2.5053,-2.5669,-2.6217,-2.6268,-2.6628,-2.7347,-2.7909,-2.8581,-2.9282,-2.9648,-3.0163,-3.0879,-3.1055,-3.1249,-3.1377,-3.1377,-3.1377,-3.1377,-3.1377,-3.1377,-3.1377,-3.1377,-3.1506,-3.1781,-3.2368,-3.2735,-3.301,-1.6269,-1.6506,-1.6678,-1.6732,-1.6883,-1.685,-1.6387,-1.6667,-1.6689,-1.6093,-1.6161,-1.6151,-1.5731,-1.5677,-1.5655,-1.5601,-1.5601,-1.5505,-1.521,-1.4845,-1.462,-1.4622,-1.462,-1.4813,-1.5188,-1.5242,-1.5418,-1.5601,-1.5056,-1.4808,-1.4808,-1.4808,-1.4808,-1.4867,-1.5353,-1.5601,-1.5601,-1.5601,-1.5601,-1.5601,-1.5601,-1.5494,-1.5274,-1.5274,-1.5274,-1.5274,-1.5274,-1.5451,-1.5601,-1.5601,-1.5601,-1.5601,-1.5601,-1.5601,-1.5601,-1.5601,-1.5601,-1.5601,-1.5601,-1.5601,-1.5601,-1.5601,-1.5461,-1.5565,-1.6472,-1.6136,-1.6182,-1.8243,-1.9145,-2.0157,-2.1813,-2.2537,-2.3174,-2.3968,-2.3306,-2.2826,-2.3066,-2.3186,-2.3306,-2.3494,-2.4093,-2.4538,-2.4569,-2.5155,-2.502,-2.3853,-2.5067,-2.5435,-2.4407,-2.5427,-2.6268,-2.673,-2.7039,-2.7415,-2.7878,-2.8546,-2.9084,-2.9532,-2.9917,-3.038,-3.1009,-3.1009,-3.1138,-3.1377,-3.1377,-3.1377,-3.1377,-3.1377,-3.1377,-3.1377,-3.1377,-3.1634,-3.2056,-3.2441,-3.2863,-3.3285,-1.6269,-1.6506,-1.6732,-1.6937,-1.699,-1.685,-1.6387,-1.6527,-1.6569,-1.6072,-1.6161,-1.6215,-1.6007,-1.5985,-1.5899,-1.5623,-1.5601,-1.5505,-1.521,-1.5156,-1.5095,-1.4869,-1.5074,-1.5156,-1.5188,-1.5461,-1.558,-1.5601,-1.5542,-1.5542,-1.5542,-1.5542,-1.5542,-1.5542,-1.5601,-1.5601,-1.5601,-1.5601,-1.5601,-1.5601,-1.5601,-1.5591,-1.5569,-1.5569,-1.5569,-1.5569,-1.5569,-1.558,-1.5601,-1.5601,-1.5601,-1.5601,-1.5601,-1.5601,-1.5601,-1.5601,-1.5601,-1.5601,-1.5601,-1.5601,-1.5601,-1.5601,-1.5591,-1.5806,-1.6738,-1.6915,-1.7547,-2.0014,-2.0558,-2.1259,-2.3328,-2.3464,-2.3374,-2.3698,-2.3357,-2.3083,-2.3117,-2.3408,-2.3888,-2.4607,-2.5052,-2.5429,-2.5714,-2.5799,-2.5833,-2.5683,-2.585,-2.6021,-2.627,-2.638,-2.6782,-2.7501,-2.7552,-2.7929,-2.8682,-2.9084,-2.9614,-3.0325,-3.0649,-3.1037,-3.1377,-3.1377,-3.1377,-3.1377,-3.1377,-3.1377,-3.1377,-3.1377,-3.1377,-3.1377,-3.1377,-3.1634,-3.2056,-3.2441,-3.2863,-3.3285,-1.6269,-1.6506,-1.6732,-1.6969,-1.6883,-1.6732,-1.656,-1.6484,-1.6323,-1.605,-1.6093,-1.6,-1.5763,-1.5731,-1.5698,-1.5612,-1.6124,-1.6433,-1.6342,-1.6856,-1.6565,-1.5174,-1.5343,-1.5461,-1.5461,-1.5548,-1.5601,-1.5601,-1.6183,-1.6467,-1.6478,-1.7056,-1.7349,-1.7349,-1.7349,-1.7349,-1.7349,-1.7349,-1.6997,-1.6467,-1.6467,-1.6124,-1.5601,-1.5601,-1.5601,-1.5601,-1.5601,-1.5601,-1.5601,-1.5601,-1.5601,-1.5709,-1.6301,-1.6065,-1.5601,-1.5601,-1.6005,-1.6467,-1.6467,-1.6065,-1.5601,-1.5601,-1.6065,-1.6703,-1.763,-1.8144,-1.9016,-2.1102,-2.1714,-2.2225,-2.3624,-2.3883,-2.406,-2.4675,-2.4213,-2.3973,-2.4453,-2.4679,-2.4885,-2.5121,-2.5497,-2.5771,-2.5867,-2.6148,-2.6285,-2.6285,-2.6508,-2.6696,-2.685,-2.7056,-2.7535,-2.8306,-2.834,-2.8477,-2.8785,-2.959,-3.0089,-3.0443,-3.0944,-3.1249,-3.1377,-3.1377,-3.1377,-3.1377,-3.1377,-3.1377,-3.1377,-3.1377,-3.1377,-3.1377,-3.1377,-3.1781,-3.2386,-3.2533,-3.301,-3.3615,-1.6151,-1.6334,-1.6517,-1.6743,-1.6657,-1.6527,-1.6515,-1.6301,-1.6118,-1.5931,-1.5899,-1.5774,-1.5612,-1.5601,-1.572,-1.6005,-1.6644,-1.7114,-1.7396,-1.804,-1.7732,-1.6286,-1.6376,-1.6478,-1.6478,-1.6478,-1.6478,-1.6478,-1.7114,-1.7455,-1.7455,-1.8098,-1.8389,-1.8389,-1.8389,-1.8389,-1.8389,-1.8389,-1.804,-1.7455,-1.7455,-1.6879,-1.6065,-1.6065,-1.5828,-1.5601,-1.5601,-1.5601,-1.5601,-1.5601,-1.5601,-1.5769,-1.6703,-1.6762,-1.6478,-1.6478,-1.6938,-1.7455,-1.7455,-1.6997,-1.6478,-1.6478,-1.7103,-1.7981,-1.89,-1.9662,-2.0715,-2.2482,-2.3058,-2.352,-2.4364,-2.4614,-2.4898,-2.5309,-2.5035,-2.4915,-2.5309,-2.5566,-2.5686,-2.5566,-2.5994,-2.6251,-2.6131,-2.6456,-2.6679,-2.6679,-2.6919,-2.7124,-2.7227,-2.771,-2.8209,-2.8768,-2.9017,-2.9133,-2.9133,-2.9977,-3.0378,-3.0443,-3.12,-3.1506,-3.1396,-3.1634,-3.1689,-3.1579,-3.1708,-3.1763,-3.1763,-3.1763,-3.1689,-3.1579,-3.1708,-3.2093,-3.2606,-3.2735,-3.323,-3.3817,-1.5963,-1.6007,-1.6093,-1.6269,-1.6312,-1.6237,-1.605,-1.6007,-1.592,-1.5623,-1.5601,-1.5601,-1.5601,-1.5601,-1.6005,-1.6938,-1.6997,-1.7396,-1.8389,-1.8448,-1.8448,-1.8448,-1.8389,-1.8389,-1.8389,-1.8389,-1.8389,-1.8389,-1.8389,-1.8389,-1.8389,-1.8448,-1.8448,-1.8448,-1.8448,-1.8448,-1.8448,-1.8448,-1.8448,-1.8389,-1.8389,-1.7864,-1.6997,-1.6997,-1.6408,-1.5601,-1.5601,-1.5601,-1.5601,-1.5601,-1.5601,-1.5779,-1.6703,-1.763,-1.8389,-1.8389,-1.8389,-1.8389,-1.8389,-1.8448,-1.8448,-1.8389,-1.8842,-1.9581,-2.0515,-2.1509,-2.269,-2.422,-2.4804,-2.5169,-2.5768,-2.5885,-2.5823,-2.5446,-2.5686,-2.5806,-2.5429,-2.6028,-2.6354,-2.5936,-2.661,-2.6919,-2.6525,-2.685,-2.7073,-2.7073,-2.7073,-2.7244,-2.7604,-2.8276,-2.8737,-2.8832,-2.9436,-2.9805,-2.9822,-3.0165,-3.0378,-3.0443,-3.1491,-3.1799,-3.1414,-3.2221,-3.2386,-3.2038,-3.2423,-3.2588,-3.2588,-3.2588,-3.2368,-3.2056,-3.2441,-3.2588,-3.2643,-3.3065,-3.3468,-3.3817,-1.5963,-1.6086,-1.6226,-1.6301,-1.6312,-1.6237,-1.605,-1.5866,-1.5677,-1.5612,-1.5601,-1.5828,-1.6526,-1.6585,-1.6938,-1.7923,-1.8577,-1.9345,-2.0328,-2.0385,-2.0484,-2.0709,-1.9206,-1.8389,-1.8389,-1.8389,-1.8389,-1.8389,-1.9042,-1.9403,-1.939,-2.004,-2.0498,-2.0709,-2.0484,-2.0512,-2.0695,-2.0484,-1.9982,-1.9403,-1.9403,-1.881,-1.7981,-1.7981,-1.7408,-1.6585,-1.6585,-1.6183,-1.5601,-1.5601,-1.6065,-1.6762,-1.7689,-1.8823,-1.9626,-1.8919,-1.9358,-2.0053,-2.0053,-2.0886,-2.1246,-1.9457,-1.986,-2.09,-2.1597,-2.303,-2.4289,-2.4771,-2.5277,-2.5693,-2.5885,-2.5885,-2.5977,-2.6131,-2.6028,-2.608,-2.6508,-2.6525,-2.6542,-2.6713,-2.6936,-2.7021,-2.6919,-2.7004,-2.7176,-2.7432,-2.7937,-2.839,-2.8772,-2.9211,-2.9456,-2.9518,-2.9687,-2.9813,-2.9843,-3.0505,-3.09,-3.1181,-3.2041,-3.2349,-3.2239,-3.2478,-3.2533,-3.2423,-3.2551,-3.2588,-3.2588,-3.2588,-3.2533,-3.2423,-3.2551,-3.2771,-3.3046,-3.3175,-3.3468,-3.3817,-1.5785,-1.5924,-1.6032,-1.6032,-1.6032,-1.5978,-1.5838,-1.5688,-1.5601,-1.5601,-1.5946,-1.636,-1.6938,-1.7433,-1.8105,-1.8881,-1.9918,-2.0872,-2.1525,-2.1598,-2.1686,-2.1876,-2.0614,-1.9861,-1.9681,-1.956,-1.9506,-1.9506,-2.0097,-2.0342,-2.0399,-2.0917,-2.1379,-2.1686,-2.135,-2.1393,-2.1672,-2.135,-2.0859,-2.0342,-2.0342,-1.9809,-1.8926,-1.8564,-1.7806,-1.695,-1.6699,-1.6439,-1.6194,-1.6306,-1.7091,-1.824,-1.8927,-1.992,-2.0746,-2.0337,-2.0907,-2.1706,-2.1706,-2.2558,-2.3163,-2.1861,-2.2139,-2.2831,-2.324,-2.4519,-2.5562,-2.5562,-2.5974,-2.6388,-2.6388,-2.6388,-2.6456,-2.6679,-2.6525,-2.6542,-2.7004,-2.6867,-2.6747,-2.6833,-2.6987,-2.7073,-2.7073,-2.7193,-2.7432,-2.7809,-2.8362,-2.8846,-2.9247,-2.9648,-2.9807,-2.9805,-2.9805,-2.9882,-3.0081,-3.0688,-3.1176,-3.1527,-3.2211,-3.2588,-3.2606,-3.2771,-3.2777,-3.2642,-3.2942,-3.3015,-3.2879,-3.3015,-3.2991,-3.2863,-3.301,-3.3138,-3.3248,-3.3395,-3.3615,-3.3817,-1.592,-1.5882,-1.5953,-1.5953,-1.5975,-1.5986,-1.5964,-1.5931,-1.5861,-1.5861,-1.6608,-1.7173,-1.7256,-1.8302,-1.9312,-1.9976,-2.1102,-2.1862,-2.2169,-2.2184,-2.2198,-2.2228,-2.2198,-2.2052,-2.1789,-2.1437,-2.1233,-2.1203,-2.1203,-2.1233,-2.1247,-2.1218,-2.1393,-2.173,-2.1393,-2.1437,-2.1715,-2.1393,-2.1247,-2.1247,-2.1218,-2.0687,-1.9822,-1.901,-1.8135,-1.7233,-1.6665,-1.6777,-1.7244,-1.7613,-1.8716,-2.002,-2.0427,-2.1142,-2.1832,-2.22,-2.2767,-2.3184,-2.3244,-2.3779,-2.4386,-2.4975,-2.5152,-2.521,-2.516,-2.5856,-2.6542,-2.6542,-2.6833,-2.7073,-2.7073,-2.7073,-2.709,-2.7124,-2.7073,-2.7116,-2.7168,-2.715,-2.7013,-2.6747,-2.7056,-2.7297,-2.7236,-2.7562,-2.7923,-2.8346,-2.8633,-2.8996,-2.9363,-2.9701,-2.9842,-2.9805,-2.9839,-3.0066,-3.04,-3.0833,-3.1228,-3.1584,-3.2344,-3.2698,-3.2716,-3.3101,-3.3061,-3.277,-3.3513,-3.3608,-3.3348,-3.3678,-3.3596,-3.3321,-3.367,-3.3596,-3.3321,-3.367,-3.3817,-3.3817,-1.8148,-1.8311,-1.8458,-1.8567,-1.8692,-1.8766,-1.8604,-1.8321,-1.8185,-1.8185,-1.8118,-1.8478,-1.9463,-1.9838,-2.0433,-2.1594,-2.1918,-2.2111,-2.2184,-2.2184,-2.2286,-2.252,-2.2301,-2.2257,-2.2418,-2.1876,-2.1467,-2.1203,-2.1203,-2.1335,-2.1584,-2.132,-2.1525,-2.2067,-2.173,-2.1774,-2.2052,-2.173,-2.1584,-2.1569,-2.1306,-2.1089,-2.0888,-2.0958,-2.0386,-1.9588,-1.97,-1.9202,-1.8673,-2.0028,-2.0648,-2.1058,-2.2157,-2.2453,-2.2493,-2.3112,-2.3566,-2.4009,-2.4499,-2.5169,-2.5715,-2.5836,-2.6275,-2.6568,-2.6262,-2.6602,-2.6953,-2.6953,-2.7021,-2.7073,-2.7073,-2.7073,-2.7176,-2.745,-2.7004,-2.6936,-2.7783,-2.767,-2.7686,-2.8061,-2.8509,-2.8632,-2.8365,-2.8731,-2.9055,-2.9443,-2.9807,-3.0083,-3.0172,-3.0236,-3.0142,-2.9805,-3.0118,-3.0333,-3.0377,-3.1097,-3.1769,-3.2384,-3.2914,-3.3284,-3.356,-3.3651,-3.3619,-3.355,-3.3692,-3.3747,-3.3678,-3.3747,-3.3762,-3.3688,-3.378,-3.3762,-3.3688,-3.378,-3.3817,-3.3817,-1.8818,-1.8996,-1.9137,-1.9338,-1.9479,-1.9491,-1.9197,-1.9031,-1.8818,-1.869,-1.9063,-1.9586,-2.0219,-2.097,-2.1701,-2.2532,-2.2623,-2.2623,-2.2623,-2.2623,-2.2696,-2.2842,-2.271,-2.2623,-2.2623,-2.2169,-2.1847,-2.1672,-2.1672,-2.1759,-2.192,-2.1759,-2.1935,-2.2374,-2.2067,-2.2096,-2.2374,-2.2067,-2.1832,-2.1686,-2.1511,-2.1437,-2.1394,-2.1145,-2.0816,-2.0493,-2.0307,-2.0307,-2.0629,-2.2157,-2.2583,-2.2761,-2.3588,-2.37,-2.3627,-2.4161,-2.4654,-2.5149,-2.5472,-2.6083,-2.6571,-2.6571,-2.6949,-2.7227,-2.685,-2.7056,-2.733,-2.733,-2.7484,-2.7604,-2.7604,-2.7604,-2.7734,-2.8092,-2.7798,-2.78,-2.8509,-2.8465,-2.8474,-2.8853,-2.9066,-2.9198,-2.9249,-2.9602,-2.98,-2.9784,-3.0153,-3.0294,-3.01,-3.01,-3.0105,-3.0101,-3.0111,-3.0357,-3.0703,-3.1116,-3.1652,-3.2364,-3.2608,-3.3011,-3.3539,-3.3339,-3.3339,-3.3539,-3.3747,-3.3747,-3.3539,-3.3747,-3.3817,-3.3817,-3.3817,-3.3817,-3.3817,-3.3817,-3.3817,-3.3817,-1.943,-1.9522,-1.964,-2.0111,-2.0225,-2.0146,-1.9967,-1.9933,-1.9754,-1.9514,-2.0296,-2.0979,-2.1036,-2.2268,-2.321,-2.3352,-2.3425,-2.3407,-2.3281,-2.3348,-2.3381,-2.3381,-2.3322,-2.3175,-2.2833,-2.2522,-2.2286,-2.2184,-2.2125,-2.2154,-2.2257,-2.2213,-2.2345,-2.2608,-2.2374,-2.2389,-2.2608,-2.2359,-2.2096,-2.1847,-2.1803,-2.1789,-2.173,-2.0977,-2.0847,-2.105,-2.0615,-2.1423,-2.2854,-2.3992,-2.437,-2.4391,-2.4743,-2.4827,-2.4862,-2.5162,-2.5704,-2.6211,-2.6283,-2.6743,-2.7176,-2.7176,-2.7432,-2.7621,-2.733,-2.7501,-2.7706,-2.7706,-2.7963,-2.8186,-2.8186,-2.8249,-2.8392,-2.8776,-2.8787,-2.8957,-2.9341,-2.9359,-2.944,-2.9574,-2.9636,-2.9814,-3.0127,-3.0495,-3.0579,-3.0228,-3.046,-3.0429,-3.0031,-2.9948,-3.0038,-3.0368,-3.0187,-3.0395,-3.1011,-3.1148,-3.1564,-3.221,-3.2245,-3.2681,-3.3368,-3.3008,-3.3095,-3.3508,-3.3769,-3.3733,-3.3418,-3.3678,-3.3853,-3.3908,-3.3835,-3.389,-3.4018,-3.3945,-3.3802,-3.3747,-2.168,-2.1953,-2.241,-2.3286,-2.3469,-2.3639,-2.4147,-2.4022,-2.3805,-2.3758,-2.366,-2.3673,-2.3985,-2.4748,-2.5062,-2.448,-2.4738,-2.4649,-2.4019,-2.4265,-2.4417,-2.4417,-2.4143,-2.3961,-2.3915,-2.3313,-2.2725,-2.2184,-2.1906,-2.2037,-2.2564,-2.2301,-2.2345,-2.2623,-2.2579,-2.2593,-2.2623,-2.2579,-2.2535,-2.2476,-2.2213,-2.2125,-2.214,-2.2268,-2.2338,-2.2471,-2.3239,-2.4147,-2.5103,-2.5294,-2.5337,-2.5343,-2.5764,-2.5724,-2.5608,-2.5905,-2.6236,-2.6603,-2.6915,-2.7234,-2.7535,-2.7535,-2.7826,-2.81,-2.8049,-2.8083,-2.8117,-2.8117,-2.8152,-2.8186,-2.8186,-2.8438,-2.8794,-2.9142,-2.9168,-2.9377,-3.0049,-3.0149,-3.0402,-3.102,-3.148,-3.1703,-3.1676,-3.1794,-3.1828,-3.1689,-3.1474,-3.1223,-3.085,-3.0495,-3.036,-3.0428,-3.0686,-3.0909,-3.1011,-3.1662,-3.2148,-3.2628,-3.2979,-3.3392,-3.3836,-3.3782,-3.3923,-3.426,-3.433,-3.4128,-3.3747,-3.3817,-3.4018,-3.4293,-3.3945,-3.4238,-3.4825,-3.4458,-3.39,-3.34,-2.2125,-2.272,-2.3337,-2.3993,-2.4425,-2.4671,-2.4788,-2.469,-2.4515,-2.4368,-2.4384,-2.4464,-2.4563,-2.5373,-2.5786,-2.5532,-2.5845,-2.5841,-2.5316,-2.5248,-2.5235,-2.5235,-2.4859,-2.4672,-2.4672,-2.4178,-2.3902,-2.381,-2.2914,-2.2623,-2.2886,-2.2769,-2.2769,-2.2901,-2.2901,-2.2901,-2.2901,-2.2901,-2.2784,-2.2608,-2.2476,-2.2432,-2.2447,-2.2579,-2.274,-2.3039,-2.424,-2.5192,-2.5896,-2.6335,-2.653,-2.6716,-2.6884,-2.7001,-2.7144,-2.7243,-2.7373,-2.752,-2.7679,-2.7809,-2.7929,-2.7929,-2.8237,-2.8528,-2.8528,-2.8682,-2.8768,-2.8563,-2.8682,-2.8884,-2.906,-2.9188,-2.9497,-3.0077,-3.0341,-3.0617,-3.0883,-3.113,-3.1348,-3.1726,-3.2125,-3.2399,-3.2349,-3.2362,-3.2286,-3.2088,-3.193,-3.1625,-3.1007,-3.0837,-3.0736,-3.0754,-3.1133,-3.1461,-3.1582,-3.2157,-3.2648,-3.3055,-3.302,-3.3411,-3.4252,-3.4252,-3.4395,-3.4752,-3.4752,-3.4513,-3.4165,-3.4403,-3.433,-3.4073,-3.4128,-3.422,-3.426,-3.3936,-3.3544,-3.3278]},{"header":{"parameterUnit":"m.s-1","parameterCategory":1,"la1":30.6,"la2":28.766,"lo1":-90.7593,"lo2":-88.6598,"dx":0.0162,"dy":0.0183,"nx":116,"ny":114,"refTime":"2023-02-05T06:00:00:Z","depth":0,"parameterNumber":3,"parameterNumberName":"V-component_of_WINDS"},"data":[0.0,0.0,0.0,0.0,0.0,0.0,0.0,0.0,0.0,0.0,0.0,0.0,0.0,0.0,0.0,0.0,0.0,0.0,0.0,0.0,0.0,0.0,0.0,0.0,0.0,0.0,0.0,0.0,0.0,0.0,0.0,0.0,0.0,0.0,0.0,0.0,0.0,0.0,0.0,0.0,0.0,0.0,0.0,0.0,0.0,0.0,0.0,0.0,0.0,0.0,0.0,0.0,0.0,0.0,0.0,0.0,0.0,0.0,0.0,0.0,0.0,0.0,0.0,0.0,0.0,0.0,0.0,0.0,0.0,0.0,0.0,0.0,0.0,0.0,0.0,0.0,0.0,0.0,0.0,0.0,0.0,0.0,0.0,0.0,0.0,0.0,0.0,0.0,0.0,0.0,0.0,0.0,0.0,0.0,0.0,0.0,0.0,0.0,0.0,0.0,0.0,0.0,0.0,0.0,0.0,0.0,0.0,0.0,0.0,0.0,0.0,0.0,0.0,0.0,0.0,0.0,0.0,0.0,0.0,0.0,0.0,0.0,0.0,0.0,0.0,0.0,0.0,0.0,0.0,0.0,0.0,0.0,0.0,0.0,0.0,0.0,0.0,0.0,0.0,0.0,0.0,0.0,0.0,0.0,0.0,0.0,0.0,0.0,0.0,0.0,0.0,0.0,0.0,0.0,0.0,0.0,0.0,0.0,0.0,0.0,0.0,0.0,0.0,0.0,0.0,0.0,0.0,0.0,0.0,0.0,0.0,0.0,0.0,0.0,0.0,0.0,0.0,0.0,0.0,0.0,0.0,0.0,0.0,0.0,0.0,0.0,0.0,0.0,0.0,0.0,0.0,0.0,0.0,0.0,0.0,0.0,0.0,0.0,0.0,0.0,0.0,0.0,0.0,0.0,0.0,0.0,0.0,0.0,0.0,0.0,0.0,0.0,0.0,0.0,0.0,0.0,0.0,0.0,0.0,0.0,0.0,0.0,0.0,0.0,0.0,0.0,0.0,0.0,0.0,0.0,0.0,0.0,0.0,0.0,0.0,0.0,0.0,0.0,0.0,0.0,0.0,0.0,0.0,0.0,0.0,0.0,0.0,0.0,0.0,0.0,0.0,0.0,0.0,0.0,0.0,0.0,0.0,0.0,0.0,0.0,0.0,0.0,0.0,0.0,0.0,0.0,0.0,0.0,0.0,0.0,0.0,0.0,0.0,0.0,0.0,0.0,0.0,0.0,0.0,0.0,0.0,0.0,0.0,0.0,0.0,0.0,0.0,0.0,0.0,0.0,0.0,0.0,0.0,0.0,0.0,0.0,0.0,0.0,0.0,0.0,0.0,0.0,0.0,0.0,0.0,0.0,0.0,0.0,0.0,0.0,0.0,0.0,0.0,0.0,0.0,0.0,0.0,0.0,0.0,0.0,0.0,0.0,0.0,0.0,0.0,0.0,0.0,0.0,0.0,0.0,0.0,0.0,0.0,0.0,0.0,0.0,0.0,0.0,0.0,0.0,0.0,0.0,0.0,0.0,0.0,0.0,0.0,0.0,0.0,0.0,0.0,0.0,0.0,0.0,0.0,0.0,0.0,0.0,0.0,0.0,0.0,0.0,0.0,0.0,0.0,0.0,0.0,0.0,0.0,0.0,0.0,0.0,0.0,0.0,0.0,0.0,0.0,0.0,0.0,0.0,0.0,0.0,0.0,0.0,0.0,0.0,0.0,0.0,0.0,0.0,0.0,0.0,0.0,0.0,0.0,0.0,0.0,0.0,0.0,0.0,0.0,0.0,0.0,0.0,0.0,0.0,0.0,0.0,0.0,0.0,0.0,0.0,0.0,0.0,0.0,0.0,0.0,0.0,0.0,0.0,0.0,0.0,0.0,0.0,0.0,0.0,0.0,0.0,0.0,0.0,0.0,0.0,0.0,0.0,0.0,0.0,0.0,0.0,0.0,0.0,0.0,0.0,0.0,0.0,0.0,0.0,0.0,0.0,0.0,0.0,0.0,0.0,0.0,0.0,0.0,0.0,0.0,0.0,0.0,0.0,0.0,0.0,0.0,0.0,0.0,0.0,0.0,0.0,0.0,0.0,0.0,0.0,0.0,0.0,0.0,0.0,0.0,0.0,0.0,0.0,0.0,0.0,0.0,0.0,0.0,0.0,0.0,0.0,0.0,0.0,0.0,0.0,0.0,0.0,0.0,0.0,0.0,0.0,0.0,0.0,0.0,0.0,0.0,0.0,0.0,0.0,0.0,0.0,0.0,0.0,0.0,0.0,0.0,0.0,0.0,0.0,0.0,0.0,0.0,0.0,0.0,0.0,0.0,0.0,0.0,0.0,0.0,0.0,0.0,0.0,0.0,0.0,0.0,0.0,0.0,0.0,0.0,0.0,0.0,0.0,0.0,0.0,0.0,0.0,0.0,0.0,0.0,0.0,0.0,0.0,0.0,0.0,0.0,0.0,0.0,0.0,0.0,0.0,0.0,0.0,0.0,0.0,0.0,0.0,0.0,0.0,0.0,0.0,0.0,0.0,0.0,0.0,0.0,0.0,0.0,0.0,0.0,0.0,0.0,0.0,0.0,0.0,0.0,0.0,0.0,0.0,0.0,0.0,0.0,0.0,0.0,0.0,0.0,0.0,0.0,0.0,0.0,0.0,0.0,0.0,0.0,0.0,0.0,0.0,0.0,0.0,0.0,0.0,0.0,0.0,0.0,0.0,0.0,0.0,0.0,0.0,0.0,0.0,0.0,0.0,0.0,0.0,0.0,0.0,0.0,0.0,0.0,0.0,0.0,0.0,0.0,0.0,0.0,0.0,0.0,0.0,0.0,0.0,0.0,0.0,0.0,0.0,0.0,0.0,0.0,0.0,0.0,0.0,0.0,0.0,0.0,0.0,0.0,0.0,0.0,0.0,0.0,0.0,0.0,0.0,0.0,0.0,0.0,0.0,0.0,0.0,0.0,0.0,0.0,0.0,0.0,0.0,0.0,0.0,0.0,0.0,0.0,0.0,0.0,0.0,0.0,0.0,0.0,0.0,0.0,0.0,0.0,0.0,0.0,0.0,0.0,0.0,0.0,0.0,0.0,0.0,0.0,0.0,0.0,0.0,0.0,0.0,0.0,0.0,0.0,0.0,0.0,0.0,0.0,0.0,0.0,0.0,0.0,0.0,0.0,0.0,0.0,0.0,0.0,0.0,0.0,0.0,0.0,0.0,0.0,0.0,0.0,0.0,0.0,0.0,0.0,0.0,0.0,0.0,0.0,0.0,0.0,0.0,0.0,0.0,0.0,0.0,0.0,0.0,0.0,0.0,0.0,0.0,0.0,0.0,0.0,0.0,0.0,0.0,0.0,0.0,0.0,0.0,0.0,0.0,0.0,0.0,0.0,0.0,0.0,0.0,0.0,0.0,0.0,0.0,0.0,0.0,0.0,0.0,0.0,0.0,0.0,0.0,0.0,0.0,0.0,0.0,0.0,0.0,0.0,0.0,0.0,0.0,0.0,0.0,0.0,0.0,0.0,0.0,0.0,0.0,0.0,0.0,0.0,0.0,0.0,0.0,0.0,0.0,0.0,0.0,0.0,0.0,0.0,0.0,0.0,0.0,0.0,0.0,0.0,0.0,0.0,0.0,0.0,0.0,0.0,0.0,0.0,0.0,0.0,0.0,0.0,0.0,0.0,0.0,0.0,0.0,0.0,0.0,0.0,0.0,0.0,0.0,0.0,0.0,0.0,0.0,0.0,0.0,0.0,0.0,0.0,0.0,0.0,0.0,0.0,0.0,0.0,0.0,0.0,0.0,0.0,0.0,0.0,0.0,0.0,0.0,0.0,0.0,0.0,0.0,0.0,0.0,0.0,0.0,0.0,0.0,0.0,0.0,0.0,0.0,0.0,0.0,0.0,0.0,0.0,0.0,0.0,0.0,0.0,0.0,0.0,0.0,0.0,0.0,0.0,0.0,0.0,0.0,0.0,0.0,0.0,0.0,0.0,0.0,0.0,0.0,0.0,0.0,0.0,0.0,0.0,0.0,0.0,0.0,0.0,0.0,0.0,0.0,0.0,0.0,0.0,0.0,0.0,0.0,0.0,0.0,0.0,0.0,0.0,0.0,0.0,0.0,0.0,0.0,0.0,0.0,0.0,0.0,0.0,0.0,0.0,0.0,0.0,0.0,0.0,0.0,0.0,0.0,0.0,0.0,0.0,0.0,0.0,0.0,0.0,0.0,0.0,0.0,0.0,0.0,0.0,0.0,0.0,0.0,0.0,0.0,0.0,0.0,0.0,0.0,0.0,0.0,0.0,0.0,0.0,0.0,0.0,0.0,0.0,0.0,0.0,0.0,0.0,0.0,0.0,0.0,0.0,0.0,0.0,0.0,0.0,0.0,0.0,0.0,0.0,0.0,0.0,0.0,0.0,0.0,0.0,0.0,0.0,0.0,0.0,0.0,0.0,0.0,0.0,0.0,0.0,0.0,0.0,0.0,0.0,0.0,0.0,0.0,0.0,0.0,0.0,0.0,0.0,0.0,0.0,0.0,0.0,0.0,0.0,0.0,0.0,0.0,0.0,0.0,0.0,0.0,0.0,0.0,0.0,0.0,0.0,0.0,0.0,0.0,0.0,0.0,0.0,0.0,0.0,0.0,0.0,0.0,0.0,0.0,0.0,0.0,0.0,0.0,0.0,0.0,0.0,0.0,0.0,0.0,0.0,0.0,0.0,0.0,0.0,0.0,0.0,0.0,0.0,0.0,0.0,0.0,0.0,0.0,0.0,0.0,0.0,0.0,0.0,0.0,0.0,0.0,0.0,0.0,0.0,0.0,0.0,0.0,0.0,0.0,0.0,0.0,0.0,0.0,0.0,0.0,0.0,0.0,0.0,0.0,0.0,0.0,0.0,0.0,0.0,0.0,0.0,0.0,0.0,0.0,0.0,0.0,0.0,0.0,0.0,0.0,0.0,0.0,0.0,0.0,0.0,0.0,0.0,0.0,0.0,0.0,0.0,0.0,0.0,0.0,0.0,0.0,0.0,0.0,0.0,0.0,0.0,0.0,0.0,0.0,0.0,0.0,0.0,0.0,0.0,0.0,0.0,0.0,0.0,0.0,0.0,0.0,0.0,0.0,0.0,0.0,0.0,0.0,0.0,0.0,0.0,0.0,0.0,0.0,0.0,0.0,0.0,0.0,0.0,0.0,0.0,0.0,0.0,0.0,0.0,0.0,0.0,0.0,0.0,0.0,0.0,0.0,0.0,0.0,0.0,0.0,0.0,0.0,0.0,0.0,0.0,0.0,0.0,0.0,0.0,0.0,0.0,0.0,0.0,0.0,0.0,0.0,0.0,0.0,0.0,0.0,0.0,0.0,0.0,0.0,0.0,0.0,0.0,0.0,0.0,0.0,0.0,0.0,0.0,0.0,0.0,0.0,0.0,0.0,0.0,0.0,0.0,0.0,0.0,0.0,0.0,0.0,0.0,0.0,0.0,0.0,0.0,0.0,0.0,0.0,0.0,0.0,0.0,0.0,0.0,0.0,0.0,0.0,0.0,0.0,0.0,0.0,0.0,0.0,0.0,0.0,0.0,0.0,0.0,0.0,0.0,0.0,0.0,0.0,0.0,0.0,0.0,0.0,0.0,0.0,0.0,0.0,0.0,0.0,0.0,0.0,0.0,0.0,0.0,0.0,0.0,0.0,0.0,0.0,0.0,0.0,0.0,0.0,0.0,0.0,0.0,0.0,0.0,0.0,0.0,0.0,0.0,0.0,0.0,0.0,0.0,0.0,0.0,0.0,0.0,0.0,0.0,0.0,0.0,0.0,0.0,0.0,0.0,0.0,0.0,0.0,0.0,0.0,0.0,0.0,0.0,0.0,0.0,0.0,0.0,0.0,0.0,0.0,0.0,0.0,0.0,0.0,0.0,0.0,0.0,0.0,0.0,0.0,0.0,0.0,0.0,0.0,0.0,0.0,0.0,0.0,0.0,0.0,0.0,0.0,0.0,0.0,0.0,0.0,0.0,0.0,0.0,0.0,0.0,0.0,0.0,0.0,0.0,0.0,0.0,0.0,0.0,0.0,0.0,0.0,0.0,0.0,0.0,0.0,0.0,0.0,0.0,0.0,0.0,0.0,2.8449,2.8248,0.0,0.0,0.0,0.0,0.0,0.0,0.0,0.0,0.0,0.0,0.0,0.0,0.0,0.0,0.0,0.0,0.0,0.0,0.0,0.0,0.0,0.0,0.0,0.0,0.0,0.0,0.0,0.0,0.0,0.0,0.0,0.0,0.0,0.0,0.0,0.0,0.0,0.0,0.0,0.0,0.0,0.0,0.0,0.0,0.0,0.0,0.0,0.0,0.0,0.0,0.0,0.0,0.0,0.0,0.0,0.0,0.0,0.0,0.0,0.0,0.0,0.0,0.0,0.0,0.0,0.0,0.0,0.0,0.0,0.0,0.0,0.0,0.0,0.0,0.0,0.0,0.0,0.0,0.0,0.0,0.0,0.0,0.0,0.0,0.0,0.0,0.0,0.0,0.0,0.0,0.0,0.0,0.0,0.0,0.0,0.0,0.0,0.0,0.0,0.0,0.0,0.0,0.0,0.0,0.0,0.0,0.0,0.0,0.0,0.0,0.0,0.0,0.0,0.0,3.1476,3.0566,0.0,0.0,0.0,0.0,0.0,0.0,0.0,0.0,0.0,0.0,0.0,0.0,0.0,0.0,0.0,0.0,0.0,0.0,0.0,0.0,0.0,0.0,0.0,0.0,0.0,0.0,0.0,0.0,0.0,0.0,0.0,0.0,0.0,0.0,0.0,0.0,0.0,0.0,0.0,0.0,0.0,0.0,0.0,0.0,0.0,0.0,0.0,0.0,0.0,0.0,0.0,0.0,0.0,0.0,0.0,0.0,0.0,0.0,0.0,0.0,0.0,0.0,0.0,0.0,0.0,0.0,0.0,0.0,0.0,0.0,0.0,0.0,0.0,0.0,0.0,0.0,0.0,0.0,0.0,0.0,0.0,0.0,0.0,0.0,0.0,0.0,0.0,0.0,0.0,0.0,0.0,0.0,0.0,0.0,0.0,0.0,0.0,0.0,0.0,0.0,0.0,0.0,0.0,0.0,0.0,0.0,0.0,0.0,3.9007,3.8971,3.9963,3.8659,3.7415,3.6107,3.4754,3.3254,3.1799,3.2158,0.0,0.0,0.0,0.0,0.0,0.0,0.0,0.0,0.0,0.0,0.0,0.0,0.0,0.0,0.0,0.0,0.0,0.0,0.0,0.0,0.0,0.0,0.0,0.0,0.0,0.0,0.0,0.0,0.0,0.0,0.0,0.0,0.0,0.0,0.0,0.0,0.0,0.0,4.5037,4.4423,4.4361,4.4767,0.0,0.0,0.0,0.0,0.0,0.0,0.0,0.0,0.0,0.0,0.0,0.0,0.0,0.0,0.0,0.0,0.0,0.0,0.0,0.0,0.0,0.0,0.0,0.0,0.0,0.0,0.0,0.0,0.0,0.0,0.0,0.0,0.0,0.0,0.0,0.0,0.0,0.0,0.0,0.0,0.0,0.0,0.0,0.0,3.1427,3.209,0.0,0.0,0.0,0.0,0.0,0.0,0.0,0.0,0.0,0.0,0.0,0.0,0.0,3.9491,4.0354,4.082,4.1378,4.1955,4.0964,4.0584,4.0723,3.9443,3.8734,3.8497,3.7686,0.0,3.3964,3.2801,0.0,0.0,0.0,0.0,0.0,0.0,0.0,0.0,0.0,0.0,0.0,0.0,0.0,0.0,0.0,0.0,0.0,0.0,0.0,0.0,0.0,0.0,0.0,0.0,0.0,0.0,0.0,0.0,0.0,0.0,0.0,0.0,0.0,0.0,0.0,0.0,4.4925,4.6786,4.8173,4.7834,4.7631,4.7462,4.4845,4.2753,4.1136,3.9961,0.0,0.0,0.0,0.0,0.0,0.0,0.0,0.0,0.0,0.0,0.0,0.0,0.0,0.0,0.0,0.0,0.0,0.0,0.0,0.0,0.0,0.0,0.0,0.0,0.0,0.0,0.0,0.0,0.0,0.0,0.0,0.0,0.0,0.0,0.0,0.0,0.0,0.0,0.0,3.3525,3.4041,3.3155,3.4247,3.4809,0.0,0.0,0.0,0.0,0.0,0.0,0.0,0.0,0.0,3.8933,4.0299,4.127,4.1815,4.2344,4.3534,4.5307,4.4227,4.3869,4.4073,4.2918,4.1937,4.1086,4.0337,3.918,3.775,3.6186,3.5722,3.5835,0.0,0.0,0.0,0.0,3.3626,3.2916,0.0,0.0,0.0,0.0,0.0,0.0,0.0,0.0,0.0,0.0,0.0,0.0,0.0,0.0,0.0,4.1292,0.0,0.0,0.0,0.0,0.0,0.0,0.0,0.0,0.0,0.0,0.0,0.0,4.8214,4.9916,5.0642,5.0473,5.0202,4.9796,4.8485,4.5841,4.2252,4.0941,3.9596,0.0,0.0,0.0,0.0,0.0,0.0,0.0,0.0,0.0,0.0,0.0,0.0,0.0,0.0,0.0,0.0,0.0,0.0,0.0,0.0,0.0,0.0,0.0,0.0,0.0,0.0,0.0,0.0,0.0,0.0,0.0,0.0,0.0,0.0,0.0,0.0,0.0,0.0,3.4979,3.5394,3.3926,3.5504,3.6519,0.0,0.0,0.0,0.0,0.0,0.0,4.1019,4.1268,4.1563,4.194,4.2843,4.3608,4.4125,4.4659,4.5987,4.8152,4.7161,4.6743,4.6916,4.5736,4.4506,4.3287,4.2322,4.1604,4.0929,3.9184,3.8114,3.7603,3.7603,3.7365,3.6956,3.6469,3.5598,3.4682,0.0,0.0,0.0,0.0,0.0,0.0,0.0,0.0,0.0,0.0,0.0,0.0,0.0,0.0,4.3034,4.6495,4.52,4.4251,0.0,0.0,0.0,0.0,0.0,0.0,0.0,0.0,0.0,4.7703,4.9914,5.1394,5.2164,5.1488,5.1522,5.2096,5.1257,4.8866,4.5297,4.2388,4.0483,3.9328,0.0,0.0,0.0,0.0,0.0,0.0,0.0,0.0,0.0,0.0,0.0,0.0,0.0,0.0,0.0,0.0,0.0,0.0,0.0,0.0,0.0,0.0,0.0,0.0,0.0,0.0,0.0,0.0,0.0,0.0,0.0,0.0,0.0,0.0,0.0,0.0,0.0,0.0,0.0,3.4105,3.6145,0.0,0.0,0.0,0.0,4.0557,4.0981,4.1414,4.1893,4.2951,4.3908,4.4782,4.6254,4.7615,4.8842,4.9131,4.9372,4.9503,4.8946,4.8387,4.7883,4.6411,4.5442,4.4817,4.3355,4.2706,4.2501,4.0246,3.9289,3.9255,3.9303,3.9655,4.0099,3.8664,3.8117,3.7843,0.0,0.0,0.0,0.0,0.0,0.0,0.0,0.0,0.0,0.0,0.0,0.0,0.0,4.49,4.7232,4.9966,4.9211,4.7996,4.6614,0.0,0.0,0.0,0.0,0.0,0.0,0.0,5.0042,5.3026,5.481,5.5788,5.5953,5.6131,5.5553,5.435,5.4058,5.2615,5.0209,4.6169,4.2975,4.0449,3.8984,0.0,0.0,0.0,0.0,0.0,0.0,0.0,0.0,0.0,0.0,0.0,0.0,0.0,0.0,0.0,0.0,0.0,0.0,0.0,0.0,0.0,0.0,0.0,0.0,0.0,0.0,0.0,0.0,0.0,0.0,0.0,0.0,0.0,0.0,0.0,0.0,0.0,0.0,3.9307,4.1629,0.0,4.2491,4.2701,4.3449,4.4757,4.4451,4.5016,4.6795,4.6876,4.7277,4.8193,4.875,4.9334,4.9968,4.9937,5.0269,5.0867,4.9872,4.9276,4.8995,4.7638,4.665,4.5952,4.4431,4.3778,4.3709,4.2884,4.2215,4.166,4.1146,4.1111,4.1258,4.0637,4.0099,3.9621,0.0,0.0,0.0,0.0,0.0,0.0,0.0,0.0,0.0,0.0,0.0,4.1731,4.4847,4.8084,5.0819,5.2899,5.1931,5.029,4.793,0.0,0.0,0.0,0.0,0.0,0.0,5.0725,5.3313,5.5865,5.7669,5.8285,5.7753,5.7705,5.7055,5.5971,5.5706,5.4964,5.369,5.0616,4.6905,4.2946,0.0,0.0,4.0064,0.0,0.0,0.0,0.0,0.0,0.0,0.0,0.0,0.0,0.0,0.0,0.0,0.0,0.0,0.0,0.0,0.0,0.0,0.0,0.0,0.0,0.0,0.0,0.0,0.0,0.0,0.0,0.0,0.0,0.0,0.0,0.0,0.0,0.0,4.1075,4.2931,4.3545,4.5699,4.7032,4.6785,4.623,4.6599,4.8213,4.7552,4.7955,4.9884,4.9576,4.9684,5.0393,5.0393,5.0528,5.0816,5.048,5.0661,5.1296,5.0474,4.9944,4.9699,4.8499,4.7615,4.6906,4.532,4.4665,4.4665,4.4665,4.4337,4.3778,4.3228,4.2996,4.2962,4.2636,4.2199,4.1719,0.0,0.0,0.0,0.0,0.0,0.0,0.0,0.0,0.0,0.0,3.9059,4.2458,4.697,5.0784,5.3673,5.5262,5.3043,5.0662,4.8539,4.4834,0.0,0.0,0.0,0.0,4.9099,5.349,5.5871,5.607,5.8326,5.8738,5.7346,5.5983,5.5985,5.7121,5.6317,5.5815,5.5524,5.5374,5.2167,0.0,0.0,0.0,4.2837,0.0,0.0,0.0,0.0,0.0,0.0,0.0,0.0,0.0,0.0,0.0,0.0,0.0,0.0,0.0,0.0,0.0,0.0,0.0,0.0,0.0,0.0,0.0,0.0,0.0,0.0,0.0,0.0,0.0,0.0,0.0,0.0,0.0,4.1049,4.3017,4.5015,4.6442,4.7968,4.9153,4.9754,4.9003,4.9187,5.0839,5.0235,5.0105,5.0855,5.0872,5.0957,5.1167,5.1203,5.131,5.1576,5.107,5.0803,5.0803,5.0776,5.0509,4.9971,4.8993,4.8242,4.7638,4.6121,4.5466,4.5432,4.5432,4.5432,4.5432,4.5397,4.5397,4.5294,4.4596,4.4311,4.4104,0.0,0.0,0.0,0.0,0.0,0.0,0.0,0.0,0.0,0.0,4.0518,4.5228,4.8413,5.3071,5.6427,5.7669,5.3627,5.0928,5.0718,0.0,0.0,0.0,0.0,0.0,5.456,5.6586,5.8979,6.1844,6.251,6.2358,6.1299,6.087,6.0489,6.0237,5.9982,5.941,5.8704,5.808,0.0,0.0,0.0,0.0,4.5301,0.0,0.0,0.0,0.0,0.0,0.0,0.0,0.0,0.0,0.0,0.0,0.0,0.0,0.0,0.0,0.0,0.0,0.0,0.0,0.0,0.0,0.0,0.0,0.0,0.0,0.0,0.0,0.0,0.0,0.0,0.0,4.3214,4.4801,4.4903,4.7295,4.9596,5.1167,5.2739,5.3756,5.3922,5.3739,5.3775,5.4252,5.409,5.3609,5.289,5.2448,5.1835,5.0961,5.0899,5.0928,5.1044,5.0884,5.0803,5.0803,5.0397,5.012,4.9976,4.9111,4.8633,4.843,4.7465,4.6741,4.6259,4.6259,4.6259,4.619,4.5638,4.5397,4.5363,4.5156,4.4768,4.4242,0.0,0.0,0.0,0.0,0.0,0.0,0.0,0.0,0.0,0.0,4.1125,4.6013,4.905,5.394,5.6711,5.6034,5.2792,5.0079,4.8398,0.0,0.0,0.0,0.0,5.3518,5.7226,5.886,6.0941,6.3576,6.4036,6.3968,6.3478,6.2784,6.254,6.2558,6.1929,6.1417,6.0927,0.0,0.0,0.0,0.0,0.0,4.9614,4.6504,4.5771,4.6161,4.4057,4.3936,4.4473,4.2562,0.0,0.0,0.0,0.0,0.0,0.0,0.0,0.0,0.0,0.0,0.0,0.0,0.0,0.0,0.0,0.0,0.0,0.0,0.0,0.0,0.0,0.0,0.0,0.0,4.6194,4.8485,5.0097,5.1449,5.2931,5.4546,5.5537,5.6235,5.6565,5.5978,5.5721,5.6088,5.5578,5.4888,5.4097,5.3523,5.2626,5.1294,5.1267,5.1157,5.0941,5.0628,5.0628,5.0906,5.0322,5.0011,4.9976,4.9154,4.881,4.8741,4.8017,4.7431,4.7079,4.7079,4.7079,4.6975,0.0,0.0,0.0,0.0,4.5121,4.4734,0.0,0.0,0.0,0.0,0.0,0.0,0.0,0.0,0.0,0.0,0.0,4.5251,4.8614,5.3207,5.4954,5.2275,5.0856,4.8378,0.0,0.0,0.0,4.9392,5.2118,5.5133,5.8327,6.0676,6.2328,6.322,6.4175,6.4682,6.4654,6.33,6.3343,6.4476,6.3094,6.2556,0.0,0.0,0.0,0.0,0.0,0.0,5.4472,5.1098,5.0435,5.0976,4.8602,4.772,4.7442,4.5998,0.0,0.0,0.0,0.0,0.0,0.0,0.0,0.0,0.0,0.0,0.0,0.0,0.0,0.0,0.0,0.0,0.0,0.0,0.0,0.0,0.0,0.0,0.0,0.0,4.9571,5.227,5.5317,5.5207,5.5354,5.6785,5.6932,5.7226,5.7923,5.6712,5.6139,5.6804,5.5691,5.487,5.4675,5.4132,0.0,0.0,0.0,5.1708,5.1252,5.0597,5.0528,5.1114,5.0459,5.008,4.9976,4.9258,4.8947,4.8879,4.8224,4.7913,4.781,4.781,4.7775,4.7534,4.619,4.6017,4.6527,4.5776,4.5466,4.5294,0.0,0.0,0.0,0.0,0.0,0.0,0.0,0.0,0.0,3.4863,3.9621,4.3506,4.5638,4.922,5.1297,5.0955,4.7832,4.5894,0.0,0.0,4.9252,5.3155,5.5126,5.7629,6.0823,6.2695,6.431,6.5778,6.6626,6.7039,6.7012,6.6125,6.6135,6.6948,6.6023,0.0,0.0,0.0,0.0,0.0,0.0,0.0,5.6054,5.3346,5.2123,5.1522,4.9069,4.9421,5.0618,4.7733,4.775,4.8334,4.4355,0.0,0.0,0.0,0.0,0.0,0.0,0.0,0.0,0.0,0.0,0.0,0.0,0.0,0.0,0.0,0.0,0.0,0.0,0.0,0.0,4.9591,5.2123,5.4363,5.6308,5.7005,5.7409,5.774,5.7776,5.7813,5.796,5.7703,5.7394,5.7072,5.6804,5.5975,5.4358,5.419,5.3497,5.2191,5.2126,5.2067,5.1981,5.1843,5.1563,5.1114,5.0976,0.0,5.0011,4.9838,4.9769,4.9769,4.9631,4.9217,4.8568,4.8568,4.8224,4.7672,4.7362,4.6983,4.6596,4.6424,4.5949,4.5363,0.0,0.0,0.0,0.0,0.0,0.0,0.0,0.0,0.0,0.0,3.7367,4.0404,4.1652,4.4344,4.563,4.4684,4.3205,0.0,0.0,4.808,5.1353,5.5427,5.7152,5.9318,6.2144,6.3429,6.4677,6.5888,6.71,6.7687,6.7687,6.7283,6.7283,6.7677,0.0,0.0,0.0,0.0,0.0,0.0,0.0,0.0,5.8364,5.6277,5.5053,5.4179,5.2527,5.2234,5.2344,5.0708,5.0141,4.9568,4.6345,4.5198,4.4582,0.0,0.0,0.0,0.0,0.0,0.0,0.0,0.0,0.0,0.0,0.0,0.0,0.0,0.0,4.354,0.0,0.0,4.9985,5.2768,5.4978,5.6706,5.785,5.8364,5.8437,5.8033,5.7997,5.7997,5.7997,5.7997,5.775,5.7141,5.6861,5.6116,5.4863,5.451,5.3866,5.2839,5.2865,5.2865,5.2804,5.2106,5.1726,5.1666,5.0996,5.0472,5.0092,5.0092,5.0092,5.0092,5.004,4.9798,4.9504,4.9504,4.924,4.8872,4.8872,4.8148,4.7113,4.6734,4.6355,4.5914,0.0,0.0,0.0,0.0,0.0,0.0,0.0,0.0,0.0,0.0,3.4945,3.7051,3.7757,3.9482,3.9855,0.0,0.0,0.0,0.0,4.9187,5.3188,5.7556,5.8964,6.0799,6.322,6.398,6.4787,6.5778,6.7063,6.7687,6.7687,6.7687,6.7614,6.7467,0.0,0.0,0.0,0.0,0.0,0.0,0.0,0.0,6.0456,5.9024,5.7886,5.6895,5.5757,5.4326,5.2931,5.2784,5.1316,4.9258,4.7849,4.7051,4.614,4.3597,4.3249,0.0,0.0,0.0,0.0,0.0,0.0,0.0,0.0,0.0,4.3414,4.3964,4.5057,4.6463,4.8218,5.0876,5.3514,5.5735,5.7434,5.8612,5.9134,5.9208,5.8938,5.8153,5.802,5.802,5.8042,5.8042,5.775,5.7065,5.6625,5.6055,5.5373,5.4869,5.4316,5.3725,5.3783,5.3814,5.3691,5.2597,5.2186,5.2516,5.128,5.061,5.0471,5.0298,5.0228,5.0228,5.012,5.0149,5.0228,5.0228,5.0178,5.0097,5.0097,4.9337,4.8128,4.7148,4.6837,4.67,0.0,0.0,0.0,0.0,0.0,0.0,0.0,0.0,0.0,0.0,0.0,0.0,0.0,0.0,0.0,0.0,0.0,0.0,4.8727,5.1463,5.5354,6.0823,6.1227,6.2475,6.4971,6.5118,6.5925,6.743,6.7614,6.7687,6.7687,6.7687,6.732,0.0,0.0,0.0,0.0,0.0,0.0,0.0,0.0,0.0,6.1374,6.0456,5.9208,5.7556,5.5354,5.3482,5.2013,5.1316,5.0398,4.9664,5.0175,4.9791,4.882,4.7038,0.0,4.4361,4.3519,4.2854,4.2402,4.2463,4.2521,4.3131,0.0,0.0,4.6461,4.8732,4.927,5.0083,5.2544,5.3763,5.5175,5.7516,5.8657,5.9237,5.9208,5.9301,5.9076,5.8266,5.8065,5.8042,5.8156,5.8193,5.7774,5.6809,5.6678,5.6166,5.5079,5.4873,5.4807,5.4826,5.4703,5.4703,5.4791,5.4648,5.43,5.3709,5.2839,5.2074,5.1413,5.0717,5.0369,5.0369,5.0341,5.0341,5.0369,5.0369,5.0341,5.0376,5.0376,5.0237,4.9896,4.8197,4.7596,4.7389,0.0,0.0,0.0,0.0,0.0,0.0,0.0,0.0,0.0,0.0,0.0,0.0,0.0,0.0,0.0,0.0,0.0,0.0,4.6247,5.1083,5.5888,6.0579,6.2266,6.3282,6.3833,6.4824,6.5411,6.5595,6.6072,6.6549,6.699,6.699,0.0,0.0,0.0,0.0,0.0,0.0,0.0,0.0,0.0,0.0,6.0823,6.0015,5.785,5.506,5.4069,5.2674,0.0,0.0,4.9517,4.9003,4.9848,4.9517,4.8526,4.6874,4.5626,0.0,4.2677,4.2341,4.2611,4.3167,4.4034,4.5366,4.7952,4.8489,4.9045,5.1083,5.1844,5.2789,5.4751,5.5771,5.7064,0.0,5.9649,5.97,6.0066,5.978,5.9028,5.7715,5.7951,5.826,5.8327,5.84,5.8349,5.7905,5.7254,5.6674,5.6182,5.5383,5.493,5.4992,5.5022,5.5022,5.4992,5.466,5.4276,5.3908,5.3166,5.2428,5.1688,5.1374,5.1178,5.1094,5.1178,5.1178,5.1059,5.0656,5.0481,5.0397,5.0397,5.0397,5.0265,4.9077,4.8578,4.8356,0.0,0.0,0.0,0.0,0.0,0.0,0.0,0.0,0.0,0.0,0.0,0.0,0.0,0.0,0.0,0.0,0.0,0.0,0.0,4.948,5.4751,5.8969,6.1459,6.2718,6.2792,6.3991,6.4567,6.442,6.5007,6.5595,6.6182,0.0,0.0,0.0,0.0,0.0,0.0,0.0,0.0,0.0,0.0,0.0,6.0236,5.8767,5.6014,5.2821,5.2344,5.0729,0.0,0.0,4.7315,4.6874,4.8178,4.8159,4.7425,4.6287,4.5293,4.4163,4.249,4.2617,4.3446,4.4374,4.5836,4.769,5.0284,5.1008,5.1676,5.3571,5.424,5.4963,5.6553,5.7188,5.8227,6.0478,6.0389,6.0226,6.0743,6.0137,5.8991,5.7365,5.7534,5.7888,5.811,5.8456,5.8543,5.8275,5.7505,5.6957,5.6816,5.5688,5.5139,5.5348,5.5259,5.5169,5.5144,5.4704,5.446,5.4341,5.3626,5.3019,5.2459,5.2278,5.2018,5.1695,5.1808,5.1668,5.1374,5.0892,5.062,5.0544,5.0544,5.0544,5.0474,4.9943,4.9597,4.932,0.0,0.0,0.0,0.0,0.0,0.0,0.0,0.0,0.0,0.0,0.0,0.0,0.0,0.0,0.0,0.0,0.0,0.0,0.0,4.6718,5.1609,5.6403,5.8238,6.0286,6.2665,6.2803,6.3661,6.5264,6.5301,6.5301,6.5338,0.0,0.0,0.0,0.0,0.0,0.0,0.0,0.0,0.0,0.0,0.0,6.0052,5.6895,5.4179,5.183,5.0178,0.0,0.0,0.0,4.313,4.291,4.5259,4.5993,0.0,4.6083,4.5011,0.0,0.0,0.0,4.5247,4.6199,4.7627,4.9485,5.1974,5.3125,5.4388,5.684,5.6766,5.6729,5.8306,5.8029,5.8285,6.0626,6.0974,6.0929,6.0817,6.0145,5.91,5.7471,5.6722,5.6672,0.0,5.8127,5.8119,5.7227,5.7127,5.6871,5.6347,5.5578,5.5519,5.6229,5.5578,5.5259,5.5478,5.5478,5.5443,5.5443,5.4636,5.4279,5.4208,5.3471,5.2734,5.2004,5.2004,5.1583,5.0908,5.0908,5.0873,5.0873,5.0873,5.0873,5.0873,5.0873,5.0647,5.0154,0.0,0.0,0.0,0.0,0.0,0.0,0.0,0.0,0.0,0.0,0.0,0.0,0.0,0.0,0.0,0.0,0.0,0.0,0.0,4.2978,4.7421,5.0663,5.4166,5.66,5.7834,5.864,5.9748,6.1239,6.1239,6.1814,6.2842,0.0,0.0,0.0,0.0,0.0,0.0,0.0,0.0,0.0,0.0,0.0,5.6124,5.3445,5.0545,4.7719,0.0,0.0,0.0,0.0,0.0,0.0,4.3125,0.0,0.0,4.3804,0.0,0.0,0.0,0.0,4.7964,4.941,5.0971,5.2791,5.528,5.606,5.6357,5.6655,5.6023,5.528,5.476,5.4871,5.5669,5.7559,5.8784,5.9616,6.0151,6.0506,5.9674,5.6965,5.786,0.0,0.0,0.0,5.8153,5.8421,5.7722,5.7217,5.7088,5.6011,5.5502,5.5764,5.5531,5.5448,5.5507,5.5507,5.5507,5.5507,5.47,5.4314,5.4279,5.3541,5.305,5.2769,5.2242,5.1856,5.161,5.1084,5.0873,5.0873,5.0873,5.0873,5.0873,5.0873,5.0819,5.064,0.0,0.0,0.0,0.0,0.0,0.0,0.0,0.0,0.0,0.0,0.0,0.0,0.0,0.0,0.0,0.0,0.0,0.0,0.0,0.0,4.2831,4.5437,4.9103,5.1733,5.3113,5.378,5.4735,5.6108,5.6387,5.707,5.8097,0.0,0.0,0.0,0.0,0.0,0.0,0.0,0.0,0.0,0.0,0.0,5.2344,4.9664,4.6948,0.0,0.0,0.0,0.0,0.0,0.0,0.0,0.0,0.0,0.0,0.0,0.0,0.0,0.0,4.8779,5.0971,5.2345,5.3905,5.5466,5.6766,5.7063,5.6766,5.5652,5.45,5.3423,5.2345,5.2345,5.3162,5.5094,5.6506,5.7881,5.9292,5.9701,5.9218,5.736,5.8289,5.8438,0.0,0.0,5.8266,5.8621,5.7992,5.7582,5.7644,5.6459,5.5844,5.607,5.5706,5.5507,5.5507,5.5507,5.5507,5.5507,5.4981,5.4735,5.4735,5.4244,5.3857,5.3541,5.2769,5.2277,5.1934,5.1189,5.0873,5.0873,5.0873,5.0873,5.0873,5.0873,5.0873,5.0873,0.0,0.0,0.0,0.0,0.0,0.0,0.0,0.0,0.0,0.0,0.0,0.0,0.0,0.0,0.0,0.0,0.0,0.0,0.0,0.0,0.0,4.0843,4.3268,4.5848,4.8598,4.8402,4.8959,5.0227,5.1078,5.1522,5.1632,0.0,0.0,0.0,0.0,0.0,0.0,0.0,0.0,0.0,0.0,0.0,4.8967,4.5847,0.0,0.0,0.0,0.0,0.0,0.0,0.0,0.0,0.0,0.0,0.0,0.0,0.0,4.8259,4.9856,5.2122,5.4166,5.4946,5.632,5.7286,5.6469,5.6246,5.5689,5.398,5.2345,5.1193,0.0,0.0,5.0896,5.3311,5.4537,5.6023,5.8438,5.8252,5.8103,0.0,0.0,0.0,0.0,0.0,5.8619,5.8102,5.796,5.79,5.7914,5.6923,5.6546,5.704,5.607,5.5537,5.5507,5.5507,5.5507,5.5507,5.5507,5.5507,5.5507,5.5472,5.5016,5.4208,5.3436,5.2664,5.1891,5.1189,5.0873,5.0873,5.0873,5.0873,5.0873,5.0873,5.0873,5.0873,0.0,0.0,0.0,0.0,0.0,0.0,0.0,0.0,0.0,0.0,0.0,0.0,0.0,0.0,0.0,0.0,0.0,0.0,0.0,0.0,0.0,0.0,0.0,0.0,0.0,0.0,0.0,0.0,0.0,4.7892,4.9042,0.0,0.0,0.0,0.0,0.0,0.0,0.0,0.0,0.0,0.0,0.0,4.6581,0.0,0.0,0.0,0.0,0.0,0.0,0.0,0.0,0.0,0.0,4.2912,4.466,0.0,0.0,5.0822,5.2419,5.4686,5.6617,5.6803,5.7175,5.7286,5.6469,5.5317,5.3794,5.1528,4.9782,4.8296,0.0,0.0,0.0,5.1714,5.5243,0.0,5.9441,6.1499,0.0,6.0741,0.0,6.1596,6.037,6.0444,0.0,6.0381,5.8827,5.798,5.8176,5.7391,5.6783,5.6492,5.6229,5.5901,5.5507,5.5507,5.5507,5.5507,5.5507,5.5507,5.5507,5.4875,5.4173,5.3436,5.2664,5.1891,5.1154,5.0978,5.0873,5.0873,5.0873,5.0873,5.0873,5.0873,5.0873,5.0873,0.0,0.0,0.0,0.0,0.0,0.0,0.0,0.0,0.0,0.0,0.0,0.0,0.0,0.0,0.0,0.0,0.0,0.0,0.0,0.0,0.0,0.0,0.0,0.0,0.0,0.0,0.0,0.0,0.0,0.0,0.0,0.0,0.0,0.0,0.0,0.0,0.0,0.0,0.0,0.0,0.0,0.0,0.0,0.0,0.0,0.0,0.0,0.0,0.0,0.0,0.0,4.2319,4.3839,4.5482,4.7256,4.9262,0.0,5.3348,5.4983,5.6692,5.8103,5.8475,5.8029,5.71,5.554,5.3943,5.1936,4.9113,4.7516,4.6252,4.4952,4.6141,4.7961,0.0,0.0,0.0,5.9069,6.1261,6.2391,0.0,6.2524,0.0,6.1336,6.1521,6.1744,6.1744,6.0241,5.9417,5.954,5.8555,5.7724,5.7181,5.6626,5.6042,5.5507,5.5507,5.5507,5.5507,5.5507,5.5507,5.5507,5.5051,5.4419,5.3647,5.2874,5.2102,5.1365,5.1013,5.0873,5.0873,5.0873,5.0873,5.0873,5.0873,5.0873,5.0873,0.0,0.0,0.0,0.0,0.0,0.0,0.0,0.0,0.0,0.0,0.0,0.0,0.0,0.0,0.0,0.0,0.0,0.0,0.0,0.0,0.0,0.0,0.0,0.0,0.0,0.0,0.0,0.0,0.0,0.0,0.0,0.0,0.0,0.0,0.0,0.0,0.0,0.0,0.0,0.0,0.0,0.0,0.0,0.0,0.0,0.0,0.0,0.0,0.0,0.0,4.2261,4.3611,4.5984,4.7947,4.9893,5.2494,5.424,5.5726,5.7509,5.8438,5.9032,5.9738,5.8438,5.6432,5.4166,5.2159,4.9893,4.6958,0.0,4.4915,4.4135,4.4804,4.629,4.8816,0.0,5.4314,5.8326,5.9717,6.0927,6.2413,6.2673,6.245,6.1744,6.2227,6.2562,6.2562,6.193,6.1447,6.1224,5.9936,5.8859,5.8156,5.6877,5.5957,5.5507,5.5507,5.5507,5.5507,5.5507,5.5507,5.5507,5.5507,5.5016,5.4138,5.3471,5.2699,5.1821,5.1154,5.0873,5.0873,5.0873,5.0873,5.0873,5.0873,5.0873,5.0873,0.0,0.0,0.0,0.0,0.0,0.0,0.0,0.0,0.0,0.0,0.0,0.0,0.0,0.0,0.0,0.0,0.0,0.0,0.0,0.0,0.0,0.0,0.0,0.0,0.0,0.0,0.0,0.0,0.0,0.0,0.0,0.0,0.0,0.0,0.0,0.0,0.0,0.0,0.0,0.0,0.0,0.0,0.0,0.0,0.0,0.0,0.0,0.0,0.0,0.0,4.3488,4.6162,4.7907,5.0061,5.2568,5.5726,5.684,5.7583,5.9924,6.0147,5.9738,5.9865,5.7175,5.4166,5.3051,4.9968,0.0,0.0,4.4804,4.4172,4.4023,4.5249,4.733,5.045,5.3014,5.58,5.9218,6.1596,6.3082,0.0,6.3988,6.4345,6.4173,6.3713,6.3416,6.3416,6.3267,6.2599,6.1261,6.0283,5.8989,5.7358,5.6217,5.5596,5.5507,5.5507,5.5507,5.5507,5.5507,5.5507,5.5507,5.5507,5.4735,5.3366,5.3254,5.2411,5.1084,5.0943,5.0873,5.0873,5.0873,5.0873,5.0873,5.0873,5.0873,5.0873,0.0,0.0,0.0,0.0,0.0,0.0,0.0,0.0,0.0,0.0,0.0,0.0,0.0,0.0,0.0,0.0,0.0,0.0,0.0,0.0,0.0,0.0,0.0,0.0,0.0,0.0,0.0,0.0,0.0,0.0,0.0,0.0,0.0,0.0,0.0,0.0,0.0,0.0,0.0,0.0,0.0,0.0,0.0,0.0,0.0,0.0,0.0,0.0,0.0,0.0,4.3429,4.6921,4.941,5.1602,5.3794,5.6655,5.7806,5.8586,6.063,6.0555,5.9903,5.9903,5.684,5.3348,5.1676,0.0,0.0,0.0,4.3949,4.3503,4.3912,4.5026,4.6661,4.9076,5.1193,5.3943,5.8066,6.0035,6.167,6.3416,6.4285,6.4619,6.4211,6.4233,6.4211,6.4211,6.3862,6.3267,6.2487,6.1003,5.9348,5.757,5.6731,5.6201,5.5901,5.5901,5.5793,5.5507,5.5507,5.5507,5.5507,5.5507,5.4875,5.3752,5.3394,5.2523,5.1435,5.1049,5.0873,5.0873,5.0873,5.0873,5.0873,5.0873,5.0873,5.0873,0.0,0.0,0.0,0.0,0.0,0.0,0.0,0.0,0.0,0.0,0.0,0.0,0.0,0.0,0.0,0.0,0.0,0.0,0.0,0.0,0.0,0.0,0.0,0.0,0.0,0.0,0.0,0.0,0.0,0.0,0.0,0.0,0.0,0.0,0.0,0.0,0.0,0.0,0.0,0.0,0.0,0.0,0.0,0.0,0.0,0.0,0.0,0.0,0.0,0.0,4.2797,4.5992,4.9113,5.1788,5.424,5.6357,5.7918,5.9292,6.0778,6.0704,6.011,5.9738,5.6432,5.2717,5.0599,4.733,0.0,4.4098,4.3355,4.3058,4.3838,4.4544,4.5621,0.0,4.8964,5.1565,5.632,5.7992,5.9812,0.0,6.3951,0.0,6.3676,6.4173,6.4545,6.4545,6.3973,6.3527,6.3379,6.1292,5.9525,5.8217,5.7461,5.6887,5.6501,5.6366,5.6098,5.5648,5.5566,5.5507,5.5507,5.5507,5.5086,5.4279,5.3506,5.2734,5.1934,5.1189,5.0873,5.0873,5.0873,5.0873,5.0873,5.0873,5.0873,5.0873,0.0,0.0,0.0,0.0,0.0,0.0,0.0,0.0,0.0,0.0,0.0,0.0,0.0,0.0,0.0,0.0,0.0,0.0,0.0,0.0,0.0,0.0,0.0,0.0,0.0,0.0,0.0,0.0,0.0,0.0,0.0,0.0,0.0,0.0,0.0,0.0,0.0,0.0,0.0,0.0,0.0,0.0,0.0,0.0,0.0,0.0,0.0,0.0,0.0,0.0,0.0,4.25,4.5064,4.9522,5.398,5.4946,0.0,0.0,6.0964,6.115,6.0741,5.9181,5.5206,5.1379,5.0413,0.0,4.3206,4.3875,4.3355,4.3058,4.3838,4.4061,4.4915,0.0,0.0,5.0488,5.4648,5.7249,5.9404,6.1187,0.0,0.0,6.3602,6.3676,6.3691,6.3691,6.3639,6.3305,6.2562,6.0407,5.9134,5.8988,5.7753,5.7091,5.704,5.6519,5.6284,5.6201,5.5735,5.5507,5.5507,5.5507,5.5086,5.4279,5.3506,5.2734,5.1934,5.1189,5.0873,5.0873,5.0873,5.0873,5.0873,5.0873,5.0873,5.0873,0.0,0.0,0.0,0.0,0.0,0.0,0.0,0.0,0.0,0.0,0.0,0.0,0.0,0.0,0.0,0.0,0.0,0.0,0.0,0.0,0.0,0.0,0.0,0.0,0.0,0.0,0.0,0.0,0.0,0.0,0.0,0.0,0.0,0.0,0.0,0.0,0.0,0.0,0.0,0.0,0.0,0.0,0.0,0.0,0.0,0.0,0.0,0.0,0.0,0.0,0.0,0.0,4.0828,4.4098,0.0,0.0,5.4463,5.6729,5.9069,6.0072,6.0035,5.8401,5.4648,5.1045,4.9707,0.0,4.302,4.3838,4.3355,4.3058,4.3838,4.407,4.4436,0.0,0.0,0.0,5.0894,5.2679,5.5153,5.9218,6.115,6.2562,6.3527,6.4025,6.3913,6.297,6.3342,6.3267,6.245,6.1122,5.9901,5.8902,5.8356,5.7747,5.7116,5.6887,5.6474,5.5822,5.5625,5.5507,5.5507,5.5507,5.5332,5.4981,5.4208,5.3436,5.2664,5.1891,5.1294,5.0873,5.0873,5.0873,5.0873,5.0873,5.0873,5.0873,0.0,0.0,0.0,0.0,0.0,0.0,0.0,0.0,0.0,0.0,0.0,0.0,0.0,0.0,0.0,0.0,0.0,0.0,0.0,0.0,0.0,0.0,0.0,0.0,0.0,0.0,0.0,0.0,0.0,0.0,0.0,0.0,0.0,0.0,0.0,0.0,0.0,0.0,0.0,0.0,0.0,0.0,0.0,0.0,0.0,0.0,0.0,0.0,0.0,0.0,0.0,0.0,0.0,0.0,0.0,0.0,5.1416,5.4017,5.658,5.8215,5.8735,5.6878,5.3683,5.0599,0.0,0.0,4.302,4.3838,4.3355,4.3073,4.3906,4.4153,4.4199,0.0,0.0,4.5708,4.865,4.9975,5.2417,5.7144,5.8967,6.0529,6.2426,6.3766,6.4063,6.2932,6.3133,6.3096,6.2494,6.1453,6.0428,5.9478,5.8958,5.8341,5.7582,5.7266,5.6704,5.5957,5.5648,5.5507,5.5507,5.5507,5.5507,5.5472,5.4665,5.3892,5.3148,5.2348,5.1575,5.0908,5.1119,5.1084,5.0908,5.1119,5.1084,5.0873,0.0,0.0,0.0,0.0,0.0,0.0,0.0,0.0,0.0,0.0,0.0,0.0,0.0,0.0,0.0,0.0,0.0,0.0,0.0,0.0,0.0,0.0,0.0,0.0,0.0,0.0,0.0,0.0,0.0,0.0,0.0,0.0,0.0,0.0,0.0,0.0,0.0,0.0,0.0,0.0,0.0,0.0,0.0,0.0,0.0,0.0,0.0,0.0,0.0,0.0,0.0,0.0,0.0,0.0,0.0,0.0,4.8816,5.2791,5.3645,5.5652,5.6952,5.4463,5.1974,4.9707,0.0,0.0,4.302,4.3838,4.3355,4.3088,4.4035,4.4199,4.4229,0.0,0.0,0.0,4.8845,5.0583,5.2524,5.5025,5.6033,5.7526,6.001,6.2475,6.3894,6.3878,6.3168,6.2657,6.2609,6.1023,6.0439,6.115,5.9552,5.8677,5.8677,5.7629,5.7091,5.7065,5.6014,5.5507,5.5507,5.5507,5.5507,5.5472,5.4665,5.3892,5.3148,5.2348,5.1575,5.0978,5.1716,5.154,5.0978,5.1716,5.154,5.0873,0.0,0.0,0.0,0.0,0.0,0.0,0.0,0.0,0.0,0.0,0.0,0.0,0.0,0.0,0.0,0.0,0.0,0.0,0.0,0.0,0.0,0.0,0.0,0.0,0.0,0.0,0.0,0.0,0.0,0.0,0.0,0.0,0.0,0.0,0.0,0.0,0.0,0.0,0.0,0.0,0.0,0.0,0.0,0.0,0.0,0.0,0.0,0.0,0.0,0.0,0.0,0.0,0.0,0.0,0.0,0.0,0.0,0.0,5.0673,5.2308,5.3014,5.1676,4.9893,4.8184,4.7107,4.4766,4.302,4.3838,4.3355,4.3088,4.4035,4.4244,4.4453,0.0,0.0,0.0,0.0,0.0,5.2013,5.495,5.9002,6.1877,6.2662,6.3446,6.367,6.3131,6.2346,6.2102,6.262,6.0567,5.9628,6.0295,5.9255,5.8513,5.815,5.7831,5.7462,5.7091,5.6393,5.6042,5.6042,5.5648,5.5227,5.4665,5.4419,5.3576,5.2348,5.2137,5.1575,5.0908,5.1154,5.1119,5.0908,5.1154,5.1084,5.0873,0.0,0.0,0.0,0.0,0.0,0.0,0.0,0.0,0.0,0.0,0.0,0.0,0.0,0.0,0.0,0.0,0.0,0.0,0.0,0.0,0.0,0.0,0.0,0.0,0.0,0.0,0.0,0.0,0.0,0.0,0.0,0.0,0.0,0.0,0.0,0.0,0.0,0.0,0.0,0.0,0.0,0.0,3.8877,0.0,0.0,0.0,0.0,0.0,0.0,0.0,0.0,0.0,0.0,0.0,0.0,0.0,0.0,0.0,0.0,4.9373,5.0265,4.9447,4.8221,0.0,0.0,4.4166,4.2991,4.3505,4.3223,4.3178,4.4087,4.4333,4.4527,4.5086,4.5218,0.0,4.6787,4.8812,5.1495,5.4984,5.9419,6.23,6.2599,6.3497,6.3855,6.3331,6.2245,6.2075,6.3156,6.0576,5.9488,6.046,5.9417,5.8661,5.8326,5.8113,5.7827,5.7521,5.6861,5.6555,5.6528,5.5901,5.5402,5.4909,5.4799,5.3892,0.0,5.2453,5.1821,5.0908,5.1224,5.1119,5.0908,5.1224,5.1119,5.0873,0.0,0.0,0.0,0.0,0.0,0.0,0.0,0.0,0.0,0.0,0.0,0.0,0.0,0.0,0.0,0.0,0.0,0.0,0.0,0.0,0.0,0.0,0.0,0.0,0.0,0.0,0.0,0.0,0.0,0.0,0.0,0.0,0.0,0.0,0.0,0.0,0.0,0.0,0.0,0.0,0.0,0.0,0.0,0.0,0.0,0.0,0.0,0.0,0.0,0.0,0.0,0.0,0.0,0.0,0.0,0.0,0.0,0.0,0.0,0.0,0.0,0.0,0.0,0.0,0.0,0.0,0.0,4.2893,4.2907,4.3235,4.4233,4.4397,4.4449,4.467,4.467,4.5233,4.6861,4.8739,5.1405,5.5368,5.8051,5.9853,6.0604,6.282,6.4209,6.4209,6.267,6.2368,6.3879,6.092,5.9907,6.1396,5.9864,5.9004,5.9004,5.8524,5.8274,5.8252,5.7377,5.6964,5.6938,5.6201,5.5865,5.5731,5.5519,5.4524,5.3043,5.3113,5.2235,5.0978,5.1645,5.1505,5.0978,5.1681,5.1505,5.0873,0.0,0.0,0.0,0.0,0.0,0.0,0.0,0.0,0.0,0.0,0.0,0.0,0.0,0.0,0.0,0.0,0.0,0.0,0.0,0.0,0.0,0.0,0.0,0.0,0.0,0.0,0.0,0.0,0.0,0.0,0.0,0.0,0.0,0.0,0.0,0.0,0.0,0.0,0.0,0.0,0.0,0.0,0.0,0.0,0.0,0.0,3.9863,4.0234,0.0,0.0,0.0,0.0,0.0,0.0,0.0,0.0,3.9905,0.0,0.0,0.0,0.0,0.0,0.0,0.0,0.0,0.0,0.0,0.0,0.0,4.2562,4.4121,4.4397,4.4824,4.6209,4.6396,4.6749,4.7763,5.1518,5.5218,5.8089,6.068,6.2031,6.1543,6.2632,6.3383,6.3383,6.1844,6.1299,6.2293,6.0379,5.9722,6.0791,5.9778,5.9159,5.9004,5.8868,5.8808,5.8808,5.7932,5.751,5.7486,5.6393,5.5263,5.4138,5.4429,5.3401,5.147,5.2067,5.1751,5.0908,5.1084,5.1049,5.0908,5.1084,5.1049,5.0873,0.0,0.0,0.0,0.0,0.0,0.0,0.0,0.0,0.0,0.0,0.0,0.0,0.0,0.0,0.0,0.0,0.0,0.0,0.0,0.0,0.0,0.0,0.0,0.0,0.0,0.0,0.0,0.0,0.0,0.0,0.0,0.0,0.0,0.0,0.0,0.0,0.0,0.0,0.0,0.0,3.9429,0.0,0.0,0.0,0.0,0.0,3.964,4.0048,0.0,4.1311,4.1832,4.2017,0.0,0.0,0.0,0.0,3.9523,0.0,0.0,0.0,0.0,0.0,0.0,0.0,0.0,0.0,0.0,0.0,0.0,4.2285,4.3652,4.3877,4.4454,4.6134,4.6749,4.7838,5.0181,5.3132,5.6249,5.9515,6.113,6.2219,6.2857,6.3383,6.3496,6.312,6.1881,6.1355,6.1768,6.0191,5.9703,6.0567,5.9741,5.9234,5.914,5.914,5.9063,5.8925,5.8282,5.79,5.7713,5.674,5.5596,5.4322,5.4479,5.3331,5.1435,5.1856,5.1575,5.0873,5.0873,5.1119,5.1365,5.1013,5.1119,5.1365,0.0,0.0,0.0,0.0,0.0,0.0,0.0,0.0,0.0,0.0,0.0,0.0,0.0,0.0,0.0,0.0,0.0,0.0,0.0,0.0,0.0,0.0,0.0,0.0,0.0,0.0,0.0,0.0,0.0,0.0,0.0,0.0,0.0,0.0,0.0,0.0,0.0,0.0,0.0,0.0,3.9871,0.0,0.0,0.0,0.0,0.0,0.0,0.0,0.0,4.1349,4.2144,4.2627,4.1698,0.0,0.0,0.0,0.0,0.0,0.0,0.0,0.0,0.0,0.0,0.0,0.0,0.0,0.0,0.0,0.0,0.0,0.0,4.3595,0.0,4.581,4.7012,4.9189,5.3357,5.4521,5.6361,6.0154,6.083,6.1768,6.3721,6.3929,6.3646,6.2932,6.1994,6.143,6.143,6.0079,5.9628,6.0379,5.9591,5.9102,5.9102,5.9253,5.9159,5.8868,5.8476,5.8164,5.7844,5.7029,5.606,5.5071,5.4756,5.3568,5.1911,5.1961,5.1575,5.0908,5.1013,5.1435,5.1961,5.1435,5.1575,5.1891,0.0,0.0,0.0,0.0,0.0,0.0,0.0,0.0,0.0,0.0,0.0,0.0,0.0,0.0,0.0,0.0,0.0,0.0,0.0,0.0,0.0,0.0,0.0,0.0,0.0,0.0,0.0,0.0,0.0,0.0,0.0,0.0,0.0,0.0,0.0,0.0,0.0,0.0,0.0,0.0,0.0,0.0,0.0,0.0,0.0,0.0,0.0,0.0,0.0,4.1571,4.2173,4.2642,4.1138,0.0,0.0,0.0,0.0,0.0,4.03,4.1301,4.1938,4.1156,0.0,0.0,0.0,0.0,0.0,0.0,0.0,0.0,0.0,4.4871,4.5885,4.7537,4.9678,5.2606,5.6774,5.7432,5.8314,6.0379,6.1844,6.2595,6.2219,6.2181,6.2106,6.1994,6.0567,5.9666,5.9666,5.944,5.9365,5.9515,5.8727,5.8258,5.8258,5.8952,5.9272,5.9215,5.8582,5.8275,5.8172,5.6538,5.5348,5.4579,5.402,5.2864,5.1432,5.1833,5.1575,5.0943,5.161,5.1899,5.2067,5.2628,5.2488,5.1891,0.0,0.0,0.0,0.0,0.0,0.0,0.0,0.0,0.0,0.0,0.0,0.0,0.0,0.0,0.0,0.0,0.0,0.0,0.0,0.0,0.0,0.0,0.0,0.0,0.0,0.0,0.0,0.0,0.0,0.0,0.0,0.0,0.0,0.0,0.0,0.0,0.0,0.0,0.0,0.0,0.0,0.0,0.0,0.0,0.0,0.0,0.0,0.0,0.0,0.0,4.1576,4.208,4.0924,0.0,0.0,0.0,0.0,0.0,3.9977,4.1016,4.1916,0.0,0.0,4.2653,4.2653,0.0,0.0,0.0,0.0,0.0,0.0,4.5547,4.7387,5.0407,5.2982,5.5423,5.777,5.8464,5.9365,6.1055,6.1543,6.1956,6.2444,6.2069,6.1618,6.1168,6.0454,5.9816,5.9328,5.929,5.929,5.929,5.8539,5.8108,5.8108,5.8051,5.8128,5.837,5.852,5.8233,5.7633,5.7071,5.5813,5.4086,5.4082,5.3041,5.1334,5.1556,5.1571,5.154,5.1891,5.2523,5.3296,5.3647,5.3296,5.2593,0.0,0.0,0.0,0.0,0.0,0.0,0.0,0.0,0.0,0.0,0.0,0.0,0.0,0.0,0.0,0.0,0.0,0.0,0.0,0.0,0.0,0.0,0.0,0.0,0.0,0.0,0.0,0.0,0.0,0.0,0.0,0.0,0.0,0.0,0.0,0.0,0.0,0.0,0.0,0.0,0.0,0.0,0.0,0.0,0.0,0.0,0.0,0.0,0.0,0.0,0.0,0.0,0.0,0.0,0.0,0.0,3.9802,3.9852,4.009,4.1079,4.2042,0.0,0.0,4.367,4.4083,0.0,0.0,0.0,0.0,0.0,0.0,4.6899,4.934,5.2923,5.5723,5.7751,5.8558,5.9553,6.0604,6.1656,6.143,6.1618,6.2707,6.2031,6.1243,6.0642,6.0229,5.9741,5.9065,5.9027,5.8915,5.8727,5.8126,5.7713,5.7507,5.6887,5.6891,5.7432,5.797,5.7773,5.6927,5.6985,5.5885,5.3799,5.3978,5.3043,5.1402,5.1501,5.1714,5.2004,5.2207,5.312,5.4279,5.4103,5.3787,5.3401,0.0,0.0,0.0,0.0,0.0,0.0,0.0,0.0,0.0,0.0,0.0,0.0,0.0,0.0,0.0,0.0,0.0,0.0,0.0,0.0,0.0,0.0,0.0,0.0,0.0,0.0,0.0,0.0,0.0,0.0,0.0,0.0,0.0,0.0,0.0,0.0,0.0,0.0,0.0,0.0,0.0,0.0,0.0,0.0,0.0,0.0,0.0,0.0,0.0,0.0,0.0,0.0,0.0,0.0,0.0,0.0,4.0691,4.0878,4.1629,4.1929,4.2192,4.2994,4.382,0.0,4.6373,4.6749,0.0,4.8664,0.0,0.0,0.0,4.9903,5.2156,5.3996,5.7037,5.944,6.0304,6.1806,6.2557,6.1881,6.2444,6.267,6.1956,6.1168,6.068,6.0604,5.9159,5.8258,5.8201,5.8201,5.7863,5.7112,5.7,5.6587,5.5781,5.5706,5.6118,5.6964,5.6649,5.6458,5.6308,5.5299,5.4559,5.4012,5.3058,5.2269,5.1693,5.2147,5.2208,5.2067,5.2804,5.3576,5.4208,5.3506,5.3682,5.4138,0.0,0.0,0.0,0.0,0.0,0.0,0.0,0.0,0.0,0.0,0.0,0.0,0.0,0.0,0.0,0.0,0.0,0.0,0.0,0.0,0.0,0.0,0.0,0.0,0.0,0.0,0.0,0.0,0.0,0.0,0.0,0.0,0.0,0.0,0.0,0.0,0.0,0.0,0.0,0.0,0.0,0.0,0.0,0.0,0.0,0.0,0.0,0.0,0.0,0.0,4.1287,0.0,0.0,0.0,0.0,0.0,0.0,4.0228,4.1041,4.1629,4.2079,4.2417,4.3506,0.0,0.0,4.7387,4.7913,4.8551,4.9678,0.0,0.0,5.2118,5.3846,5.4972,5.7938,6.0229,6.0567,6.1581,6.2181,6.1844,6.1656,6.143,6.1093,6.0304,5.9591,5.9102,5.8446,5.7901,5.7375,5.7338,5.7225,5.6887,5.6361,5.5931,5.5593,5.5122,5.501,5.5348,5.6254,5.6387,5.5864,5.5572,5.4764,5.3661,5.3358,5.275,5.1932,5.1943,5.2085,5.2357,5.3458,5.4349,5.5016,5.4735,5.4805,5.5016,0.0,0.0,0.0,0.0,0.0,0.0,0.0,0.0,0.0,0.0,0.0,0.0,0.0,0.0,0.0,0.0,0.0,0.0,0.0,0.0,0.0,0.0,0.0,0.0,0.0,0.0,0.0,0.0,0.0,0.0,0.0,0.0,0.0,0.0,0.0,0.0,0.0,0.0,0.0,0.0,0.0,4.2721,0.0,0.0,0.0,0.0,0.0,0.0,0.0,0.0,4.1378,4.1079,0.0,0.0,0.0,0.0,0.0,4.0115,4.0666,4.1404,4.2004,0.0,0.0,0.0,4.735,4.8401,4.9265,5.0316,5.148,5.2306,5.2306,0.0,5.4672,5.548,5.8408,6.0492,6.0229,6.113,6.1581,6.1055,6.0755,6.0379,5.9853,5.929,5.8577,5.7788,5.7488,5.7057,5.6512,5.6512,5.6361,5.6099,5.5781,5.548,5.5218,5.4672,5.4409,5.4409,5.5573,5.5798,5.5218,5.5246,5.4579,5.3404,5.3456,5.2917,5.198,5.2033,5.2297,5.2764,5.3873,5.4665,5.5121,5.5121,5.5297,5.5507,0.0,0.0,0.0,0.0,0.0,0.0,0.0,0.0,0.0,0.0,0.0,0.0,0.0,0.0,0.0,0.0,0.0,0.0,0.0,0.0,0.0,0.0,0.0,0.0,0.0,0.0,0.0,0.0,0.0,0.0,0.0,0.0,0.0,0.0,0.0,0.0,0.0,0.0,0.0,0.0,4.3688,4.4068,0.0,0.0,0.0,0.0,0.0,0.0,0.0,0.0,4.1655,3.9739,0.0,0.0,0.0,0.0,4.0816,4.0816,4.0816,4.1404,4.2004,0.0,0.0,0.0,4.8927,5.0128,5.163,5.4917,5.4334,5.3224,5.3224,5.3883,5.4672,5.548,5.8408,6.0304,5.9403,6.0717,6.1168,5.9478,6.0041,5.9929,5.8258,5.807,5.7751,5.6962,5.6099,5.5593,5.5593,5.5555,5.518,5.4409,5.5142,5.518,5.4371,5.4371,5.4409,5.4371,5.4409,5.4409,5.4392,5.4035,5.3701,5.3387,5.313,5.2513,5.1744,5.2503,5.2972,5.3289,5.3998,5.4314,5.4314,5.4314,5.484,5.5507,0.0,0.0,0.0,0.0,0.0,0.0,0.0,0.0,0.0,0.0,0.0,0.0,0.0,0.0,0.0,0.0,0.0,0.0,0.0,0.0,0.0,0.0,0.0,0.0,0.0,0.0,0.0,0.0,0.0,0.0,0.0,0.0,0.0,0.0,0.0,0.0,0.0,0.0,0.0,0.0,4.287,4.3428,4.4637,0.0,0.0,0.0,0.0,0.0,0.0,0.0,0.0,0.0,0.0,0.0,0.0,4.0816,4.0816,4.0816,4.0816,4.1404,0.0,4.2769,0.0,0.0,0.0,5.0651,0.0,0.0,5.4784,5.4221,5.4784,5.5573,5.6249,5.6474,5.8314,5.9591,5.9328,5.9741,5.9666,5.8577,5.8689,5.8427,5.7375,5.7263,5.6887,5.6043,5.5235,5.4521,5.3921,5.332,5.2907,5.2644,5.347,5.3508,5.2644,5.3245,5.3461,5.3214,5.3423,5.3846,5.4392,5.3814,5.3487,5.3367,5.2658,5.2209,5.1992,5.2375,5.2783,5.3289,5.3998,5.4665,5.5156,5.5156,5.5297,5.5507,0.0,0.0,0.0,0.0,0.0,0.0,0.0,0.0,0.0,0.0,0.0,0.0,0.0,0.0,0.0,0.0,0.0,0.0,0.0,0.0,0.0,0.0,0.0,0.0,0.0,0.0,0.0,0.0,0.0,0.0,0.0,0.0,0.0,0.0,0.0,0.0,0.0,0.0,0.0,4.4499,4.4208,4.4603,4.5428,0.0,0.0,0.0,0.0,0.0,0.0,0.0,0.0,0.0,0.0,0.0,0.0,4.0328,4.0065,3.9952,4.0628,4.1154,0.0,4.3407,4.5622,4.816,5.0801,0.0,0.0,0.0,5.5423,5.4747,5.5911,5.5986,5.6099,5.6774,5.7976,5.884,5.884,5.884,5.8539,5.7713,5.7638,5.73,5.6474,5.6399,5.5911,5.4747,5.4183,5.3545,5.2719,5.2193,5.1893,5.1893,5.2419,5.2419,5.1931,5.2419,5.2561,5.2407,5.2953,5.3195,5.3262,5.3346,5.3407,5.3346,5.2361,5.1907,5.1794,5.2113,5.2416,5.2804,5.3541,5.4349,5.5016,5.5016,5.5227,5.5507,0.0,0.0,0.0,0.0,0.0,0.0,0.0,0.0,0.0,0.0,0.0,0.0,0.0,0.0,0.0,0.0,0.0,0.0,0.0,0.0,0.0,0.0,0.0,0.0,0.0,0.0,0.0,0.0,0.0,0.0,0.0,0.0,0.0,0.0,0.0,0.0,0.0,0.0,4.6167,4.5645,4.6329,4.6488,4.6296,4.6388,0.0,0.0,0.0,0.0,0.0,0.0,0.0,0.0,3.9884,3.9792,3.9702,3.9627,3.9063,3.8788,4.0365,4.0816,4.1417,4.3956,4.6628,0.0,5.1528,5.4056,5.6299,5.7522,0.0,5.5085,5.6624,5.5648,5.5122,5.6662,5.7525,5.8014,5.8014,5.8014,5.7713,5.6887,5.6699,5.6324,5.548,5.5293,5.4672,5.3186,5.2998,5.2623,5.1818,5.1743,5.1668,5.1668,5.1743,5.178,5.1668,5.1743,5.1748,5.1699,5.2536,5.2401,5.1452,5.2786,5.3367,5.3224,5.2197,5.1571,5.136,5.1871,5.2052,5.213,5.293,5.364,5.4208,5.4279,5.477,5.5402,0.0,0.0,0.0,0.0,0.0,0.0,0.0,0.0,0.0,0.0,0.0,0.0,0.0,0.0,0.0,0.0,0.0,0.0,0.0,0.0,0.0,0.0,0.0,0.0,0.0,0.0,0.0,0.0,0.0,0.0,0.0,0.0,0.0,0.0,0.0,0.0,0.0,4.3542,4.3388,4.3775,4.3135,4.3615,4.463,4.381,4.3204,0.0,0.0,0.0,0.0,0.0,0.0,0.0,3.9884,4.0207,4.0403,3.9777,3.9477,3.9552,4.0516,4.0816,0.0,4.4646,4.8456,5.1726,5.2975,5.4344,5.5351,5.522,5.5836,5.6474,5.6812,5.6624,5.6474,5.6849,5.7037,5.715,5.715,5.715,5.6849,5.5968,5.531,5.4634,5.3808,5.3095,5.2569,5.2193,5.1593,5.1158,5.0954,5.0353,5.0016,5.0016,5.0616,5.0654,5.0016,5.0654,5.0705,5.0268,5.0666,5.0841,5.0845,5.2589,5.3036,5.2374,5.2114,5.1882,5.1668,5.2349,5.2511,5.2395,5.3172,5.3485,5.3506,5.4103,5.4419,5.4665,0.0,0.0,0.0,0.0,0.0,0.0,0.0,0.0,0.0,0.0,0.0,0.0,0.0,0.0,0.0,0.0,0.0,0.0,0.0,0.0,0.0,0.0,0.0,0.0,0.0,0.0,0.0,0.0,0.0,0.0,0.0,0.0,0.0,0.0,0.0,0.0,0.0,4.3561,4.3285,4.3279,4.3156,4.3535,4.4162,4.3722,4.2961,0.0,0.0,0.0,0.0,0.0,0.0,0.0,0.0,0.0,4.0408,3.9879,3.9429,3.9392,0.0,0.0,0.0,4.5885,0.0,5.1292,5.25,5.3202,5.3535,5.3252,5.4656,5.5965,5.6246,5.5948,5.5836,5.6211,5.6286,5.6286,5.6286,5.5948,5.5385,5.4559,5.3695,5.3057,5.2606,5.2156,5.1743,5.1367,5.0917,5.0504,5.0128,4.9715,4.949,4.949,4.9903,4.9903,4.949,4.9903,4.9898,4.9433,4.9963,5.038,5.0643,5.2018,5.2448,5.2102,5.2102,5.1956,5.1708,5.2136,5.2177,5.2119,5.2536,5.2821,5.305,5.3301,5.388,5.4521,0.0,0.0,0.0,0.0,0.0,0.0,0.0,0.0,0.0,0.0,0.0,0.0,0.0,0.0,0.0,0.0,0.0,0.0,0.0,0.0,0.0,0.0,0.0,0.0,0.0,0.0,0.0,0.0,0.0,0.0,0.0,0.0,0.0,0.0,0.0,0.0,0.0,4.4284,4.375,4.3131,4.3711,4.3904,4.3835,0.0,0.0,0.0,0.0,0.0,0.0,4.0816,0.0,0.0,0.0,0.0,4.0167,4.0,3.933,0.0,0.0,0.0,4.2431,4.6523,4.8438,0.0,5.1221,5.1666,5.1833,5.1952,5.333,5.4676,5.5098,5.4747,5.4634,5.5255,5.5368,5.533,5.5218,5.4597,5.3883,5.3074,5.2231,5.1705,5.1705,5.1555,5.1217,5.0557,5.0466,5.0203,4.9527,4.949,4.949,4.949,4.949,4.949,4.949,4.9443,4.9246,4.8942,4.9578,5.0027,5.0321,5.1015,5.1464,5.1778,5.2066,5.1946,5.1643,5.1786,5.1833,5.1783,5.1783,5.2101,5.2543,5.2414,5.3262,5.4416,0.0,0.0,0.0,0.0,0.0,0.0,0.0,0.0,0.0,0.0,0.0,0.0,0.0,0.0,0.0,0.0,0.0,0.0,0.0,0.0,0.0,0.0,0.0,0.0,0.0,0.0,0.0,0.0,0.0,0.0,0.0,0.0,0.0,0.0,0.0,0.0,0.0,0.0,4.228,4.2125,4.1545,4.1693,0.0,0.0,0.0,0.0,0.0,0.0,0.0,0.0,4.0686,0.0,0.0,0.0,4.0196,4.0177,3.9557,0.0,0.0,0.0,4.4144,0.0,4.6711,4.8679,0.0,0.0,5.1557,5.2125,5.2862,5.3424,5.3524,5.3996,5.4446,5.4559,5.4559,5.4334,5.3637,5.3449,5.3019,5.2193,5.1367,5.0857,5.0857,5.0241,4.979,4.9678,4.9678,4.9602,4.9527,4.949,4.949,4.949,4.949,4.949,4.949,4.923,4.8942,4.866,4.8241,4.8426,4.914,4.9249,4.9677,5.0443,5.1855,5.2012,5.1411,5.2098,5.2246,5.2054,5.2054,5.1819,5.1563,5.2183,5.2835,5.3493,0.0,0.0,0.0,0.0,0.0,0.0,0.0,0.0,0.0,0.0,0.0,0.0,0.0,0.0,0.0,0.0,0.0,0.0,0.0,0.0,0.0,0.0,0.0,0.0,0.0,0.0,0.0,0.0,0.0,0.0,0.0,4.5111,4.6715,0.0,0.0,0.0,0.0,0.0,0.0,0.0,0.0,0.0,0.0,0.0,0.0,0.0,0.0,0.0,0.0,0.0,4.0751,4.0649,4.0528,0.0,0.0,0.0,4.0098,0.0,4.087,4.1475,4.2285,0.0,4.5322,4.6492,4.7966,4.8579,4.9112,4.9944,5.0711,5.1478,5.2322,5.2757,5.3019,5.3019,5.3019,5.2869,5.2531,5.2097,5.1646,5.1255,5.0597,5.0124,5.0031,4.977,4.9582,4.949,4.949,4.949,4.949,4.949,4.949,4.949,4.949,4.9427,4.923,4.9077,4.8766,4.8307,4.7891,4.7895,4.8221,4.8692,4.9329,5.0184,5.1321,5.1611,5.1357,5.2154,5.234,5.2102,5.2102,5.1882,5.1541,5.1705,5.2492,5.345,0.0,0.0,0.0,0.0,0.0,0.0,0.0,0.0,0.0,0.0,0.0,0.0,0.0,0.0,0.0,0.0,0.0,0.0,0.0,0.0,0.0,0.0,0.0,0.0,0.0,0.0,0.0,0.0,0.0,0.0,4.3274,4.4855,4.6937,0.0,4.6937,0.0,0.0,0.0,0.0,0.0,0.0,0.0,0.0,0.0,0.0,0.0,0.0,0.0,0.0,0.0,0.0,0.0,4.0636,4.0694,0.0,0.0,0.0,0.0,0.0,0.0,4.0673,4.2787,4.3775,4.4626,0.0,4.6459,4.6779,4.7909,4.8682,4.9485,5.0568,5.1441,5.2021,5.2021,5.2021,5.1946,5.172,5.1193,5.0741,5.053,5.007,4.9707,4.9627,4.9692,4.9692,4.9567,4.9551,4.9536,4.949,4.949,4.949,4.949,4.949,4.9327,4.901,4.8836,4.8514,4.7975,4.7804,4.7699,4.7735,4.8511,4.922,4.9836,5.085,5.1285,5.1357,5.2085,5.2269,5.2102,5.2029,5.1858,5.1546,5.1376,5.2201,5.3462,0.0,0.0,0.0,0.0,0.0,0.0,0.0,0.0,0.0,0.0,0.0,0.0,0.0,0.0,0.0,0.0,0.0,0.0,0.0,0.0,0.0,0.0,0.0,0.0,0.0,0.0,0.0,0.0,0.0,0.0,4.4166,4.5059,4.6557,4.843,4.7456,4.6528,4.5613,0.0,0.0,0.0,0.0,0.0,0.0,0.0,0.0,0.0,0.0,0.0,0.0,0.0,0.0,0.0,0.0,0.0,0.0,0.0,0.0,0.0,0.0,4.0248,0.0,4.023,4.1829,4.3768,4.4623,4.4928,4.5483,4.7124,4.7568,4.7706,4.763,5.0217,5.239,5.239,5.239,5.2087,5.1239,5.1088,5.0799,5.0017,4.9917,4.9879,4.9866,4.9866,4.9811,4.9692,4.9678,4.9619,4.949,4.949,4.949,4.949,4.949,4.9327,4.901,4.8439,4.7995,4.772,4.7699,4.7699,4.7735,4.8511,4.8909,4.9054,5.0633,5.1285,5.1357,5.1897,5.2126,5.2078,5.1833,5.1582,5.1324,5.1324,5.2129,5.3218,0.0,0.0,0.0,0.0,0.0,0.0,0.0,0.0,0.0,0.0,0.0,0.0,0.0,0.0,0.0,0.0,0.0,0.0,0.0,0.0,0.0,0.0,0.0,0.0,0.0,0.0,0.0,0.0,0.0,4.1344,4.2802,4.4135,4.5186,4.5947,4.6028,4.5696,4.491,4.3208,0.0,0.0,0.0,0.0,0.0,0.0,0.0,0.0,0.0,0.0,0.0,0.0,0.0,0.0,0.0,0.0,0.0,0.0,0.0,0.0,0.0,0.0,0.0,3.972,4.0522,4.1524,4.2787,4.3604,4.4407,4.5656,4.6399,4.7017,4.7536,4.8504,4.9184,4.9184,4.9184,4.9259,4.9487,4.907,4.9032,4.9817,4.9466,4.9378,4.9855,4.9959,4.9958,4.9721,4.9692,4.9634,4.949,4.949,4.949,4.949,4.949,4.9246,4.8767,4.8151,4.7804,4.7699,4.7699,4.7699,4.7735,4.8025,4.8713,4.9691,5.0114,5.0587,5.1092,5.1826,5.1907,5.1582,5.1505,5.1272,5.1034,5.1034,5.1966,5.3218,0.0,0.0,0.0,0.0,0.0,0.0,0.0,0.0,0.0,0.0,0.0,0.0,0.0,0.0,0.0,0.0,0.0,0.0,0.0,0.0,0.0,0.0,0.0,0.0,0.0,0.0,0.0,0.0,0.0,0.0,0.0,0.0,4.3774,4.4168,4.4284,0.0,0.0,0.0,0.0,4.2009,0.0,0.0,4.1633,0.0,0.0,0.0,0.0,0.0,0.0,0.0,0.0,0.0,0.0,0.0,0.0,0.0,0.0,0.0,3.8379,0.0,0.0,0.0,3.9772,4.0327,4.155,4.2567,4.3453,4.4184,4.5235,4.6221,4.686,4.6824,4.6896,4.7453,4.7529,4.7719,4.8251,4.7871,4.796,4.9062,4.9035,4.9098,4.9581,4.9949,4.9924,4.9414,4.9363,4.9263,4.9055,4.9077,4.9189,4.949,4.9279,4.8993,4.8587,4.7992,4.7699,4.7699,4.7699,4.7699,4.7735,4.8279,4.9075,5.0126,5.0384,5.0807,5.1347,5.1692,5.1632,5.1298,5.1193,5.1061,5.0873,5.0873,5.1856,5.3218,0.0,0.0,0.0,0.0,0.0,0.0,0.0,0.0,0.0,0.0,0.0,0.0,0.0,0.0,0.0,0.0,0.0,0.0,0.0,0.0,0.0,0.0,0.0,0.0,0.0,0.0,0.0,0.0,0.0,0.0,0.0,0.0,4.2434,0.0,4.2396,4.3401,4.5575,0.0,4.375,4.4291,0.0,4.1865,4.3266,0.0,0.0,0.0,4.2493,4.2188,0.0,4.1209,0.0,0.0,0.0,0.0,0.0,0.0,0.0,0.0,0.0,0.0,0.0,0.0,0.0,4.0301,4.0913,4.1868,4.2595,4.2774,4.4131,4.5288,4.5288,4.5288,4.5812,4.7444,4.7712,4.7712,4.775,4.775,4.775,4.7788,4.8487,4.8995,4.9071,4.9786,4.9794,4.8768,4.8717,4.8583,4.8281,4.8251,4.8626,4.949,4.8907,4.8624,4.8624,4.7992,4.7699,4.7699,4.7699,4.7714,4.7787,4.9329,5.009,5.0198,5.1477,5.2042,5.2054,5.1531,5.1298,5.1272,5.0981,5.0873,5.0873,5.0873,5.1856,5.3218,0.0,0.0,0.0,0.0,0.0,0.0,0.0,0.0,0.0,0.0,0.0,0.0,0.0,0.0,0.0,0.0,0.0,0.0,0.0,0.0,0.0,0.0,0.0,0.0,0.0,0.0,0.0,0.0,0.0,0.0,0.0,0.0,0.0,0.0,4.2783,4.2976,4.2976,4.1957,0.0,0.0,4.2005,4.2072,0.0,0.0,0.0,0.0,0.0,4.218,4.2146,0.0,4.183,4.1815,0.0,0.0,0.0,0.0,0.0,0.0,3.8766,0.0,0.0,0.0,0.0,0.0,4.0078,4.1109,4.2,4.2669,4.4131,4.5288,4.5288,4.4781,4.4743,4.5812,4.6003,4.6194,4.6768,4.6347,4.6424,4.7674,4.6959,4.6844,4.8028,4.8361,4.8524,4.8642,4.9197,4.9452,4.9167,4.9152,4.9265,4.949,4.8907,4.8624,4.8624,4.7992,4.7699,4.7699,4.7699,4.8004,4.8583,4.8842,4.9568,5.0685,5.0662,5.0997,5.1531,5.1376,5.1193,5.0981,5.0927,5.0873,5.0873,5.0873,5.1856,5.3218,0.0,0.0,0.0,0.0,0.0,0.0,0.0,0.0,0.0,0.0,0.0,0.0,0.0,0.0,0.0,0.0,0.0,0.0,0.0,0.0,0.0,0.0,0.0,0.0,0.0,0.0,0.0,0.0,0.0,0.0,0.0,0.0,0.0,0.0,0.0,0.0,0.0,0.0,0.0,0.0,4.1879,0.0,0.0,4.2475,4.2646,0.0,0.0,0.0,4.3161,4.2387,4.1911,0.0,0.0,0.0,0.0,0.0,0.0,0.0,0.0,0.0,0.0,0.0,0.0,0.0,3.9384,4.0053,4.0501,4.0654,4.203,4.3329,4.3634,4.3291,4.3252,4.4131,4.4246,4.4666,4.5851,4.5583,4.566,4.6653,4.5889,4.5812,4.715,4.722,4.7334,4.758,4.802,4.8338,4.8454,4.8776,4.9068,4.9295,4.8838,4.8514,4.8383,4.7911,4.7699,4.7699,4.7699,4.7889,4.8273,4.8767,4.9444,5.0259,5.0485,5.0873,5.1298,5.1193,5.1034,5.0873,5.0873,5.0873,5.0943,5.1259,5.2137,5.3254,0.0,0.0,0.0,0.0,0.0,0.0,0.0,0.0,0.0,0.0,0.0,0.0,0.0,0.0,0.0,0.0,0.0,0.0,0.0,0.0,0.0,0.0,0.0,0.0,0.0,0.0,0.0,0.0,0.0,0.0,0.0,0.0,0.0,0.0,0.0,0.0,0.0,0.0,0.0,4.3123,4.1623,4.246,0.0,0.0,4.3316,4.4559,4.3899,4.4093,4.4393,4.2598,4.1478,0.0,0.0,0.0,0.0,0.0,4.0985,0.0,0.0,0.0,0.0,0.0,0.0,0.0,3.9065,3.9218,3.9029,3.8065,3.9317,4.0769,4.138,4.1495,4.18,4.2641,4.2717,4.3252,4.4934,4.5163,4.5163,4.5163,4.5086,4.5316,4.6003,4.6085,4.6121,4.6064,4.6074,4.6416,4.7057,4.7755,4.8396,4.8939,4.8677,4.8402,4.8114,4.7829,4.7699,4.7699,4.7657,4.7587,4.7499,4.8834,4.9447,4.9459,5.0632,5.1166,5.1246,5.0981,5.0873,5.0873,5.0873,5.0943,5.1084,5.1786,5.2558,5.3401,0.0,0.0,0.0,0.0,0.0,0.0,0.0,0.0,0.0,0.0,0.0,0.0,0.0,0.0,0.0,0.0,0.0,0.0,0.0,0.0,0.0,0.0,0.0,0.0,0.0,0.0,0.0,0.0,0.0,0.0,0.0,0.0,0.0,0.0,0.0,0.0,0.0,0.0,0.0,4.241,4.2092,0.0,4.3694,4.335,4.3471,4.3821,4.4365,4.421,4.3573,4.2404,4.1478,4.1046,0.0,0.0,0.0,4.1709,0.0,0.0,0.0,0.0,0.0,0.0,0.0,0.0,4.0268,4.0658,4.0701,3.9076,4.0654,4.2144,4.1609,4.1495,4.18,4.2641,4.2221,4.2335,4.4006,4.4236,4.4236,4.4236,4.3673,4.3367,4.352,4.3988,4.4551,4.5091,4.618,4.7065,4.7618,4.7788,4.812,4.8659,4.8364,4.8173,4.8114,4.7829,4.7699,4.7678,4.7472,4.7687,4.8268,4.82,4.8802,4.9958,4.9995,5.0383,5.0954,5.09,5.0873,5.0873,5.0873,5.1259,5.1821,5.1961,5.2874,5.4103,0.0,0.0,0.0,0.0,0.0,0.0,0.0,0.0,0.0,0.0,0.0,0.0,0.0,0.0,0.0,0.0,0.0,0.0,0.0,0.0,0.0,0.0,0.0,0.0,0.0,0.0,0.0,0.0,0.0,0.0,0.0,0.0,0.0,0.0,0.0,0.0,0.0,0.0,4.2233,4.3373,4.2068,0.0,4.3466,4.3005,4.3394,4.421,4.4637,4.4494,4.3901,4.2918,4.2338,0.0,4.2473,4.2098,4.1673,0.0,4.2228,4.1723,0.0,0.0,0.0,4.3194,0.0,0.0,0.0,4.0364,4.0104,3.9182,3.9661,4.0387,4.0807,4.054,4.054,4.1418,4.0807,4.0845,4.2526,4.3472,4.4006,4.4006,4.3624,4.3385,4.3372,4.3558,4.393,4.4452,4.5161,4.5976,4.6908,4.6965,4.7383,4.8328,4.8192,4.8035,4.7911,4.7783,4.7636,4.7493,4.7363,4.7402,4.7568,4.7737,4.8357,4.9325,4.9583,5.0162,5.0873,5.0873,5.0873,5.0873,5.0873,5.1365,5.2067,5.2453,5.3331,5.4384,0.0,0.0,0.0,0.0,0.0,0.0,0.0,0.0,0.0,0.0,0.0,0.0,0.0,0.0,0.0,0.0,0.0,0.0,0.0,0.0,0.0,0.0,0.0,4.0713,0.0,0.0,0.0,0.0,0.0,0.0,0.0,0.0,0.0,0.0,0.0,0.0,0.0,0.0,0.0,4.4365,0.0,4.2422,4.3899,4.3044,4.3666,4.4986,4.4676,4.4594,4.4485,4.3336,4.3131,4.3221,4.2626,4.2285,0.0,0.0,0.0,0.0,0.0,0.0,0.0,0.0,0.0,4.2302,0.0,0.0,0.0,3.9355,3.8935,3.9011,4.011,3.9728,3.947,4.0186,3.9584,3.947,4.0845,4.245,4.3576,4.3708,4.3594,4.3514,4.3596,4.3585,4.3692,4.408,4.4109,4.4676,4.595,4.6044,4.6636,4.7979,4.8015,4.7931,4.7699,4.7657,4.7493,4.732,4.7232,4.6985,4.6625,4.7214,4.7879,4.853,4.9188,5.003,5.0873,5.0873,5.0873,5.0873,5.0873,5.1365,5.2102,5.2874,5.3647,5.4419,0.0,0.0,0.0,0.0,0.0,0.0,0.0,0.0,0.0,0.0,0.0,0.0,0.0,0.0,0.0,0.0,0.0,0.0,4.2522,0.0,0.0,0.0,0.0,0.0,4.0516,0.0,0.0,0.0,0.0,0.0,0.0,0.0,0.0,0.0,4.0875,0.0,0.0,0.0,4.2654,0.0,4.3311,4.421,0.0,4.4792,4.5064,4.5691,4.4171,4.4127,4.4494,0.0,4.264,4.3427,0.0,4.3266,4.221,4.3218,0.0,0.0,0.0,0.0,0.0,0.0,4.5349,4.4657,4.3073,0.0,4.2955,4.0644,0.0,4.1839,4.053,0.0,0.0,4.0263,3.9584,3.9088,3.9279,4.0731,4.2028,4.2688,4.2068,4.1863,4.25,4.3088,4.3625,4.4065,4.4109,4.4596,4.5682,4.5754,4.6353,4.7689,4.7741,4.772,4.7699,4.745,4.7341,4.7298,4.6893,4.6661,4.659,4.6456,4.7151,4.8495,4.8661,4.9539,5.0873,5.0873,5.0873,5.0873,5.0873,5.1365,5.2102,5.2874,5.3647,5.4419,0.0,0.0,0.0,0.0,0.0,0.0,0.0,0.0,0.0,0.0,0.0,0.0,0.0,0.0,0.0,0.0,0.0,4.2872,0.0,0.0,0.0,0.0,0.0,0.0,0.0,0.0,0.0,0.0,4.0414,0.0,0.0,0.0,0.0,0.0,4.0959,0.0,4.4015,0.0,4.4285,0.0,0.0,0.0,0.0,4.5686,4.5025,4.5258,4.5025,4.4838,4.4554,0.0,4.3769,0.0,0.0,0.0,0.0,4.3136,0.0,0.0,0.0,0.0,0.0,0.0,0.0,0.0,4.3187,4.3503,4.379,4.2689,0.0,0.0,0.0,0.0,0.0,0.0,3.9584,3.9164,3.969,3.9508,3.9776,4.0992,4.2085,4.3008,4.3668,4.3372,4.3318,4.3833,4.4153,4.4653,4.5433,4.5923,4.6626,4.7663,4.7699,4.7699,4.7699,4.7428,4.7254,4.712,4.6778,4.6518,4.6385,4.6745,4.7477,4.853,4.9012,4.9855,5.0873,5.0873,5.0873,5.0873,5.0873,5.1645,5.2734,5.3078,5.3963,5.5051,0.0,0.0,0.0,0.0,0.0,0.0,0.0,0.0,0.0,0.0,0.0,0.0,4.6569,4.6317,0.0,0.0,4.5154,4.4308,0.0,0.0,4.2147,0.0,0.0,0.0,0.0,0.0,0.0,0.0,0.0,0.0,0.0,0.0,0.0,0.0,0.0,4.2584,4.4885,0.0,4.5731,4.7239,4.7306,4.8055,4.8949,4.6696,4.5514,4.5149,4.5498,4.5317,4.4885,4.4686,4.4595,4.4446,4.3793,4.2892,4.2228,0.0,0.0,0.0,4.3504,0.0,0.0,4.3843,4.4034,4.3895,4.3025,4.3425,4.4006,4.4006,4.3749,0.0,0.0,0.0,0.0,0.0,0.0,3.9508,3.9881,3.9049,3.888,4.0228,4.2101,4.3476,4.3918,4.3329,4.302,4.3361,4.4085,4.4746,4.5256,4.6069,4.6866,4.7663,4.7699,4.7657,4.7593,4.7341,4.7098,4.6906,4.6613,4.6374,4.6214,4.68,4.7608,4.853,4.9153,4.996,5.0873,5.0873,5.0873,5.0873,5.0873,5.1821,5.3218,5.3218,5.4033,5.5227,0.0,3.7082,0.0,0.0,0.0,0.0,0.0,0.0,0.0,0.0,0.0,0.0,0.0,0.0,0.0,0.0,0.0,4.5613,4.5797,0.0,4.2297,0.0,0.0,4.2538,0.0,0.0,0.0,0.0,0.0,0.0,0.0,0.0,0.0,0.0,0.0,4.4075,4.5665,4.5782,4.6332,4.7107,4.7239,4.7312,4.7473,0.0,4.7383,4.5745,4.4931,4.509,4.5557,4.4846,4.451,4.4438,4.4511,4.3356,4.1914,0.0,0.0,0.0,4.1808,4.2486,4.297,4.3265,4.3671,4.3827,4.3088,4.3465,4.4006,4.4006,4.4666,4.4972,0.0,0.0,0.0,0.0,0.0,0.0,0.0,3.9728,4.0415,4.0994,4.1656,4.2055,4.2093,4.2585,4.2797,4.2548,4.3754,4.4746,4.5256,4.6069,4.6866,4.7663,4.7699,4.7593,4.732,4.7098,4.6906,4.6613,4.6326,4.6214,4.6214,4.6214,4.7056,4.8495,4.8591,4.9504,5.0873,5.0873,5.0873,5.0873,5.0873,5.1821,5.3218,5.3218,5.3682,5.4454,0.0,0.0,0.0,0.0,0.0,0.0,0.0,4.2902,0.0,0.0,4.6598,0.0,0.0,4.9679,4.9867,0.0,0.0,4.8668,4.7753,4.6625,0.0,0.0,0.0,4.4306,0.0,0.0,0.0,0.0,0.0,0.0,0.0,0.0,0.0,0.0,0.0,4.3369,0.0,0.0,0.0,0.0,0.0,4.7822,4.7279,4.7007,4.6175,4.5215,4.5448,4.5228,4.4886,4.5318,4.4916,4.4278,4.4336,4.322,4.1878,4.1801,4.1216,4.0774,4.1578,4.1546,4.1366,4.1942,4.222,4.2269,4.202,4.3015,4.3854,4.3329,4.3864,4.4208,0.0,0.0,0.0,0.0,0.0,0.0,0.0,3.9966,4.0089,4.0152,4.0615,4.1166,4.1726,4.1652,4.1556,4.1458,4.2685,4.3757,4.4476,4.578,4.6866,4.7663,4.7699,4.7657,4.7572,4.7201,4.6975,4.6847,4.6398,4.6214,4.6249,4.7267,4.8004,4.8565,4.9644,5.0417,5.0873,5.0873,5.0873,5.0873,5.0873,5.1505,5.2488,5.298,5.3998,5.5156,3.8173,0.0,0.0,0.0,0.0,0.0,0.0,0.0,0.0,4.6773,4.8004,0.0,5.0869,0.0,5.1447,0.0,5.1208,5.0553,4.9132,4.839,0.0,4.6177,4.5972,4.5256,0.0,0.0,0.0,0.0,0.0,4.192,0.0,0.0,0.0,0.0,0.0,4.3686,4.4977,4.599,4.6687,0.0,0.0,4.7761,0.0,4.6297,4.5803,4.5589,4.5863,4.5472,4.49,4.5652,4.5155,4.4278,4.4278,4.3341,4.2271,4.2129,4.1733,4.1484,4.198,4.1899,4.1749,4.1987,4.2029,4.1896,4.1637,4.2374,4.2947,4.245,4.2985,4.35,4.3202,0.0,0.0,0.0,0.0,0.0,0.0,3.9975,3.9796,3.9717,3.9864,4.0198,4.0756,4.0846,4.0776,4.0484,4.225,4.3425,4.3643,4.5454,4.6757,4.7265,4.7554,4.7657,4.7572,4.7201,4.6952,4.6824,4.6398,4.6214,4.6249,4.7512,4.8275,4.8565,4.989,5.0627,5.0873,5.0873,5.0873,5.0873,5.0873,5.154,5.2488,5.298,5.4173,5.5513,0.0,0.0,0.0,0.0,3.9974,0.0,0.0,4.4321,4.5992,0.0,4.9513,5.1019,5.1823,5.2714,5.2983,5.228,5.2076,5.1393,5.0093,4.9286,0.0,0.0,4.6341,4.5532,4.3774,0.0,0.0,0.0,0.0,0.0,0.0,0.0,0.0,0.0,4.4105,0.0,4.5598,4.6765,4.7159,4.6978,4.7191,4.7248,4.7062,4.6263,4.6371,4.6815,4.613,4.5719,4.5538,4.5817,4.523,4.443,4.443,4.3772,4.2953,4.2881,4.2794,4.2747,4.2887,4.3398,4.3809,4.3225,4.2953,4.2604,4.1852,4.1627,4.1533,4.1457,4.2135,4.2906,4.3553,0.0,0.0,0.0,0.0,0.0,0.0,0.0,3.9757,3.9795,3.9413,3.9202,3.9239,4.0209,4.049,3.9739,4.2341,4.3643,4.2882,4.5108,4.6447,4.6463,4.7259,4.7551,4.7298,4.7075,4.6824,4.659,4.6326,4.6214,4.6284,4.7081,4.7854,4.86,4.9398,5.0171,5.0873,5.0873,5.0873,5.0873,5.0873,5.1821,5.319,5.326,5.4244,5.5653,4.0048,4.0531,4.1349,0.0,4.2426,4.25,4.354,4.5621,4.7664,4.9262,5.1005,5.2487,5.3532,5.3749,5.3821,5.3962,5.3956,0.0,0.0,0.0,0.0,4.9281,4.947,4.8452,4.5824,4.6186,4.558,4.3893,0.0,0.0,4.1824,0.0,0.0,0.0,0.0,0.0,4.5726,4.6711,4.7432,4.7833,4.7249,4.7372,4.7743,4.6305,4.6221,4.6737,4.619,4.5841,4.5648,4.5712,4.5466,4.5064,4.5064,4.4039,4.2967,4.353,4.2794,4.1963,4.2652,4.2976,4.3081,4.2919,4.2852,4.2574,4.1734,4.202,4.2086,4.0738,4.1109,4.1736,4.1846,4.2226,0.0,0.0,0.0,0.0,0.0,0.0,4.0551,4.1044,3.9839,3.9186,3.9801,3.9808,3.969,3.9472,4.1252,4.2155,4.1787,4.4021,4.5522,4.5946,4.6771,4.7156,4.7053,4.6824,4.6661,4.659,4.6326,4.6495,4.7116,4.7924,4.8696,4.9434,5.0241,5.0697,5.0873,5.0873,5.0873,5.0873,5.0873,5.1766,5.3124,5.4244,5.5294,5.6174,4.0531,0.0,0.0,4.3838,0.0,4.5111,4.5547,4.7234,4.8931,5.0185,5.1775,5.3075,5.3762,5.3938,5.4128,5.4439,5.4522,0.0,5.3602,0.0,0.0,5.0698,5.0027,4.8617,4.6189,4.5682,0.0,4.3952,0.0,0.0,4.2659,0.0,0.0,0.0,0.0,4.5252,4.6062,4.7088,4.7796,4.8214,4.727,4.7144,0.0,4.6166,4.5915,4.6251,4.6334,4.6073,4.5607,4.5665,4.559,4.54,4.495,4.4432,4.3991,4.3989,4.3596,4.3252,4.3749,4.3596,4.3405,4.3787,4.3288,4.2571,4.2075,4.2034,4.1677,4.0311,4.0387,4.0772,4.1079,4.1204,0.0,0.0,0.0,0.0,0.0,0.0,0.0,4.0911,3.9616,3.9022,3.9853,3.9899,3.9767,3.9405,4.0854,4.1486,4.0883,4.2769,4.4339,4.5235,4.6391,4.6998,4.6998,4.7086,4.6944,4.659,4.6678,4.6976,4.7432,4.8556,4.9293,4.9741,5.0557,5.0873,5.0873,5.0873,5.0873,5.0943,5.1528,5.2396,5.341,5.46,5.5571,5.6299,4.1126,0.0,0.0,0.0,0.0,4.8021,4.8198,4.907,5.0018,5.0867,5.2328,5.3333,5.3405,5.3866,5.4233,5.446,5.4455,5.428,5.3817,5.3528,5.2794,5.1416,4.9414,4.757,4.5956,4.4499,4.3751,0.0,4.3639,4.3623,0.0,0.0,0.0,0.0,0.0,0.0,0.0,4.79,4.844,4.8555,4.7593,4.7124,4.6954,4.6236,4.5902,4.5927,4.6737,4.645,4.5695,4.5924,4.5995,4.58,4.4947,4.5025,4.5314,4.4554,4.4704,4.5163,4.5288,4.4743,4.435,4.5125,4.4086,4.2884,4.2781,4.2085,4.1188,4.037,4.0219,4.0439,4.1153,4.0925,0.0,0.0,0.0,0.0,0.0,0.0,0.0,0.0,3.9496,0.0,3.9889,4.018,4.013,3.9586,4.0872,4.1287,4.0378,4.1832,4.3274,4.4484,4.598,4.6835,4.7048,4.7405,4.7356,4.6861,4.7241,4.7503,4.7748,4.9082,4.9776,4.9916,5.0592,5.0873,5.0873,5.0873,5.0943,5.1162,5.2472,5.3311,5.3857,5.4637,5.5466,5.6255,4.328,0.0,0.0,0.0,0.0,4.9321,5.0715,5.1136,5.1598,5.2422,5.3536,5.4374,5.4658,5.48,5.5026,5.5351,5.5349,0.0,0.0,0.0,0.0,5.279,5.0417,4.8498,4.7111,4.547,4.4611,4.4611,4.3756,4.3429,0.0,0.0,0.0,0.0,0.0,0.0,4.8862,4.9708,0.0,4.9882,4.9045,4.8717,4.8581,4.7761,4.7406,4.7422,4.7559,4.7144,4.6589,4.7338,4.7529,4.7416,4.7231,4.6313,4.5434,4.5938,4.5191,4.4388,4.5086,4.5201,4.5125,4.525,4.4963,4.4456,4.3732,4.3365,4.2908,4.1994,4.1781,4.2008,4.276,4.3709,4.4386,0.0,4.4256,4.4336,4.5171,0.0,0.0,0.0,0.0,4.0002,4.1216,4.0292,3.9804,4.0257,4.1162,4.1484,4.0974,4.2435,4.3493,4.399,4.4941,4.6033,4.7336,4.6769,4.7061,4.815,4.7668,4.8064,4.9319,4.96,5.0057,5.0697,5.0838,5.0873,5.0873,5.0873,5.1177,5.1773,5.2984,5.3524,5.3775,5.5003,5.5973,5.6696,4.5242,0.0,0.0,0.0,0.0,5.0912,5.2143,5.2755,5.3103,5.3144,5.3591,5.4004,5.4197,5.4496,5.4746,5.4976,5.4995,5.478,5.4376,5.4116,5.334,5.1916,5.0266,4.8694,4.7216,4.5943,4.5264,4.5264,4.4377,4.4189,0.0,0.0,0.0,0.0,0.0,4.8403,0.0,0.0,5.0407,5.0331,4.9449,4.911,4.8984,4.8143,4.7788,4.7865,4.8296,4.8236,4.7956,4.7907,4.7854,4.7712,4.7253,4.6882,4.65,4.6003,4.5927,4.5955,4.5927,4.5621,4.5382,4.5775,4.5103,4.4189,4.3751,4.3516,4.3177,4.2272,4.2096,4.2307,4.2904,4.3712,4.4446,4.4983,4.4999,4.5139,4.5791,4.4051,4.2922,0.0,0.0,0.0,4.0721,3.9696,3.9446,4.0438,4.1142,4.1423,4.1129,4.17,4.2603,4.3875,4.4694,4.5852,4.7362,4.7397,4.7758,4.8495,4.8556,4.8977,4.9706,5.0101,5.0522,5.0873,5.0873,5.0873,5.0908,5.1247,5.1891,5.2839,5.3801,5.4371,5.4762,5.5837,5.6702,5.7357,0.0,4.8167,0.0,0.0,5.154,5.2752,5.3219,5.4057,5.4401,5.3714,5.3641,5.3717,5.3777,5.4182,5.4522,5.4549,5.4565,5.4226,5.3396,5.3208,5.2385,5.0854,4.9823,4.8664,4.7274,4.6411,4.5998,4.5998,4.5345,4.5158,4.5435,0.0,0.0,0.0,0.0,0.0,5.0751,5.0845,5.0806,5.0632,4.9908,4.9507,4.9255,4.859,4.8323,4.8399,4.9098,4.9377,4.9289,4.8793,4.8476,4.8208,4.7532,4.7646,4.7837,4.65,4.692,4.7635,4.6948,4.6287,4.5949,4.6496,4.5366,4.4083,4.4033,4.3777,4.3369,4.268,4.268,4.2926,4.3326,4.3818,4.4393,4.504,4.5389,4.5653,4.5862,4.4491,4.3396,0.0,0.0,0.0,4.0162,3.9572,3.9582,4.0546,4.0902,4.1141,4.1263,4.1115,4.1894,4.3839,4.4694,4.5923,4.7608,4.824,4.8696,4.9047,4.9469,4.9811,4.9987,5.0592,5.0873,5.0873,5.0873,5.0978,5.1189,5.1913,5.2898,5.3944,5.4645,5.528,5.5977,5.6736,5.7391,5.7909,0.0,0.0,0.0,5.3521,5.455,5.4943,5.4354,5.4955,5.5197,5.4405,5.4532,5.4678,5.4678,5.4947,5.5134,5.5134,5.5134,5.4803,5.3964,5.3188,5.2246,5.1092,4.9549,4.8503,4.8116,4.7274,4.6899,4.6899,4.6824,4.6021,4.4632,4.6214,0.0,0.0,4.9686,5.0635,5.1541,5.2368,5.2173,5.1332,5.1355,5.0822,4.9999,5.0045,5.0054,5.0092,5.0168,5.0206,5.0283,5.1009,5.0741,5.0054,4.9977,4.948,4.8957,4.8804,4.8296,4.7788,4.7712,4.7518,4.7398,4.7462,4.6594,4.5668,4.5693,4.5006,4.4369,4.4294,4.4871,4.5345,4.5406,4.6259,4.672,4.6077,4.6211,4.6388,4.64,4.5022,4.4219,4.4721,0.0,0.0,4.1022,4.0931,4.0915,4.1062,4.0435,4.0566,4.1761,4.1789,4.2423,4.3875,4.4694,4.6168,4.8355,4.8521,4.9293,5.0662,4.9995,5.0092,5.0768,5.0873,5.0873,5.0873,5.0873,5.1294,5.2004,5.316,5.4091,5.49,5.5346,5.5977,5.6771,5.7529,5.784,5.8012,5.1832,5.2373,5.2973,5.4132,5.462,5.475,5.4446,5.4672,5.4747,5.4446,5.4489,5.4549,5.4549,5.4661,5.4716,5.4716,5.4716,5.4148,5.2824,5.2408,5.1593,5.0191,4.9498,4.8836,4.8228,4.8401,4.8251,4.7725,4.7725,4.7431,4.684,4.7603,4.8867,5.0431,5.1294,5.1915,5.2346,5.2736,5.2308,5.1396,5.1447,5.0888,4.9986,5.0114,5.0163,5.0175,5.0248,5.0283,5.0359,5.0703,5.0932,5.1085,5.1085,5.0856,5.0397,4.9415,4.9213,4.9213,4.8716,4.8433,4.8313,4.8239,4.7426,4.6646,4.6586,4.6266,4.5983,4.5983,4.5848,4.591,4.6557,4.6331,4.633,4.6961,4.6898,4.6852,4.7177,4.625,4.5369,4.4892,0.0,4.2323,4.1485,4.1004,4.111,4.2043,4.1498,4.1307,4.186,4.226,4.2889,4.3851,4.5115,4.6635,4.8556,4.9012,4.9785,5.0873,5.0557,5.0619,5.0908,5.1365,5.1821,5.2242,5.1786,5.2222,5.3299,5.3659,5.4483,5.5605,5.6144,5.6805,5.7564,5.8288,5.8564,5.8668,5.3337,5.3562,5.39,5.4934,5.5122,5.5047,5.4784,5.4747,5.4672,5.4446,5.4409,5.4409,5.4409,5.4409,5.4409,5.4409,5.4183,5.3433,5.2006,5.1668,5.0917,4.9565,4.949,4.9227,4.8589,4.9189,4.9189,4.8589,4.8589,4.8415,4.807,4.8445,4.977,5.1853,5.2679,5.3099,5.3187,5.3378,5.2793,5.1673,5.1673,5.0933,4.9876,5.0238,5.0405,5.0456,5.0774,5.0735,5.0583,5.0849,5.1179,5.1495,5.1302,5.1238,5.1009,4.9786,4.9862,5.0168,4.9595,4.9286,4.9087,4.8996,4.8229,4.7481,4.7364,4.7162,4.7012,4.7012,4.6427,4.6224,4.7265,4.6547,4.6135,4.7292,4.7292,4.7183,4.7322,4.6804,4.5951,4.4836,4.4135,4.3194,4.1754,4.1323,4.1534,4.2377,4.2264,4.2247,4.2458,4.269,4.3254,4.4202,4.5747,4.7222,4.8591,4.9574,5.0311,5.0873,5.1119,5.1224,5.1259,5.1997,5.2664,5.3183,5.2839,5.321,5.4174,5.4147,5.5004,5.6368,5.6696,5.7391,5.8288,5.8806,5.915,5.9426,5.4071,5.4409,5.4897,5.6587,5.6849,5.6587,5.5706,5.5593,5.5293,5.4484,5.4409,5.4409,5.4409,5.4409,5.4409,5.4409,5.3658,5.2848,5.1968,5.1142,5.0353,4.9527,4.949,4.949,4.949,4.949,4.949,4.949,4.949,4.8716,4.7216,4.8353,5.0302,5.2805,5.3683,5.4065,5.4129,5.48,5.4016,5.2395,5.2381,5.131,4.9797,5.0733,5.1078,5.1192,5.2077,5.1812,5.1244,5.2077,5.1947,5.1269,5.0553,5.0321,5.0321,5.0283,5.0283,5.0283,5.0283,5.0101,4.9893,4.9893,4.9027,4.8176,4.8176,4.7575,4.7012,4.7012,4.6741,4.6754,4.7632,4.7296,4.6907,4.6907,4.7325,4.7409,4.6649,4.626,4.576,4.4814,4.4445,4.3597,4.1767,4.2306,4.2447,4.1674,4.2342,4.3114,4.3816,4.3184,4.35,4.5045,4.659,4.7783,4.8591,5.0101,5.0873,5.0908,5.1645,5.1997,5.2032,5.2804,5.3218,5.3254,5.3963,5.4279,5.432,5.483,5.5897,5.7257,5.6936,5.7702,5.9012,5.9012,5.9495,6.0185,5.5761,5.5648,5.5573,5.6699,5.6887,5.6624,5.5743,5.6081,5.6174,5.533,5.5218,5.501,5.4446,5.4409,5.4183,5.3637,5.3337,5.2623,5.118,5.0842,5.0316,4.9527,4.949,4.949,4.949,4.949,4.949,4.949,4.9597,5.0066,5.0884,5.1955,5.32,5.46,5.4868,5.4893,5.48,5.5026,5.4325,5.3014,5.25,5.1488,5.0425,5.0824,5.0959,5.1011,5.1377,5.1343,5.104,5.0789,5.0564,5.0352,5.0088,5.0558,5.1085,5.0474,5.0283,5.0259,5.0175,5.0025,4.9866,4.9792,4.9431,4.9077,4.9077,4.8889,4.8701,4.8701,4.8152,4.781,4.8264,4.7701,4.7148,4.7177,4.7313,4.7291,4.6886,4.6762,4.6306,4.5298,4.5113,4.4551,4.3277,4.3395,4.3676,4.3957,4.3711,4.343,4.3184,4.3921,4.4589,4.508,4.7081,4.8275,4.8556,5.0101,5.1154,5.1645,5.1891,5.2558,5.3576,5.3296,5.3752,5.4735,5.4454,5.463,5.5162,5.5567,5.6349,5.7326,5.7489,5.815,5.9012,5.9012,5.953,6.0254,5.6211,5.5968,5.5781,5.6324,5.6399,5.6136,5.5272,5.6136,5.6474,5.5293,5.5405,5.5293,5.4484,5.4409,5.4071,5.3261,5.2923,5.2135,5.0782,5.0429,5.0016,4.9527,4.949,4.949,4.949,4.949,4.949,4.949,4.9979,5.1054,5.2614,5.362,5.4562,5.5403,5.5403,5.5286,5.5113,5.5057,5.4389,5.3314,5.2422,5.1554,5.0707,5.0801,5.0809,5.09,5.1254,5.1208,5.0883,5.0354,5.0246,5.0289,5.0289,5.0795,5.1231,5.0405,5.0175,5.0175,5.005,4.9906,4.9821,4.9721,4.9612,4.949,4.949,4.949,4.949,4.949,4.8883,4.8394,4.8567,4.7903,4.7296,4.7299,4.7232,4.7143,4.702,4.6893,4.6493,4.5492,4.5576,4.5247,4.4015,4.4167,4.4413,4.4624,4.4448,4.4132,4.3711,4.4589,4.5361,4.5958,4.7643,4.8661,4.8942,5.0241,5.1259,5.2032,5.2593,5.3513,5.4612,5.4157,5.4443,5.5294,5.5144,5.5354,5.5754,5.6338,5.6979,5.7647,5.7837,5.8357,5.9047,5.9357,5.9944,6.0703,5.5593,5.5593,5.5593,5.5593,5.563,5.5443,5.4709,5.5986,5.6474,5.4859,5.5255,5.5368,5.4559,5.4446,5.4071,5.3261,5.2381,5.1593,5.082,4.9978,4.9527,4.9565,4.9527,4.949,4.949,4.949,4.9505,4.9521,5.0639,5.1681,5.2627,5.3709,5.4639,5.5403,5.539,5.5273,5.5099,5.4927,5.4322,5.3396,5.2333,5.1442,5.0782,5.0782,5.0782,5.0879,5.163,5.1442,5.0857,5.0745,5.0839,5.0983,5.0983,5.1049,5.1026,5.0296,5.0087,5.0076,4.9982,4.9844,4.9692,4.9678,4.9612,4.949,4.949,4.949,4.949,4.949,4.9027,4.866,4.8698,4.7972,4.7363,4.737,4.7133,4.6975,4.6952,4.6731,4.6307,4.5563,4.5927,4.5642,4.4249,4.4753,4.4904,4.4202,4.4764,4.522,4.5326,4.5291,4.5923,4.7327,4.824,4.9012,4.9776,5.0557,5.14,5.225,5.3723,5.4788,5.5339,5.5339,5.5283,5.5231,5.6082,5.6365,5.6245,5.7045,5.7682,5.8177,5.8045,5.8392,5.9116,5.9909,6.0668,6.1427,5.5593,5.5593,5.5593,5.5593,5.6174,5.6512,5.6324,5.7676,5.8389,5.7375,5.6849,5.6286,5.5405,5.4784,5.4071,5.3261,5.2381,5.1818,5.163,5.0278,4.9753,5.0391,4.9828,4.949,4.949,4.949,4.9612,4.9821,5.1454,5.2399,5.2806,5.4358,5.5212,5.539,5.5246,5.5085,5.4927,5.4738,5.449,5.4009,5.251,5.178,5.163,5.163,5.163,5.163,5.1818,5.2193,5.2397,5.112,5.1136,5.1641,5.1641,5.1766,5.188,5.1807,5.093,5.0058,5.0534,5.0212,4.9663,4.9582,4.9521,4.949,4.949,4.949,4.949,4.949,4.9396,4.9334,4.9492,4.8692,4.7979,4.8012,4.7239,4.6613,4.6398,4.6326,4.6352,4.6504,4.6365,4.6209,4.6186,4.6034,4.6133,4.652,4.6204,4.646,4.7618,4.7151,4.7011,4.7397,4.8731,4.982,5.0592,5.1365,5.2734,5.4671,5.5529,5.6278,5.6947,5.6858,5.6798,5.6767,5.6972,5.7042,5.708,5.7719,5.807,5.8211,5.8597,5.8875,5.9116,5.9909,6.0668,6.1427,5.6136,5.6211,5.6211,5.6211,5.6887,5.7075,5.5911,5.7751,5.8614,5.6662,5.6699,5.6436,5.5197,5.4672,5.4221,5.377,5.2606,5.1743,5.1367,5.0203,4.9678,5.0128,4.9715,4.949,4.949,4.9865,5.0327,5.0918,5.2361,5.3145,5.3315,5.4663,5.5273,5.526,5.5085,5.4927,5.4776,5.4645,5.4538,5.4296,5.3019,5.2268,5.1855,5.148,5.1367,5.1367,5.1367,5.1893,5.2456,5.1555,5.178,5.2494,5.2494,5.2521,5.2693,5.3186,5.2167,5.095,5.1277,5.1042,5.0688,5.0632,5.0316,5.0053,5.0053,5.0053,5.0053,5.0053,5.0123,5.0189,5.0191,4.9094,4.815,4.8057,4.7121,4.635,4.6239,4.6214,4.6277,4.6531,4.6667,4.6864,4.7085,4.7195,4.7367,4.7685,4.7452,4.7603,4.8286,4.8403,4.8451,4.8451,4.9609,5.0627,5.14,5.2523,5.3892,5.5507,5.6155,5.6803,5.7416,5.7321,5.7228,5.7099,5.7511,5.7649,5.7654,5.8383,5.8628,5.8596,5.8909,5.9012,5.915,6.0289,6.0944,6.1461,5.6587,5.6925,5.7037,5.6925,5.7563,5.7357,5.5122,5.7338,5.8276,5.5348,5.6211,5.6474,5.4934,5.4672,5.4521,5.4409,5.2982,5.1818,5.112,5.0203,4.9678,4.9678,4.9565,4.9565,4.9678,5.0498,5.129,5.2092,5.3104,5.3704,5.3892,5.4704,5.5085,5.5071,5.4912,5.4776,5.4597,5.4581,5.4522,5.4334,5.3524,5.2757,5.2006,5.1346,5.1083,5.1083,5.1083,5.1593,5.2268,5.2156,5.2682,5.3374,5.3374,5.3374,5.3524,5.4183,5.3456,5.2407,5.2151,5.2006,5.1893,5.1893,5.1405,5.0879,5.0879,5.0879,5.0879,5.0831,5.0929,5.1005,5.0762,4.9394,4.8211,4.8019,4.6903,4.6074,4.6179,4.6109,4.6133,4.6453,4.7026,4.7458,4.7663,4.8186,4.8489,4.8366,4.8494,4.8594,4.8686,4.9421,4.9987,5.0233,5.0768,5.154,5.2523,5.3963,5.5092,5.5974,5.6606,5.7122,5.7605,5.7573,5.7411,5.7185,5.7972,5.8215,5.8116,5.8941,5.9149,5.9012,5.9012,5.9012,5.9185,6.0737,6.1289,6.153,5.5893,5.6944,5.7713,5.7,5.7563,5.7751,5.6662,5.8089,5.8877,5.7676,5.7751,5.7563,5.6624,5.5873,5.5142,5.4446,5.3545,5.2961,5.2811,5.1383,5.0519,5.0519,4.9865,4.9828,5.0519,5.1396,5.1963,5.2092,5.3089,5.3631,5.3661,5.4533,5.4912,5.4912,5.4707,5.4629,5.4597,5.4489,5.4443,5.4334,5.3524,5.3111,5.2998,5.2848,5.2811,5.2811,5.2811,5.3337,5.3921,5.3224,5.3562,5.4221,5.4221,5.4221,5.4221,5.4371,5.4238,5.3879,5.3186,5.2456,5.1893,5.1893,5.1818,5.1705,5.1705,5.1705,5.164,5.135,5.1301,5.1324,5.1222,4.9742,4.8618,4.8777,4.6797,4.5501,4.6109,4.5653,4.5892,4.7595,4.7565,4.7784,4.8804,4.8705,4.8828,4.9424,4.8889,4.9354,5.1297,5.0962,5.1322,5.2621,5.2137,5.2839,5.4946,5.5823,5.6921,5.8202,5.8148,5.844,5.9006,5.8803,5.8702,5.8668,5.884,5.884,5.884,5.9012,5.9012,5.9012,5.9012,5.9012,5.9185,6.0737,6.1289,6.153,5.6286,5.7263,5.7958,5.76,5.8201,5.8314,5.7075,5.8276,5.8689,5.6982,5.715,5.6962,5.5685,5.5197,5.4822,5.4446,5.4071,5.3675,5.3224,5.1646,5.0707,5.0707,5.0316,5.0729,5.2022,5.2462,5.2908,5.336,5.3874,5.414,5.414,5.4556,5.4761,5.4745,5.4571,5.4505,5.4489,5.4443,5.4409,5.4371,5.3996,5.3599,5.3186,5.3186,5.3186,5.3186,5.3186,5.3712,5.4334,5.3958,5.4071,5.4409,5.4409,5.4409,5.4409,5.4409,5.4409,5.4334,5.3958,5.3545,5.3245,5.3245,5.2907,5.2536,5.2384,5.2469,5.2452,5.1918,5.2063,5.2156,5.1796,5.0124,4.896,4.9331,4.7297,4.5933,4.6765,4.6555,4.6688,4.7614,4.8252,4.887,4.9417,5.0057,5.0488,5.0635,5.0893,5.143,5.2334,5.2232,5.2628,5.3752,5.3857,5.4595,5.6069,5.6751,5.7639,5.873,5.8502,5.8722,5.9319,5.9183,5.9081,5.9012,5.9012,5.9012,5.9012,5.9012,5.9012,5.9012,5.9012,5.9254,5.9771,6.0875,6.1565,6.2082,5.6737,5.7563,5.8164,5.8351,5.8877,5.8764,5.715,5.8126,5.8201,5.5893,5.6361,5.6324,5.4859,5.4672,5.4597,5.4409,5.4409,5.4071,5.3261,5.1984,5.1196,5.0992,5.1196,5.1872,5.3186,5.3374,5.377,5.4409,5.4522,5.4549,5.4549,5.4549,5.4549,5.4533,5.4439,5.4409,5.4409,5.4409,5.4409,5.4409,5.4409,5.4033,5.3487,5.3487,5.3487,5.3487,5.3487,5.3883,5.4409,5.4409,5.4409,5.4409,5.4409,5.4409,5.4409,5.4409,5.4409,5.4409,5.4409,5.4409,5.4409,5.4409,5.3921,5.3403,5.3048,5.3192,5.3137,5.2424,5.2601,5.2682,5.2018,5.047,4.9276,4.9416,4.7783,4.667,4.7292,4.7538,4.7783,4.817,4.9398,5.0311,5.0514,5.1575,5.2161,5.1889,5.2702,5.3175,5.3096,5.3309,5.3857,5.4805,5.5437,5.621,5.7158,5.7569,5.8174,5.891,5.8716,5.8829,5.9251,5.9251,5.9183,5.9012,5.9012,5.9012,5.9012,5.9012,5.9012,5.9012,5.9012,5.9495,6.0289,6.1013,6.1806,6.2599,5.6737,5.7563,5.8351,5.9065,5.9253,5.8764,5.715,5.7638,5.7545,5.5818,5.6361,5.6549,5.5593,5.5518,5.5218,5.4484,5.4409,5.4071,5.3261,5.3074,5.2644,5.1855,5.2569,5.3074,5.3186,5.3921,5.4334,5.4409,5.4426,5.4426,5.4426,5.4426,5.4426,5.4426,5.4409,5.4409,5.4409,5.4409,5.4409,5.4409,5.4409,5.4371,5.4296,5.4296,5.4296,5.4296,5.4296,5.4334,5.4409,5.4409,5.4409,5.4409,5.4409,5.4409,5.4409,5.4409,5.4409,5.4409,5.4409,5.4409,5.4409,5.4409,5.4371,5.4228,5.3906,5.3851,5.3607,5.2652,5.2526,5.2289,5.1485,5.0606,4.97,4.8722,4.7889,4.7327,4.7397,4.7994,4.8977,5.0452,5.1365,5.2137,5.2867,5.3043,5.3113,5.3099,5.3148,5.35,5.4161,5.4237,5.4911,5.6385,5.649,5.7263,5.8808,5.8654,5.8913,5.9516,5.935,5.9148,5.9012,5.9012,5.9012,5.9012,5.9012,5.9012,5.9012,5.9012,5.9012,5.9012,5.9012,5.9495,6.0289,6.1013,6.1806,6.2599,5.6737,5.7563,5.8351,5.9178,5.8877,5.8351,5.7751,5.7488,5.6925,5.5743,5.5893,5.5798,5.4972,5.4859,5.4747,5.4446,5.4216,5.3959,5.366,5.346,5.3142,5.2703,5.3508,5.3921,5.3921,5.4221,5.4409,5.4409,5.4198,5.4072,5.4109,5.3889,5.3795,5.3795,5.3795,5.3795,5.3795,5.3795,5.3907,5.4072,5.4072,5.4216,5.4409,5.4409,5.4409,5.4409,5.4409,5.4409,5.4409,5.4409,5.4409,5.4337,5.4163,5.4233,5.4409,5.4409,5.4251,5.4072,5.4072,5.4233,5.4409,5.4409,5.4233,5.3999,5.3662,5.345,5.3146,5.2394,5.2101,5.1886,5.1393,5.0496,5.0022,5.0592,4.9644,4.9153,5.0136,5.046,5.0881,5.1505,5.2277,5.2839,5.3183,5.3612,5.3892,5.3892,5.4349,5.4735,5.5051,5.5472,5.6455,5.8035,5.8105,5.8386,5.9018,5.9187,5.9373,5.9588,5.9285,5.9081,5.9012,5.9012,5.9012,5.9012,5.9012,5.9012,5.9012,5.9012,5.9012,5.9012,5.9012,5.9771,6.0909,6.1185,6.2082,6.322,5.6324,5.6962,5.76,5.8389,5.8089,5.7638,5.7357,5.6849,5.6211,5.533,5.5218,5.501,5.4446,5.4409,5.4375,5.4251,5.4017,5.387,5.3739,5.3526,5.3382,5.3269,5.3773,5.4109,5.4109,5.4109,5.4109,5.4109,5.387,5.372,5.372,5.3506,5.3407,5.3407,5.3407,5.3407,5.3407,5.3407,5.3526,5.372,5.372,5.3944,5.4233,5.4233,5.4303,5.4409,5.4409,5.4409,5.4409,5.4409,5.4409,5.432,5.3999,5.3981,5.4109,5.4109,5.3926,5.372,5.372,5.3907,5.4109,5.4109,5.3833,5.3546,5.3187,5.3118,5.2926,5.2328,5.2248,5.2213,5.1953,5.1316,5.1049,5.1891,5.1329,5.1084,5.1891,5.2418,5.2664,5.2418,5.3296,5.3822,5.3576,5.4244,5.47,5.47,5.5191,5.5613,5.5823,5.65,5.7517,5.8983,5.9166,5.9239,5.9239,5.9474,5.9621,5.9588,5.9459,5.9254,5.9047,5.9495,5.9599,5.9392,5.9633,5.9737,5.9737,5.9737,5.9599,5.9392,5.9633,6.0358,6.1323,6.1565,6.2496,6.36,5.5443,5.5593,5.5893,5.6737,5.6887,5.6624,5.5743,5.5593,5.5293,5.4484,5.4409,5.4409,5.4409,5.4409,5.4251,5.3926,5.3907,5.3739,5.3407,5.3387,5.3387,5.3387,5.3407,5.3407,5.3407,5.3407,5.3407,5.3407,5.3407,5.3407,5.3407,5.3387,5.3387,5.3387,5.3387,5.3387,5.3387,5.3387,5.3387,5.3407,5.3407,5.3585,5.3907,5.3907,5.4089,5.4409,5.4409,5.4409,5.4409,5.4409,5.4409,5.4357,5.3999,5.3662,5.3407,5.3407,5.3407,5.3407,5.3407,5.3387,5.3387,5.3407,5.3208,5.2898,5.2585,5.2904,5.3131,5.2537,5.3041,5.3517,5.3275,5.3218,5.2944,5.2172,5.2664,5.2909,5.2137,5.3366,5.4033,5.3324,5.4559,5.5191,5.4384,5.5051,5.5507,5.5507,5.5507,5.5859,5.6596,5.718,5.7954,5.8952,5.9526,5.9779,5.9814,5.9685,5.9621,5.9588,6.0013,5.9806,5.9081,6.0599,6.0909,6.0254,6.0978,6.1289,6.1289,6.1289,6.0875,6.0289,6.1013,6.1289,6.1392,6.2186,6.2944,6.36,5.5443,5.6099,5.6587,5.6849,5.6887,5.6624,5.5743,5.5105,5.4672,5.4446,5.4409,5.4303,5.4054,5.4035,5.3926,5.3565,5.3383,5.3151,5.2783,5.2761,5.3016,5.3599,5.3492,5.3407,5.3407,5.3407,5.3407,5.3407,5.3219,5.313,5.3093,5.2893,5.3053,5.3599,5.3016,5.3089,5.3563,5.3016,5.2915,5.313,5.313,5.3302,5.3546,5.3546,5.3776,5.4035,5.4035,5.4198,5.4409,5.4409,5.4233,5.3981,5.3643,5.3711,5.3922,5.4174,5.4475,5.4723,5.4723,5.441,5.3935,5.3277,5.3295,5.3399,5.3121,5.3283,5.3451,5.3273,5.3294,5.3268,5.3218,5.3218,5.326,5.3576,5.3366,5.3471,5.4349,5.4384,5.4419,5.477,5.5227,5.5402,5.5191,5.5367,5.5718,5.6245,5.665,5.7254,5.8024,5.811,5.8599,5.9529,5.9706,6.0124,6.0849,6.052,6.0319,6.0218,6.0739,6.084,6.0634,6.1082,6.1185,6.0978,6.122,6.1289,6.1289,6.1289,6.1185,6.0978,6.122,6.1634,6.2151,6.2393,6.2944,6.36,5.5047,5.5535,5.5911,5.5911,5.5911,5.5723,5.5235,5.4709,5.4409,5.4409,5.4268,5.4145,5.3926,5.4055,5.3916,5.3318,5.3273,5.3326,5.3445,5.3458,5.3675,5.4146,5.4054,5.3836,5.3528,5.3198,5.3051,5.3051,5.2872,5.282,5.2798,5.2595,5.2915,5.3675,5.2842,5.2951,5.3639,5.2842,5.2618,5.282,5.282,5.298,5.3261,5.3346,5.3604,5.3963,5.4409,5.4406,5.4235,5.461,5.4205,5.3541,5.3633,5.3814,5.4045,5.4576,5.4821,5.4929,5.4929,5.4627,5.4076,5.3435,5.3448,5.3623,5.3447,5.3647,5.3894,5.3894,5.4,5.4103,5.4103,5.4103,5.4244,5.47,5.4384,5.4419,5.5367,5.5086,5.484,5.5016,5.5332,5.5507,5.5507,5.5753,5.6245,5.7017,5.7355,5.7856,5.866,5.8502,5.8816,5.9779,5.9779,6.0264,6.1167,6.1215,6.1187,6.1051,6.1223,6.1289,6.1323,6.1634,6.1807,6.1879,6.2118,6.2256,6.2328,6.2256,6.2048,6.1806,6.2082,6.2324,6.253,6.2806,6.322,6.36,5.4398,5.449,5.451,5.451,5.4585,5.4623,5.4548,5.4435,5.4415,5.4415,5.411,5.3851,5.3907,5.4303,5.416,5.3251,5.3572,5.411,5.487,5.4907,5.4943,5.5015,5.4943,5.4581,5.3929,5.3059,5.2552,5.248,5.248,5.2552,5.2589,5.2516,5.2951,5.3784,5.2951,5.3059,5.3748,5.2951,5.2589,5.2589,5.2516,5.2686,5.3017,5.3314,5.3617,5.4037,5.5154,5.4875,5.4075,5.4818,5.4162,5.3193,5.3916,5.4018,5.4037,5.4774,5.4794,5.4619,5.4594,5.4363,5.4136,5.3867,5.3784,5.3757,5.3651,5.4056,5.4419,5.4419,5.5016,5.5507,5.5507,5.5507,5.5543,5.5613,5.5507,5.5443,5.5548,5.5513,5.5232,5.4536,5.5168,5.5659,5.5688,5.6355,5.7092,5.7798,5.7744,5.7999,5.8733,5.8607,5.8885,5.9779,5.9849,6.0303,6.114,6.1841,6.2124,6.1987,6.1639,6.1496,6.153,6.2255,6.2673,6.2783,6.3363,6.371,6.3891,6.3673,6.3186,6.2668,6.3324,6.3186,6.2668,6.3324,6.36,6.36,5.4437,5.5124,5.5569,5.5492,5.6068,5.629,5.5603,5.4956,5.4548,5.4548,5.3953,5.3665,5.4023,5.4136,5.429,5.447,5.4592,5.4725,5.4907,5.4907,5.516,5.574,5.5196,5.5088,5.5486,5.4146,5.3132,5.248,5.248,5.2806,5.3422,5.277,5.3277,5.4617,5.3784,5.3892,5.4581,5.3784,5.3422,5.3385,5.2733,5.2526,5.269,5.3376,5.3807,5.4185,5.5058,5.4986,5.4425,5.4107,5.379,5.3631,5.4158,5.4882,5.5498,5.5455,5.5857,5.6221,5.6009,5.5711,5.5461,5.5405,5.5241,5.4928,5.4295,5.4694,5.5262,5.5262,5.5402,5.5507,5.5507,5.5507,5.5718,5.628,5.5367,5.4922,5.6029,5.5649,5.5379,5.5672,5.6408,5.6959,5.7048,5.7782,5.8275,5.8256,5.8816,5.9201,5.9375,5.9342,5.9478,5.9779,6.0408,6.1173,6.211,6.2713,6.2857,6.2543,6.306,6.3263,6.3117,6.3289,6.3395,6.3432,6.3533,6.3637,6.3673,6.3637,6.3496,6.3358,6.3531,6.3496,6.3358,6.3531,6.36,6.36,5.4458,5.4974,5.5381,5.5766,5.6172,5.6208,5.536,5.488,5.4458,5.4088,5.3834,5.3812,5.4078,5.4629,5.5267,5.5945,5.5993,5.5993,5.5993,5.5993,5.6174,5.6536,5.621,5.5993,5.5993,5.487,5.4074,5.3639,5.3639,5.3856,5.4255,5.3856,5.4291,5.5377,5.4617,5.4689,5.5377,5.4617,5.4037,5.3675,5.3241,5.3059,5.3119,5.3681,5.4228,5.481,5.5794,5.5794,5.5176,5.4158,5.3855,5.395,5.4574,5.5163,5.5662,5.59,5.6197,5.632,5.6217,5.5936,5.5706,5.5706,5.5871,5.5823,5.5051,5.5472,5.6034,5.6034,5.635,5.6596,5.6596,5.6596,5.6706,5.6965,5.637,5.6064,5.6714,5.6474,5.6338,5.6628,5.7045,5.746,5.7872,5.905,5.9606,5.909,5.9822,6.0102,5.9718,5.9718,5.989,6.0373,6.0891,6.1728,6.2951,6.327,6.3484,6.3519,6.3482,6.3582,6.3747,6.3366,6.3366,6.3747,6.3637,6.3637,6.3747,6.3637,6.36,6.36,6.36,6.36,6.36,6.36,6.36,6.36,5.4491,5.4748,5.508,5.5824,5.5948,5.5728,5.5045,5.4766,5.4458,5.3797,5.3924,5.4123,5.4269,5.5462,5.6555,5.7257,5.7438,5.7572,5.7623,5.7427,5.7329,5.7329,5.7185,5.6823,5.6161,5.557,5.516,5.4907,5.4762,5.4834,5.5088,5.4979,5.5305,5.5957,5.5377,5.5414,5.5957,5.5341,5.4689,5.4074,5.3965,5.3929,5.3952,5.4292,5.4843,5.556,5.6638,5.6546,5.5688,5.4525,5.41,5.4305,5.5089,5.5437,5.5678,5.6185,5.624,5.6049,5.5886,5.5754,5.5718,5.5718,5.6245,5.6631,5.6034,5.6385,5.6806,5.6806,5.7333,5.779,5.779,5.7759,5.7732,5.7716,5.758,5.7451,5.7431,5.7466,5.7468,5.7575,5.7851,5.8198,5.8652,6.0175,6.0833,6.0135,6.0761,6.0864,6.0233,6.0231,6.0578,6.1243,6.1551,6.2319,6.3583,6.3863,6.4182,6.4603,6.3973,6.3796,6.41,6.3407,6.3406,6.4027,6.3846,6.3777,6.3854,6.3673,6.3669,6.3772,6.3634,6.3738,6.3979,6.3841,6.374,6.3637,5.4687,5.5377,5.5994,5.6566,5.666,5.6547,5.6204,5.5578,5.5076,5.4968,5.4414,5.4281,5.4997,5.6412,5.7468,5.7846,5.8457,5.8961,5.9263,5.8402,5.7872,5.7872,5.7225,5.6793,5.6685,5.6808,5.6247,5.4907,5.4218,5.4544,5.5848,5.5196,5.5305,5.5993,5.5884,5.5921,5.5993,5.5884,5.5776,5.5631,5.4979,5.4762,5.4798,5.5462,5.5813,5.597,5.6628,5.6034,5.4926,5.4709,5.4646,5.4816,5.5568,5.6446,5.7013,5.6191,5.6425,5.6728,5.5801,5.5994,5.6455,5.6455,5.7052,5.7614,5.7509,5.7579,5.7649,5.7649,5.7719,5.779,5.779,5.7666,5.7751,5.845,5.7869,5.75,5.8033,5.807,5.8246,5.8804,6.0151,6.0739,6.0048,6.0913,6.1467,6.1363,6.1605,6.1777,6.1876,6.2008,6.2075,6.2215,6.2915,6.3372,6.3583,6.4917,6.5549,6.5442,6.5965,6.5713,6.4826,6.4722,6.4648,6.4603,6.4565,6.4186,6.3637,6.36,6.3979,6.4496,6.3841,6.4393,6.5497,6.4807,6.4263,6.382,5.4762,5.5363,5.5995,5.6695,5.668,5.6403,5.5839,5.5455,5.5062,5.4572,5.4608,5.4786,5.5169,5.6989,5.8259,5.8371,5.9087,5.943,5.9103,5.8239,5.7691,5.7691,5.7002,5.6573,5.6573,5.6276,5.5969,5.5754,5.5663,5.5993,5.6645,5.6355,5.6355,5.6681,5.6681,5.6681,5.6681,5.6681,5.6391,5.5957,5.5631,5.5522,5.5558,5.5884,5.6283,5.6667,5.6589,5.6087,5.5377,5.5213,5.5466,5.5853,5.6206,5.6929,5.7553,5.7117,5.7228,5.7374,5.6907,5.7017,5.7263,5.7263,5.7895,5.8492,5.8492,5.8808,5.8983,5.8562,5.8808,5.9057,5.8927,5.8864,5.8841,5.9029,5.9069,5.8971,5.8699,5.9011,5.9426,5.9668,6.0738,6.1256,6.084,6.1673,6.2021,6.164,6.2162,6.2405,6.2191,6.2188,6.2499,6.3056,6.3305,6.3623,6.4042,6.4673,6.5126,6.5402,6.5333,6.5397,6.5622,6.5622,6.5547,6.5359,6.5359,6.491,6.4255,6.4703,6.4565,6.4083,6.4186,6.4358,6.4603,6.4332,6.4097,6.3927]}]]